<?xml version="1.0" encoding="utf-8"?>
<gpx xmlns:xsi="http://www.w3.org/2001/XMLSchema-instance" xmlns:xsd="http://www.w3.org/2001/XMLSchema" version="1.1" creator="Shapelink.com" xmlns="http://www.topografix.com/GPX/1/1" xmlns:gpxtpx="http://www.garmin.com/xmlschemas/TrackPointExtension/v1">
  <metadata>
    <name>Promenad 1.26 km, 2019-12-17</name>
    <desc></desc>
    <author><name>Ingegerd Persson</name></author> 
    <time>1970-01-01T01:00:00Z</time>
  </metadata>
  <trk>
    <name>Promenad 1.26 km, 2019-12-17</name>
    <trkseg>
      <trkpt lat="56.04388333" lon="12.69530133">
        <ele>0</ele>
        <time>1970-01-01T01:00:00Z</time>
      </trkpt>
      <trkpt lat="56.04389767" lon="12.695325">
        <ele>0</ele>
        <time>1970-01-01T01:00:00Z</time>
      </trkpt>
      <trkpt lat="56.04389767" lon="12.695325">
        <ele>0</ele>
        <time>1970-01-01T01:00:00Z</time>
      </trkpt>
      <trkpt lat="56.04391017" lon="12.69525583">
        <ele>0</ele>
        <time>1970-01-01T01:00:00Z</time>
      </trkpt>
      <trkpt lat="56.04391017" lon="12.69525583">
        <ele>0</ele>
        <time>1970-01-01T01:00:00Z</time>
      </trkpt>
      <trkpt lat="56.04392767" lon="12.6951735">
        <ele>0</ele>
        <time>1970-01-01T01:00:00Z</time>
      </trkpt>
      <trkpt lat="56.04394683" lon="12.69520017">
        <ele>0</ele>
        <time>1970-01-01T01:00:00Z</time>
      </trkpt>
      <trkpt lat="56.04394683" lon="12.69520017">
        <ele>0</ele>
        <time>1970-01-01T01:00:00Z</time>
      </trkpt>
      <trkpt lat="56.04396767" lon="12.69524633">
        <ele>0</ele>
        <time>1970-01-01T01:00:00Z</time>
      </trkpt>
      <trkpt lat="56.04396767" lon="12.69524633">
        <ele>0</ele>
        <time>1970-01-01T01:00:00Z</time>
      </trkpt>
      <trkpt lat="56.0439865" lon="12.6952485">
        <ele>0</ele>
        <time>1970-01-01T01:00:00Z</time>
      </trkpt>
      <trkpt lat="56.0439865" lon="12.6952485">
        <ele>0</ele>
        <time>1970-01-01T01:00:00Z</time>
      </trkpt>
      <trkpt lat="56.04400467" lon="12.69524667">
        <ele>0</ele>
        <time>1970-01-01T01:00:00Z</time>
      </trkpt>
      <trkpt lat="56.04400467" lon="12.69524667">
        <ele>0</ele>
        <time>1970-01-01T01:00:00Z</time>
      </trkpt>
      <trkpt lat="56.04400467" lon="12.69524667">
        <ele>0</ele>
        <time>1970-01-01T01:00:00Z</time>
      </trkpt>
      <trkpt lat="56.0440275" lon="12.69522783">
        <ele>0</ele>
        <time>1970-01-01T01:00:00Z</time>
      </trkpt>
      <trkpt lat="56.04404983" lon="12.69521983">
        <ele>0</ele>
        <time>1970-01-01T01:00:00Z</time>
      </trkpt>
      <trkpt lat="56.04406467" lon="12.695201">
        <ele>0</ele>
        <time>1970-01-01T01:00:00Z</time>
      </trkpt>
      <trkpt lat="56.04406467" lon="12.695201">
        <ele>0</ele>
        <time>1970-01-01T01:00:00Z</time>
      </trkpt>
      <trkpt lat="56.04409367" lon="12.69517933">
        <ele>0</ele>
        <time>1970-01-01T01:00:00Z</time>
      </trkpt>
      <trkpt lat="56.04409367" lon="12.69517933">
        <ele>0</ele>
        <time>1970-01-01T01:00:00Z</time>
      </trkpt>
      <trkpt lat="56.04414217" lon="12.69516317">
        <ele>0</ele>
        <time>1970-01-01T01:00:00Z</time>
      </trkpt>
      <trkpt lat="56.04414217" lon="12.69516317">
        <ele>0</ele>
        <time>1970-01-01T01:00:00Z</time>
      </trkpt>
      <trkpt lat="56.0441735" lon="12.69514383">
        <ele>0</ele>
        <time>1970-01-01T01:00:00Z</time>
      </trkpt>
      <trkpt lat="56.04419083" lon="12.6951265">
        <ele>0</ele>
        <time>1970-01-01T01:00:00Z</time>
      </trkpt>
      <trkpt lat="56.04419083" lon="12.6951265">
        <ele>0</ele>
        <time>1970-01-01T01:00:00Z</time>
      </trkpt>
      <trkpt lat="56.04419083" lon="12.6951265">
        <ele>0</ele>
        <time>1970-01-01T01:00:00Z</time>
      </trkpt>
      <trkpt lat="56.04420833" lon="12.69510383">
        <ele>0</ele>
        <time>1970-01-01T01:00:00Z</time>
      </trkpt>
      <trkpt lat="56.04420833" lon="12.69510383">
        <ele>0</ele>
        <time>1970-01-01T01:00:00Z</time>
      </trkpt>
      <trkpt lat="56.04420833" lon="12.69510383">
        <ele>0</ele>
        <time>1970-01-01T01:00:00Z</time>
      </trkpt>
      <trkpt lat="56.0442325" lon="12.6950695">
        <ele>0</ele>
        <time>1970-01-01T01:00:00Z</time>
      </trkpt>
      <trkpt lat="56.0442325" lon="12.6950695">
        <ele>0</ele>
        <time>1970-01-01T01:00:00Z</time>
      </trkpt>
      <trkpt lat="56.04425617" lon="12.6950325">
        <ele>0</ele>
        <time>1970-01-01T01:00:00Z</time>
      </trkpt>
      <trkpt lat="56.04425617" lon="12.6950325">
        <ele>0</ele>
        <time>1970-01-01T01:00:00Z</time>
        <extensions><gpxtpx:TrackPointExtension><gpxtpx:hr>87</gpxtpx:hr></gpxtpx:TrackPointExtension></extensions>
      </trkpt>
      <trkpt lat="56.04427567" lon="12.69500283">
        <ele>0</ele>
        <time>1970-01-01T01:00:00Z</time>
        <extensions><gpxtpx:TrackPointExtension><gpxtpx:hr>87</gpxtpx:hr></gpxtpx:TrackPointExtension></extensions>
      </trkpt>
      <trkpt lat="56.04430967" lon="12.69498083">
        <ele>0</ele>
        <time>1970-01-01T01:00:00Z</time>
        <extensions><gpxtpx:TrackPointExtension><gpxtpx:hr>87</gpxtpx:hr></gpxtpx:TrackPointExtension></extensions>
      </trkpt>
      <trkpt lat="56.04430967" lon="12.69498083">
        <ele>0</ele>
        <time>1970-01-01T01:00:00Z</time>
        <extensions><gpxtpx:TrackPointExtension><gpxtpx:hr>87</gpxtpx:hr></gpxtpx:TrackPointExtension></extensions>
      </trkpt>
      <trkpt lat="56.044333" lon="12.69495517">
        <ele>0</ele>
        <time>1970-01-01T01:00:00Z</time>
        <extensions><gpxtpx:TrackPointExtension><gpxtpx:hr>87</gpxtpx:hr></gpxtpx:TrackPointExtension></extensions>
      </trkpt>
      <trkpt lat="56.044333" lon="12.69495517">
        <ele>0</ele>
        <time>1970-01-01T01:00:00Z</time>
        <extensions><gpxtpx:TrackPointExtension><gpxtpx:hr>87</gpxtpx:hr></gpxtpx:TrackPointExtension></extensions>
      </trkpt>
      <trkpt lat="56.04436233" lon="12.69493083">
        <ele>0</ele>
        <time>1970-01-01T01:00:00Z</time>
        <extensions><gpxtpx:TrackPointExtension><gpxtpx:hr>88</gpxtpx:hr></gpxtpx:TrackPointExtension></extensions>
      </trkpt>
      <trkpt lat="56.04436233" lon="12.69493083">
        <ele>0</ele>
        <time>1970-01-01T01:00:00Z</time>
        <extensions><gpxtpx:TrackPointExtension><gpxtpx:hr>88</gpxtpx:hr></gpxtpx:TrackPointExtension></extensions>
      </trkpt>
      <trkpt lat="56.04438883" lon="12.69491083">
        <ele>0</ele>
        <time>1970-01-01T01:00:00Z</time>
        <extensions><gpxtpx:TrackPointExtension><gpxtpx:hr>89</gpxtpx:hr></gpxtpx:TrackPointExtension></extensions>
      </trkpt>
      <trkpt lat="56.04438883" lon="12.69491083">
        <ele>0</ele>
        <time>1970-01-01T01:00:00Z</time>
        <extensions><gpxtpx:TrackPointExtension><gpxtpx:hr>89</gpxtpx:hr></gpxtpx:TrackPointExtension></extensions>
      </trkpt>
      <trkpt lat="56.04442133" lon="12.6948875">
        <ele>0</ele>
        <time>1970-01-01T01:00:00Z</time>
        <extensions><gpxtpx:TrackPointExtension><gpxtpx:hr>90</gpxtpx:hr></gpxtpx:TrackPointExtension></extensions>
      </trkpt>
      <trkpt lat="56.04442133" lon="12.6948875">
        <ele>0</ele>
        <time>1970-01-01T01:00:00Z</time>
        <extensions><gpxtpx:TrackPointExtension><gpxtpx:hr>91</gpxtpx:hr></gpxtpx:TrackPointExtension></extensions>
      </trkpt>
      <trkpt lat="56.04445233" lon="12.69486783">
        <ele>0</ele>
        <time>1970-01-01T01:00:00Z</time>
        <extensions><gpxtpx:TrackPointExtension><gpxtpx:hr>92</gpxtpx:hr></gpxtpx:TrackPointExtension></extensions>
      </trkpt>
      <trkpt lat="56.04445233" lon="12.69486783">
        <ele>0</ele>
        <time>1970-01-01T01:00:00Z</time>
        <extensions><gpxtpx:TrackPointExtension><gpxtpx:hr>92</gpxtpx:hr></gpxtpx:TrackPointExtension></extensions>
      </trkpt>
      <trkpt lat="56.0444785" lon="12.694852">
        <ele>0</ele>
        <time>1970-01-01T01:00:00Z</time>
        <extensions><gpxtpx:TrackPointExtension><gpxtpx:hr>92</gpxtpx:hr></gpxtpx:TrackPointExtension></extensions>
      </trkpt>
      <trkpt lat="56.0444785" lon="12.694852">
        <ele>0</ele>
        <time>1970-01-01T01:00:00Z</time>
        <extensions><gpxtpx:TrackPointExtension><gpxtpx:hr>93</gpxtpx:hr></gpxtpx:TrackPointExtension></extensions>
      </trkpt>
      <trkpt lat="56.04450017" lon="12.69483383">
        <ele>0</ele>
        <time>1970-01-01T01:00:00Z</time>
        <extensions><gpxtpx:TrackPointExtension><gpxtpx:hr>93</gpxtpx:hr></gpxtpx:TrackPointExtension></extensions>
      </trkpt>
      <trkpt lat="56.04450017" lon="12.69483383">
        <ele>0</ele>
        <time>1970-01-01T01:00:00Z</time>
        <extensions><gpxtpx:TrackPointExtension><gpxtpx:hr>93</gpxtpx:hr></gpxtpx:TrackPointExtension></extensions>
      </trkpt>
      <trkpt lat="56.04451767" lon="12.69481283">
        <ele>0</ele>
        <time>1970-01-01T01:00:00Z</time>
        <extensions><gpxtpx:TrackPointExtension><gpxtpx:hr>93</gpxtpx:hr></gpxtpx:TrackPointExtension></extensions>
      </trkpt>
      <trkpt lat="56.04454" lon="12.69479117">
        <ele>0</ele>
        <time>1970-01-01T01:00:00Z</time>
        <extensions><gpxtpx:TrackPointExtension><gpxtpx:hr>93</gpxtpx:hr></gpxtpx:TrackPointExtension></extensions>
      </trkpt>
      <trkpt lat="56.04454" lon="12.69479117">
        <ele>0</ele>
        <time>1970-01-01T01:00:00Z</time>
        <extensions><gpxtpx:TrackPointExtension><gpxtpx:hr>93</gpxtpx:hr></gpxtpx:TrackPointExtension></extensions>
      </trkpt>
      <trkpt lat="56.0445655" lon="12.69476683">
        <ele>0</ele>
        <time>1970-01-01T01:00:00Z</time>
        <extensions><gpxtpx:TrackPointExtension><gpxtpx:hr>94</gpxtpx:hr></gpxtpx:TrackPointExtension></extensions>
      </trkpt>
      <trkpt lat="56.0445655" lon="12.69476683">
        <ele>0</ele>
        <time>1970-01-01T01:00:00Z</time>
        <extensions><gpxtpx:TrackPointExtension><gpxtpx:hr>94</gpxtpx:hr></gpxtpx:TrackPointExtension></extensions>
      </trkpt>
      <trkpt lat="56.04458933" lon="12.69475517">
        <ele>0</ele>
        <time>1970-01-01T01:00:00Z</time>
        <extensions><gpxtpx:TrackPointExtension><gpxtpx:hr>94</gpxtpx:hr></gpxtpx:TrackPointExtension></extensions>
      </trkpt>
      <trkpt lat="56.04458933" lon="12.69475517">
        <ele>0</ele>
        <time>1970-01-01T01:00:00Z</time>
        <extensions><gpxtpx:TrackPointExtension><gpxtpx:hr>94</gpxtpx:hr></gpxtpx:TrackPointExtension></extensions>
      </trkpt>
      <trkpt lat="56.04461983" lon="12.69475733">
        <ele>0</ele>
        <time>1970-01-01T01:00:00Z</time>
        <extensions><gpxtpx:TrackPointExtension><gpxtpx:hr>95</gpxtpx:hr></gpxtpx:TrackPointExtension></extensions>
      </trkpt>
      <trkpt lat="56.04461983" lon="12.69475733">
        <ele>0</ele>
        <time>1970-01-01T01:00:00Z</time>
        <extensions><gpxtpx:TrackPointExtension><gpxtpx:hr>96</gpxtpx:hr></gpxtpx:TrackPointExtension></extensions>
      </trkpt>
      <trkpt lat="56.04465317" lon="12.69473317">
        <ele>0</ele>
        <time>1970-01-01T01:00:00Z</time>
        <extensions><gpxtpx:TrackPointExtension><gpxtpx:hr>96</gpxtpx:hr></gpxtpx:TrackPointExtension></extensions>
      </trkpt>
      <trkpt lat="56.0446725" lon="12.6947405">
        <ele>0</ele>
        <time>1970-01-01T01:00:00Z</time>
        <extensions><gpxtpx:TrackPointExtension><gpxtpx:hr>97</gpxtpx:hr></gpxtpx:TrackPointExtension></extensions>
      </trkpt>
      <trkpt lat="56.0446725" lon="12.6947405">
        <ele>0</ele>
        <time>1970-01-01T01:00:00Z</time>
        <extensions><gpxtpx:TrackPointExtension><gpxtpx:hr>97</gpxtpx:hr></gpxtpx:TrackPointExtension></extensions>
      </trkpt>
      <trkpt lat="56.04469767" lon="12.69475117">
        <ele>0</ele>
        <time>1970-01-01T01:00:00Z</time>
        <extensions><gpxtpx:TrackPointExtension><gpxtpx:hr>97</gpxtpx:hr></gpxtpx:TrackPointExtension></extensions>
      </trkpt>
      <trkpt lat="56.04469767" lon="12.69475117">
        <ele>0</ele>
        <time>1970-01-01T01:00:00Z</time>
        <extensions><gpxtpx:TrackPointExtension><gpxtpx:hr>97</gpxtpx:hr></gpxtpx:TrackPointExtension></extensions>
      </trkpt>
      <trkpt lat="56.04472317" lon="12.6947445">
        <ele>0</ele>
        <time>1970-01-01T01:00:00Z</time>
        <extensions><gpxtpx:TrackPointExtension><gpxtpx:hr>97</gpxtpx:hr></gpxtpx:TrackPointExtension></extensions>
      </trkpt>
      <trkpt lat="56.04472317" lon="12.6947445">
        <ele>0</ele>
        <time>1970-01-01T01:00:00Z</time>
        <extensions><gpxtpx:TrackPointExtension><gpxtpx:hr>97</gpxtpx:hr></gpxtpx:TrackPointExtension></extensions>
      </trkpt>
      <trkpt lat="56.04472317" lon="12.6947445">
        <ele>0</ele>
        <time>1970-01-01T01:00:00Z</time>
        <extensions><gpxtpx:TrackPointExtension><gpxtpx:hr>97</gpxtpx:hr></gpxtpx:TrackPointExtension></extensions>
      </trkpt>
      <trkpt lat="56.04474433" lon="12.69471">
        <ele>0</ele>
        <time>1970-01-01T01:00:00Z</time>
        <extensions><gpxtpx:TrackPointExtension><gpxtpx:hr>98</gpxtpx:hr></gpxtpx:TrackPointExtension></extensions>
      </trkpt>
      <trkpt lat="56.04476383" lon="12.694679">
        <ele>0</ele>
        <time>1970-01-01T01:00:00Z</time>
        <extensions><gpxtpx:TrackPointExtension><gpxtpx:hr>98</gpxtpx:hr></gpxtpx:TrackPointExtension></extensions>
      </trkpt>
      <trkpt lat="56.04478317" lon="12.6946485">
        <ele>0</ele>
        <time>1970-01-01T01:00:00Z</time>
        <extensions><gpxtpx:TrackPointExtension><gpxtpx:hr>99</gpxtpx:hr></gpxtpx:TrackPointExtension></extensions>
      </trkpt>
      <trkpt lat="56.04478317" lon="12.6946485">
        <ele>0</ele>
        <time>1970-01-01T01:00:00Z</time>
        <extensions><gpxtpx:TrackPointExtension><gpxtpx:hr>100</gpxtpx:hr></gpxtpx:TrackPointExtension></extensions>
      </trkpt>
      <trkpt lat="56.04479733" lon="12.69461533">
        <ele>0</ele>
        <time>1970-01-01T01:00:00Z</time>
        <extensions><gpxtpx:TrackPointExtension><gpxtpx:hr>100</gpxtpx:hr></gpxtpx:TrackPointExtension></extensions>
      </trkpt>
      <trkpt lat="56.04479733" lon="12.69461533">
        <ele>0</ele>
        <time>1970-01-01T01:00:00Z</time>
        <extensions><gpxtpx:TrackPointExtension><gpxtpx:hr>100</gpxtpx:hr></gpxtpx:TrackPointExtension></extensions>
      </trkpt>
      <trkpt lat="56.04481283" lon="12.69457867">
        <ele>0</ele>
        <time>1970-01-01T01:00:00Z</time>
        <extensions><gpxtpx:TrackPointExtension><gpxtpx:hr>100</gpxtpx:hr></gpxtpx:TrackPointExtension></extensions>
      </trkpt>
      <trkpt lat="56.04481283" lon="12.69457867">
        <ele>0</ele>
        <time>1970-01-01T01:00:00Z</time>
        <extensions><gpxtpx:TrackPointExtension><gpxtpx:hr>101</gpxtpx:hr></gpxtpx:TrackPointExtension></extensions>
      </trkpt>
      <trkpt lat="56.04481283" lon="12.69457867">
        <ele>0</ele>
        <time>1970-01-01T01:00:00Z</time>
        <extensions><gpxtpx:TrackPointExtension><gpxtpx:hr>101</gpxtpx:hr></gpxtpx:TrackPointExtension></extensions>
      </trkpt>
      <trkpt lat="56.0448485" lon="12.69451933">
        <ele>0</ele>
        <time>1970-01-01T01:00:00Z</time>
        <extensions><gpxtpx:TrackPointExtension><gpxtpx:hr>101</gpxtpx:hr></gpxtpx:TrackPointExtension></extensions>
      </trkpt>
      <trkpt lat="56.0448485" lon="12.69451933">
        <ele>0</ele>
        <time>1970-01-01T01:00:00Z</time>
        <extensions><gpxtpx:TrackPointExtension><gpxtpx:hr>102</gpxtpx:hr></gpxtpx:TrackPointExtension></extensions>
      </trkpt>
      <trkpt lat="56.04487167" lon="12.69449817">
        <ele>0</ele>
        <time>1970-01-01T01:00:00Z</time>
        <extensions><gpxtpx:TrackPointExtension><gpxtpx:hr>103</gpxtpx:hr></gpxtpx:TrackPointExtension></extensions>
      </trkpt>
      <trkpt lat="56.04487167" lon="12.69449817">
        <ele>0</ele>
        <time>1970-01-01T01:00:00Z</time>
        <extensions><gpxtpx:TrackPointExtension><gpxtpx:hr>103</gpxtpx:hr></gpxtpx:TrackPointExtension></extensions>
      </trkpt>
      <trkpt lat="56.0449" lon="12.69446967">
        <ele>0</ele>
        <time>1970-01-01T01:00:00Z</time>
        <extensions><gpxtpx:TrackPointExtension><gpxtpx:hr>103</gpxtpx:hr></gpxtpx:TrackPointExtension></extensions>
      </trkpt>
      <trkpt lat="56.0449" lon="12.69446967">
        <ele>0</ele>
        <time>1970-01-01T01:00:00Z</time>
        <extensions><gpxtpx:TrackPointExtension><gpxtpx:hr>104</gpxtpx:hr></gpxtpx:TrackPointExtension></extensions>
      </trkpt>
      <trkpt lat="56.0449235" lon="12.6944495">
        <ele>0</ele>
        <time>1970-01-01T01:00:00Z</time>
        <extensions><gpxtpx:TrackPointExtension><gpxtpx:hr>105</gpxtpx:hr></gpxtpx:TrackPointExtension></extensions>
      </trkpt>
      <trkpt lat="56.0449235" lon="12.6944495">
        <ele>0</ele>
        <time>1970-01-01T01:00:00Z</time>
        <extensions><gpxtpx:TrackPointExtension><gpxtpx:hr>105</gpxtpx:hr></gpxtpx:TrackPointExtension></extensions>
      </trkpt>
      <trkpt lat="56.0449415" lon="12.69441467">
        <ele>0</ele>
        <time>1970-01-01T01:00:00Z</time>
        <extensions><gpxtpx:TrackPointExtension><gpxtpx:hr>106</gpxtpx:hr></gpxtpx:TrackPointExtension></extensions>
      </trkpt>
      <trkpt lat="56.04496983" lon="12.69439517">
        <ele>0</ele>
        <time>1970-01-01T01:00:00Z</time>
        <extensions><gpxtpx:TrackPointExtension><gpxtpx:hr>106</gpxtpx:hr></gpxtpx:TrackPointExtension></extensions>
      </trkpt>
      <trkpt lat="56.04498433" lon="12.6943755">
        <ele>0</ele>
        <time>1970-01-01T01:00:00Z</time>
        <extensions><gpxtpx:TrackPointExtension><gpxtpx:hr>106</gpxtpx:hr></gpxtpx:TrackPointExtension></extensions>
      </trkpt>
      <trkpt lat="56.04498433" lon="12.6943755">
        <ele>0</ele>
        <time>1970-01-01T01:00:00Z</time>
        <extensions><gpxtpx:TrackPointExtension><gpxtpx:hr>106</gpxtpx:hr></gpxtpx:TrackPointExtension></extensions>
      </trkpt>
      <trkpt lat="56.0450055" lon="12.69434767">
        <ele>0</ele>
        <time>1970-01-01T01:00:00Z</time>
        <extensions><gpxtpx:TrackPointExtension><gpxtpx:hr>107</gpxtpx:hr></gpxtpx:TrackPointExtension></extensions>
      </trkpt>
      <trkpt lat="56.0450055" lon="12.69434767">
        <ele>0</ele>
        <time>1970-01-01T01:00:00Z</time>
        <extensions><gpxtpx:TrackPointExtension><gpxtpx:hr>107</gpxtpx:hr></gpxtpx:TrackPointExtension></extensions>
      </trkpt>
      <trkpt lat="56.04502367" lon="12.69433067">
        <ele>0</ele>
        <time>1970-01-01T01:00:00Z</time>
        <extensions><gpxtpx:TrackPointExtension><gpxtpx:hr>107</gpxtpx:hr></gpxtpx:TrackPointExtension></extensions>
      </trkpt>
      <trkpt lat="56.04502367" lon="12.69433067">
        <ele>0</ele>
        <time>1970-01-01T01:00:00Z</time>
        <extensions><gpxtpx:TrackPointExtension><gpxtpx:hr>107</gpxtpx:hr></gpxtpx:TrackPointExtension></extensions>
      </trkpt>
      <trkpt lat="56.0450445" lon="12.69430683">
        <ele>0</ele>
        <time>1970-01-01T01:00:00Z</time>
        <extensions><gpxtpx:TrackPointExtension><gpxtpx:hr>107</gpxtpx:hr></gpxtpx:TrackPointExtension></extensions>
      </trkpt>
      <trkpt lat="56.0450445" lon="12.69430683">
        <ele>0</ele>
        <time>1970-01-01T01:00:00Z</time>
        <extensions><gpxtpx:TrackPointExtension><gpxtpx:hr>108</gpxtpx:hr></gpxtpx:TrackPointExtension></extensions>
      </trkpt>
      <trkpt lat="56.045063" lon="12.69429617">
        <ele>0</ele>
        <time>1970-01-01T01:00:00Z</time>
        <extensions><gpxtpx:TrackPointExtension><gpxtpx:hr>109</gpxtpx:hr></gpxtpx:TrackPointExtension></extensions>
      </trkpt>
      <trkpt lat="56.045063" lon="12.69429617">
        <ele>0</ele>
        <time>1970-01-01T01:00:00Z</time>
        <extensions><gpxtpx:TrackPointExtension><gpxtpx:hr>110</gpxtpx:hr></gpxtpx:TrackPointExtension></extensions>
      </trkpt>
      <trkpt lat="56.04507783" lon="12.69427283">
        <ele>0</ele>
        <time>1970-01-01T01:00:00Z</time>
        <extensions><gpxtpx:TrackPointExtension><gpxtpx:hr>110</gpxtpx:hr></gpxtpx:TrackPointExtension></extensions>
      </trkpt>
      <trkpt lat="56.04507783" lon="12.69427283">
        <ele>0</ele>
        <time>1970-01-01T01:00:00Z</time>
        <extensions><gpxtpx:TrackPointExtension><gpxtpx:hr>111</gpxtpx:hr></gpxtpx:TrackPointExtension></extensions>
      </trkpt>
      <trkpt lat="56.04510467" lon="12.69424367">
        <ele>0</ele>
        <time>1970-01-01T01:00:00Z</time>
        <extensions><gpxtpx:TrackPointExtension><gpxtpx:hr>110</gpxtpx:hr></gpxtpx:TrackPointExtension></extensions>
      </trkpt>
      <trkpt lat="56.04510467" lon="12.69424367">
        <ele>0</ele>
        <time>1970-01-01T01:00:00Z</time>
        <extensions><gpxtpx:TrackPointExtension><gpxtpx:hr>110</gpxtpx:hr></gpxtpx:TrackPointExtension></extensions>
      </trkpt>
      <trkpt lat="56.04513667" lon="12.69420783">
        <ele>0</ele>
        <time>1970-01-01T01:00:00Z</time>
        <extensions><gpxtpx:TrackPointExtension><gpxtpx:hr>110</gpxtpx:hr></gpxtpx:TrackPointExtension></extensions>
      </trkpt>
      <trkpt lat="56.04515467" lon="12.6941895">
        <ele>0</ele>
        <time>1970-01-01T01:00:00Z</time>
        <extensions><gpxtpx:TrackPointExtension><gpxtpx:hr>111</gpxtpx:hr></gpxtpx:TrackPointExtension></extensions>
      </trkpt>
      <trkpt lat="56.04515467" lon="12.6941895">
        <ele>0</ele>
        <time>1970-01-01T01:00:00Z</time>
        <extensions><gpxtpx:TrackPointExtension><gpxtpx:hr>112</gpxtpx:hr></gpxtpx:TrackPointExtension></extensions>
      </trkpt>
      <trkpt lat="56.04517167" lon="12.6941565">
        <ele>0</ele>
        <time>1970-01-01T01:00:00Z</time>
        <extensions><gpxtpx:TrackPointExtension><gpxtpx:hr>113</gpxtpx:hr></gpxtpx:TrackPointExtension></extensions>
      </trkpt>
      <trkpt lat="56.04517167" lon="12.6941565">
        <ele>0</ele>
        <time>1970-01-01T01:00:00Z</time>
        <extensions><gpxtpx:TrackPointExtension><gpxtpx:hr>113</gpxtpx:hr></gpxtpx:TrackPointExtension></extensions>
      </trkpt>
      <trkpt lat="56.04519433" lon="12.69412267">
        <ele>0</ele>
        <time>1970-01-01T01:00:00Z</time>
        <extensions><gpxtpx:TrackPointExtension><gpxtpx:hr>113</gpxtpx:hr></gpxtpx:TrackPointExtension></extensions>
      </trkpt>
      <trkpt lat="56.045214" lon="12.69412283">
        <ele>0</ele>
        <time>1970-01-01T01:00:00Z</time>
        <extensions><gpxtpx:TrackPointExtension><gpxtpx:hr>114</gpxtpx:hr></gpxtpx:TrackPointExtension></extensions>
      </trkpt>
      <trkpt lat="56.045214" lon="12.69412283">
        <ele>0</ele>
        <time>1970-01-01T01:00:00Z</time>
        <extensions><gpxtpx:TrackPointExtension><gpxtpx:hr>114</gpxtpx:hr></gpxtpx:TrackPointExtension></extensions>
      </trkpt>
      <trkpt lat="56.04523217" lon="12.69411517">
        <ele>0</ele>
        <time>1970-01-01T01:00:00Z</time>
        <extensions><gpxtpx:TrackPointExtension><gpxtpx:hr>115</gpxtpx:hr></gpxtpx:TrackPointExtension></extensions>
      </trkpt>
      <trkpt lat="56.0452575" lon="12.6940895">
        <ele>0</ele>
        <time>1970-01-01T01:00:00Z</time>
        <extensions><gpxtpx:TrackPointExtension><gpxtpx:hr>115</gpxtpx:hr></gpxtpx:TrackPointExtension></extensions>
      </trkpt>
      <trkpt lat="56.0452575" lon="12.6940895">
        <ele>0</ele>
        <time>1970-01-01T01:00:00Z</time>
        <extensions><gpxtpx:TrackPointExtension><gpxtpx:hr>117</gpxtpx:hr></gpxtpx:TrackPointExtension></extensions>
      </trkpt>
      <trkpt lat="56.0452575" lon="12.6940895">
        <ele>0</ele>
        <time>1970-01-01T01:00:00Z</time>
        <extensions><gpxtpx:TrackPointExtension><gpxtpx:hr>118</gpxtpx:hr></gpxtpx:TrackPointExtension></extensions>
      </trkpt>
      <trkpt lat="56.0452575" lon="12.6940895">
        <ele>0</ele>
        <time>1970-01-01T01:00:00Z</time>
        <extensions><gpxtpx:TrackPointExtension><gpxtpx:hr>121</gpxtpx:hr></gpxtpx:TrackPointExtension></extensions>
      </trkpt>
      <trkpt lat="56.04529517" lon="12.69406883">
        <ele>0</ele>
        <time>1970-01-01T01:00:00Z</time>
        <extensions><gpxtpx:TrackPointExtension><gpxtpx:hr>121</gpxtpx:hr></gpxtpx:TrackPointExtension></extensions>
      </trkpt>
      <trkpt lat="56.04529517" lon="12.69406883">
        <ele>0</ele>
        <time>1970-01-01T01:00:00Z</time>
        <extensions><gpxtpx:TrackPointExtension><gpxtpx:hr>121</gpxtpx:hr></gpxtpx:TrackPointExtension></extensions>
      </trkpt>
      <trkpt lat="56.04532467" lon="12.6940515">
        <ele>0</ele>
        <time>1970-01-01T01:00:00Z</time>
        <extensions><gpxtpx:TrackPointExtension><gpxtpx:hr>121</gpxtpx:hr></gpxtpx:TrackPointExtension></extensions>
      </trkpt>
      <trkpt lat="56.04532467" lon="12.6940515">
        <ele>0</ele>
        <time>1970-01-01T01:00:00Z</time>
        <extensions><gpxtpx:TrackPointExtension><gpxtpx:hr>121</gpxtpx:hr></gpxtpx:TrackPointExtension></extensions>
      </trkpt>
      <trkpt lat="56.04535017" lon="12.69405867">
        <ele>0</ele>
        <time>1970-01-01T01:00:00Z</time>
        <extensions><gpxtpx:TrackPointExtension><gpxtpx:hr>121</gpxtpx:hr></gpxtpx:TrackPointExtension></extensions>
      </trkpt>
      <trkpt lat="56.04535017" lon="12.69405867">
        <ele>0</ele>
        <time>1970-01-01T01:00:00Z</time>
        <extensions><gpxtpx:TrackPointExtension><gpxtpx:hr>122</gpxtpx:hr></gpxtpx:TrackPointExtension></extensions>
      </trkpt>
      <trkpt lat="56.04537633" lon="12.69404767">
        <ele>0</ele>
        <time>1970-01-01T01:00:00Z</time>
        <extensions><gpxtpx:TrackPointExtension><gpxtpx:hr>122</gpxtpx:hr></gpxtpx:TrackPointExtension></extensions>
      </trkpt>
      <trkpt lat="56.04537633" lon="12.69404767">
        <ele>0</ele>
        <time>1970-01-01T01:00:00Z</time>
        <extensions><gpxtpx:TrackPointExtension><gpxtpx:hr>121</gpxtpx:hr></gpxtpx:TrackPointExtension></extensions>
      </trkpt>
      <trkpt lat="56.0454035" lon="12.6940145">
        <ele>0</ele>
        <time>1970-01-01T01:00:00Z</time>
        <extensions><gpxtpx:TrackPointExtension><gpxtpx:hr>122</gpxtpx:hr></gpxtpx:TrackPointExtension></extensions>
      </trkpt>
      <trkpt lat="56.0454035" lon="12.6940145">
        <ele>0</ele>
        <time>1970-01-01T01:00:00Z</time>
        <extensions><gpxtpx:TrackPointExtension><gpxtpx:hr>121</gpxtpx:hr></gpxtpx:TrackPointExtension></extensions>
      </trkpt>
      <trkpt lat="56.04542417" lon="12.69398767">
        <ele>0</ele>
        <time>1970-01-01T01:00:00Z</time>
        <extensions><gpxtpx:TrackPointExtension><gpxtpx:hr>121</gpxtpx:hr></gpxtpx:TrackPointExtension></extensions>
      </trkpt>
      <trkpt lat="56.04542417" lon="12.69398767">
        <ele>0</ele>
        <time>1970-01-01T01:00:00Z</time>
        <extensions><gpxtpx:TrackPointExtension><gpxtpx:hr>120</gpxtpx:hr></gpxtpx:TrackPointExtension></extensions>
      </trkpt>
      <trkpt lat="56.0454465" lon="12.6939595">
        <ele>0</ele>
        <time>1970-01-01T01:00:00Z</time>
        <extensions><gpxtpx:TrackPointExtension><gpxtpx:hr>120</gpxtpx:hr></gpxtpx:TrackPointExtension></extensions>
      </trkpt>
      <trkpt lat="56.0454465" lon="12.6939595">
        <ele>0</ele>
        <time>1970-01-01T01:00:00Z</time>
        <extensions><gpxtpx:TrackPointExtension><gpxtpx:hr>120</gpxtpx:hr></gpxtpx:TrackPointExtension></extensions>
      </trkpt>
      <trkpt lat="56.0454465" lon="12.6939595">
        <ele>0</ele>
        <time>1970-01-01T01:00:00Z</time>
        <extensions><gpxtpx:TrackPointExtension><gpxtpx:hr>120</gpxtpx:hr></gpxtpx:TrackPointExtension></extensions>
      </trkpt>
      <trkpt lat="56.04546683" lon="12.69392967">
        <ele>0</ele>
        <time>1970-01-01T01:00:00Z</time>
        <extensions><gpxtpx:TrackPointExtension><gpxtpx:hr>120</gpxtpx:hr></gpxtpx:TrackPointExtension></extensions>
      </trkpt>
      <trkpt lat="56.04546683" lon="12.69392967">
        <ele>0</ele>
        <time>1970-01-01T01:00:00Z</time>
        <extensions><gpxtpx:TrackPointExtension><gpxtpx:hr>119</gpxtpx:hr></gpxtpx:TrackPointExtension></extensions>
      </trkpt>
      <trkpt lat="56.04548267" lon="12.6939005">
        <ele>0</ele>
        <time>1970-01-01T01:00:00Z</time>
        <extensions><gpxtpx:TrackPointExtension><gpxtpx:hr>120</gpxtpx:hr></gpxtpx:TrackPointExtension></extensions>
      </trkpt>
      <trkpt lat="56.04548267" lon="12.6939005">
        <ele>0</ele>
        <time>1970-01-01T01:00:00Z</time>
        <extensions><gpxtpx:TrackPointExtension><gpxtpx:hr>119</gpxtpx:hr></gpxtpx:TrackPointExtension></extensions>
      </trkpt>
      <trkpt lat="56.04549917" lon="12.69386933">
        <ele>0</ele>
        <time>1970-01-01T01:00:00Z</time>
        <extensions><gpxtpx:TrackPointExtension><gpxtpx:hr>119</gpxtpx:hr></gpxtpx:TrackPointExtension></extensions>
      </trkpt>
      <trkpt lat="56.04549917" lon="12.69386933">
        <ele>0</ele>
        <time>1970-01-01T01:00:00Z</time>
        <extensions><gpxtpx:TrackPointExtension><gpxtpx:hr>119</gpxtpx:hr></gpxtpx:TrackPointExtension></extensions>
      </trkpt>
      <trkpt lat="56.04549917" lon="12.69386933">
        <ele>0</ele>
        <time>1970-01-01T01:00:00Z</time>
        <extensions><gpxtpx:TrackPointExtension><gpxtpx:hr>119</gpxtpx:hr></gpxtpx:TrackPointExtension></extensions>
      </trkpt>
      <trkpt lat="56.04554617" lon="12.69381033">
        <ele>0</ele>
        <time>1970-01-01T01:00:00Z</time>
        <extensions><gpxtpx:TrackPointExtension><gpxtpx:hr>119</gpxtpx:hr></gpxtpx:TrackPointExtension></extensions>
      </trkpt>
      <trkpt lat="56.04554617" lon="12.69381033">
        <ele>0</ele>
        <time>1970-01-01T01:00:00Z</time>
        <extensions><gpxtpx:TrackPointExtension><gpxtpx:hr>119</gpxtpx:hr></gpxtpx:TrackPointExtension></extensions>
      </trkpt>
      <trkpt lat="56.04557317" lon="12.69377983">
        <ele>0</ele>
        <time>1970-01-01T01:00:00Z</time>
        <extensions><gpxtpx:TrackPointExtension><gpxtpx:hr>119</gpxtpx:hr></gpxtpx:TrackPointExtension></extensions>
      </trkpt>
      <trkpt lat="56.04557317" lon="12.69377983">
        <ele>0</ele>
        <time>1970-01-01T01:00:00Z</time>
        <extensions><gpxtpx:TrackPointExtension><gpxtpx:hr>119</gpxtpx:hr></gpxtpx:TrackPointExtension></extensions>
      </trkpt>
      <trkpt lat="56.04557317" lon="12.69377983">
        <ele>0</ele>
        <time>1970-01-01T01:00:00Z</time>
        <extensions><gpxtpx:TrackPointExtension><gpxtpx:hr>120</gpxtpx:hr></gpxtpx:TrackPointExtension></extensions>
      </trkpt>
      <trkpt lat="56.04560017" lon="12.69374717">
        <ele>0</ele>
        <time>1970-01-01T01:00:00Z</time>
        <extensions><gpxtpx:TrackPointExtension><gpxtpx:hr>120</gpxtpx:hr></gpxtpx:TrackPointExtension></extensions>
      </trkpt>
      <trkpt lat="56.0456295" lon="12.69371233">
        <ele>0</ele>
        <time>1970-01-01T01:00:00Z</time>
        <extensions><gpxtpx:TrackPointExtension><gpxtpx:hr>121</gpxtpx:hr></gpxtpx:TrackPointExtension></extensions>
      </trkpt>
      <trkpt lat="56.0456295" lon="12.69371233">
        <ele>0</ele>
        <time>1970-01-01T01:00:00Z</time>
        <extensions><gpxtpx:TrackPointExtension><gpxtpx:hr>121</gpxtpx:hr></gpxtpx:TrackPointExtension></extensions>
      </trkpt>
      <trkpt lat="56.04564983" lon="12.69368133">
        <ele>0</ele>
        <time>1970-01-01T01:00:00Z</time>
        <extensions><gpxtpx:TrackPointExtension><gpxtpx:hr>121</gpxtpx:hr></gpxtpx:TrackPointExtension></extensions>
      </trkpt>
      <trkpt lat="56.04564983" lon="12.69368133">
        <ele>0</ele>
        <time>1970-01-01T01:00:00Z</time>
        <extensions><gpxtpx:TrackPointExtension><gpxtpx:hr>121</gpxtpx:hr></gpxtpx:TrackPointExtension></extensions>
      </trkpt>
      <trkpt lat="56.04566667" lon="12.69365517">
        <ele>0</ele>
        <time>1970-01-01T01:00:00Z</time>
        <extensions><gpxtpx:TrackPointExtension><gpxtpx:hr>122</gpxtpx:hr></gpxtpx:TrackPointExtension></extensions>
      </trkpt>
      <trkpt lat="56.04568833" lon="12.69363767">
        <ele>0</ele>
        <time>1970-01-01T01:00:00Z</time>
        <extensions><gpxtpx:TrackPointExtension><gpxtpx:hr>122</gpxtpx:hr></gpxtpx:TrackPointExtension></extensions>
      </trkpt>
      <trkpt lat="56.04570983" lon="12.6936165">
        <ele>0</ele>
        <time>1970-01-01T01:00:00Z</time>
        <extensions><gpxtpx:TrackPointExtension><gpxtpx:hr>124</gpxtpx:hr></gpxtpx:TrackPointExtension></extensions>
      </trkpt>
      <trkpt lat="56.04572717" lon="12.69360733">
        <ele>0</ele>
        <time>1970-01-01T01:00:00Z</time>
        <extensions><gpxtpx:TrackPointExtension><gpxtpx:hr>125</gpxtpx:hr></gpxtpx:TrackPointExtension></extensions>
      </trkpt>
      <trkpt lat="56.04572717" lon="12.69360733">
        <ele>0</ele>
        <time>1970-01-01T01:00:00Z</time>
        <extensions><gpxtpx:TrackPointExtension><gpxtpx:hr>128</gpxtpx:hr></gpxtpx:TrackPointExtension></extensions>
      </trkpt>
      <trkpt lat="56.045766" lon="12.69359517">
        <ele>0</ele>
        <time>1970-01-01T01:00:00Z</time>
        <extensions><gpxtpx:TrackPointExtension><gpxtpx:hr>130</gpxtpx:hr></gpxtpx:TrackPointExtension></extensions>
      </trkpt>
      <trkpt lat="56.045766" lon="12.69359517">
        <ele>0</ele>
        <time>1970-01-01T01:00:00Z</time>
        <extensions><gpxtpx:TrackPointExtension><gpxtpx:hr>132</gpxtpx:hr></gpxtpx:TrackPointExtension></extensions>
      </trkpt>
      <trkpt lat="56.04579717" lon="12.693585">
        <ele>0</ele>
        <time>1970-01-01T01:00:00Z</time>
        <extensions><gpxtpx:TrackPointExtension><gpxtpx:hr>131</gpxtpx:hr></gpxtpx:TrackPointExtension></extensions>
      </trkpt>
      <trkpt lat="56.04582067" lon="12.69357317">
        <ele>0</ele>
        <time>1970-01-01T01:00:00Z</time>
        <extensions><gpxtpx:TrackPointExtension><gpxtpx:hr>131</gpxtpx:hr></gpxtpx:TrackPointExtension></extensions>
      </trkpt>
      <trkpt lat="56.04582067" lon="12.69357317">
        <ele>0</ele>
        <time>1970-01-01T01:00:00Z</time>
        <extensions><gpxtpx:TrackPointExtension><gpxtpx:hr>131</gpxtpx:hr></gpxtpx:TrackPointExtension></extensions>
      </trkpt>
      <trkpt lat="56.0458525" lon="12.69354">
        <ele>0</ele>
        <time>1970-01-01T01:00:00Z</time>
        <extensions><gpxtpx:TrackPointExtension><gpxtpx:hr>131</gpxtpx:hr></gpxtpx:TrackPointExtension></extensions>
      </trkpt>
      <trkpt lat="56.0458525" lon="12.69354">
        <ele>0</ele>
        <time>1970-01-01T01:00:00Z</time>
        <extensions><gpxtpx:TrackPointExtension><gpxtpx:hr>131</gpxtpx:hr></gpxtpx:TrackPointExtension></extensions>
      </trkpt>
      <trkpt lat="56.04588267" lon="12.69350967">
        <ele>0</ele>
        <time>1970-01-01T01:00:00Z</time>
        <extensions><gpxtpx:TrackPointExtension><gpxtpx:hr>131</gpxtpx:hr></gpxtpx:TrackPointExtension></extensions>
      </trkpt>
      <trkpt lat="56.04588267" lon="12.69350967">
        <ele>0</ele>
        <time>1970-01-01T01:00:00Z</time>
        <extensions><gpxtpx:TrackPointExtension><gpxtpx:hr>131</gpxtpx:hr></gpxtpx:TrackPointExtension></extensions>
      </trkpt>
      <trkpt lat="56.045913" lon="12.693483">
        <ele>0</ele>
        <time>1970-01-01T01:00:00Z</time>
        <extensions><gpxtpx:TrackPointExtension><gpxtpx:hr>131</gpxtpx:hr></gpxtpx:TrackPointExtension></extensions>
      </trkpt>
      <trkpt lat="56.045913" lon="12.693483">
        <ele>0</ele>
        <time>1970-01-01T01:00:00Z</time>
        <extensions><gpxtpx:TrackPointExtension><gpxtpx:hr>131</gpxtpx:hr></gpxtpx:TrackPointExtension></extensions>
      </trkpt>
      <trkpt lat="56.045942" lon="12.69345383">
        <ele>0</ele>
        <time>1970-01-01T01:00:00Z</time>
        <extensions><gpxtpx:TrackPointExtension><gpxtpx:hr>130</gpxtpx:hr></gpxtpx:TrackPointExtension></extensions>
      </trkpt>
      <trkpt lat="56.045942" lon="12.69345383">
        <ele>0</ele>
        <time>1970-01-01T01:00:00Z</time>
        <extensions><gpxtpx:TrackPointExtension><gpxtpx:hr>130</gpxtpx:hr></gpxtpx:TrackPointExtension></extensions>
      </trkpt>
      <trkpt lat="56.04597383" lon="12.69342683">
        <ele>0</ele>
        <time>1970-01-01T01:00:00Z</time>
        <extensions><gpxtpx:TrackPointExtension><gpxtpx:hr>130</gpxtpx:hr></gpxtpx:TrackPointExtension></extensions>
      </trkpt>
      <trkpt lat="56.04597383" lon="12.69342683">
        <ele>0</ele>
        <time>1970-01-01T01:00:00Z</time>
        <extensions><gpxtpx:TrackPointExtension><gpxtpx:hr>130</gpxtpx:hr></gpxtpx:TrackPointExtension></extensions>
      </trkpt>
      <trkpt lat="56.04599367" lon="12.6934045">
        <ele>0</ele>
        <time>1970-01-01T01:00:00Z</time>
        <extensions><gpxtpx:TrackPointExtension><gpxtpx:hr>130</gpxtpx:hr></gpxtpx:TrackPointExtension></extensions>
      </trkpt>
      <trkpt lat="56.04599367" lon="12.6934045">
        <ele>0</ele>
        <time>1970-01-01T01:00:00Z</time>
        <extensions><gpxtpx:TrackPointExtension><gpxtpx:hr>129</gpxtpx:hr></gpxtpx:TrackPointExtension></extensions>
      </trkpt>
      <trkpt lat="56.04601267" lon="12.69341617">
        <ele>0</ele>
        <time>1970-01-01T01:00:00Z</time>
        <extensions><gpxtpx:TrackPointExtension><gpxtpx:hr>129</gpxtpx:hr></gpxtpx:TrackPointExtension></extensions>
      </trkpt>
      <trkpt lat="56.04601267" lon="12.69341617">
        <ele>0</ele>
        <time>1970-01-01T01:00:00Z</time>
        <extensions><gpxtpx:TrackPointExtension><gpxtpx:hr>129</gpxtpx:hr></gpxtpx:TrackPointExtension></extensions>
      </trkpt>
      <trkpt lat="56.0460265" lon="12.69344533">
        <ele>0</ele>
        <time>1970-01-01T01:00:00Z</time>
        <extensions><gpxtpx:TrackPointExtension><gpxtpx:hr>129</gpxtpx:hr></gpxtpx:TrackPointExtension></extensions>
      </trkpt>
      <trkpt lat="56.04604533" lon="12.69349883">
        <ele>0</ele>
        <time>1970-01-01T01:00:00Z</time>
        <extensions><gpxtpx:TrackPointExtension><gpxtpx:hr>129</gpxtpx:hr></gpxtpx:TrackPointExtension></extensions>
      </trkpt>
      <trkpt lat="56.04604533" lon="12.69349883">
        <ele>0</ele>
        <time>1970-01-01T01:00:00Z</time>
        <extensions><gpxtpx:TrackPointExtension><gpxtpx:hr>129</gpxtpx:hr></gpxtpx:TrackPointExtension></extensions>
      </trkpt>
      <trkpt lat="56.04605833" lon="12.6935435">
        <ele>0</ele>
        <time>1970-01-01T01:00:00Z</time>
        <extensions><gpxtpx:TrackPointExtension><gpxtpx:hr>129</gpxtpx:hr></gpxtpx:TrackPointExtension></extensions>
      </trkpt>
      <trkpt lat="56.04605833" lon="12.6935435">
        <ele>0</ele>
        <time>1970-01-01T01:00:00Z</time>
        <extensions><gpxtpx:TrackPointExtension><gpxtpx:hr>128</gpxtpx:hr></gpxtpx:TrackPointExtension></extensions>
      </trkpt>
      <trkpt lat="56.0460745" lon="12.69357683">
        <ele>0</ele>
        <time>1970-01-01T01:00:00Z</time>
        <extensions><gpxtpx:TrackPointExtension><gpxtpx:hr>127</gpxtpx:hr></gpxtpx:TrackPointExtension></extensions>
      </trkpt>
      <trkpt lat="56.0460745" lon="12.69357683">
        <ele>0</ele>
        <time>1970-01-01T01:00:00Z</time>
        <extensions><gpxtpx:TrackPointExtension><gpxtpx:hr>127</gpxtpx:hr></gpxtpx:TrackPointExtension></extensions>
      </trkpt>
      <trkpt lat="56.046098" lon="12.69361533">
        <ele>0</ele>
        <time>1970-01-01T01:00:00Z</time>
        <extensions><gpxtpx:TrackPointExtension><gpxtpx:hr>127</gpxtpx:hr></gpxtpx:TrackPointExtension></extensions>
      </trkpt>
      <trkpt lat="56.046098" lon="12.69361533">
        <ele>0</ele>
        <time>1970-01-01T01:00:00Z</time>
        <extensions><gpxtpx:TrackPointExtension><gpxtpx:hr>126</gpxtpx:hr></gpxtpx:TrackPointExtension></extensions>
      </trkpt>
      <trkpt lat="56.046098" lon="12.69361533">
        <ele>0</ele>
        <time>1970-01-01T01:00:00Z</time>
        <extensions><gpxtpx:TrackPointExtension><gpxtpx:hr>126</gpxtpx:hr></gpxtpx:TrackPointExtension></extensions>
      </trkpt>
      <trkpt lat="56.0461125" lon="12.69365533">
        <ele>0</ele>
        <time>1970-01-01T01:00:00Z</time>
        <extensions><gpxtpx:TrackPointExtension><gpxtpx:hr>125</gpxtpx:hr></gpxtpx:TrackPointExtension></extensions>
      </trkpt>
      <trkpt lat="56.04612967" lon="12.6936955">
        <ele>0</ele>
        <time>1970-01-01T01:00:00Z</time>
        <extensions><gpxtpx:TrackPointExtension><gpxtpx:hr>125</gpxtpx:hr></gpxtpx:TrackPointExtension></extensions>
      </trkpt>
      <trkpt lat="56.04612967" lon="12.6936955">
        <ele>0</ele>
        <time>1970-01-01T01:00:00Z</time>
        <extensions><gpxtpx:TrackPointExtension><gpxtpx:hr>125</gpxtpx:hr></gpxtpx:TrackPointExtension></extensions>
      </trkpt>
      <trkpt lat="56.04614283" lon="12.69373667">
        <ele>0</ele>
        <time>1970-01-01T01:00:00Z</time>
        <extensions><gpxtpx:TrackPointExtension><gpxtpx:hr>126</gpxtpx:hr></gpxtpx:TrackPointExtension></extensions>
      </trkpt>
      <trkpt lat="56.04614283" lon="12.69373667">
        <ele>0</ele>
        <time>1970-01-01T01:00:00Z</time>
        <extensions><gpxtpx:TrackPointExtension><gpxtpx:hr>126</gpxtpx:hr></gpxtpx:TrackPointExtension></extensions>
      </trkpt>
      <trkpt lat="56.04615317" lon="12.6937685">
        <ele>0</ele>
        <time>1970-01-01T01:00:00Z</time>
        <extensions><gpxtpx:TrackPointExtension><gpxtpx:hr>127</gpxtpx:hr></gpxtpx:TrackPointExtension></extensions>
      </trkpt>
      <trkpt lat="56.04615317" lon="12.6937685">
        <ele>0</ele>
        <time>1970-01-01T01:00:00Z</time>
        <extensions><gpxtpx:TrackPointExtension><gpxtpx:hr>127</gpxtpx:hr></gpxtpx:TrackPointExtension></extensions>
      </trkpt>
      <trkpt lat="56.04617233" lon="12.6938175">
        <ele>0</ele>
        <time>1970-01-01T01:00:00Z</time>
        <extensions><gpxtpx:TrackPointExtension><gpxtpx:hr>127</gpxtpx:hr></gpxtpx:TrackPointExtension></extensions>
      </trkpt>
      <trkpt lat="56.04617233" lon="12.6938175">
        <ele>0</ele>
        <time>1970-01-01T01:00:00Z</time>
        <extensions><gpxtpx:TrackPointExtension><gpxtpx:hr>127</gpxtpx:hr></gpxtpx:TrackPointExtension></extensions>
      </trkpt>
      <trkpt lat="56.04617233" lon="12.6938175">
        <ele>0</ele>
        <time>1970-01-01T01:00:00Z</time>
        <extensions><gpxtpx:TrackPointExtension><gpxtpx:hr>126</gpxtpx:hr></gpxtpx:TrackPointExtension></extensions>
      </trkpt>
      <trkpt lat="56.046197" lon="12.6938525">
        <ele>0</ele>
        <time>1970-01-01T01:00:00Z</time>
        <extensions><gpxtpx:TrackPointExtension><gpxtpx:hr>127</gpxtpx:hr></gpxtpx:TrackPointExtension></extensions>
      </trkpt>
      <trkpt lat="56.04620767" lon="12.69389033">
        <ele>0</ele>
        <time>1970-01-01T01:00:00Z</time>
        <extensions><gpxtpx:TrackPointExtension><gpxtpx:hr>127</gpxtpx:hr></gpxtpx:TrackPointExtension></extensions>
      </trkpt>
      <trkpt lat="56.04620767" lon="12.69389033">
        <ele>0</ele>
        <time>1970-01-01T01:00:00Z</time>
        <extensions><gpxtpx:TrackPointExtension><gpxtpx:hr>127</gpxtpx:hr></gpxtpx:TrackPointExtension></extensions>
      </trkpt>
      <trkpt lat="56.04622333" lon="12.6939495">
        <ele>0</ele>
        <time>1970-01-01T01:00:00Z</time>
        <extensions><gpxtpx:TrackPointExtension><gpxtpx:hr>128</gpxtpx:hr></gpxtpx:TrackPointExtension></extensions>
      </trkpt>
      <trkpt lat="56.04622333" lon="12.6939495">
        <ele>0</ele>
        <time>1970-01-01T01:00:00Z</time>
        <extensions><gpxtpx:TrackPointExtension><gpxtpx:hr>128</gpxtpx:hr></gpxtpx:TrackPointExtension></extensions>
      </trkpt>
      <trkpt lat="56.04622333" lon="12.6939495">
        <ele>0</ele>
        <time>1970-01-01T01:00:00Z</time>
        <extensions><gpxtpx:TrackPointExtension><gpxtpx:hr>127</gpxtpx:hr></gpxtpx:TrackPointExtension></extensions>
      </trkpt>
      <trkpt lat="56.046244" lon="12.693993">
        <ele>0</ele>
        <time>1970-01-01T01:00:00Z</time>
        <extensions><gpxtpx:TrackPointExtension><gpxtpx:hr>128</gpxtpx:hr></gpxtpx:TrackPointExtension></extensions>
      </trkpt>
      <trkpt lat="56.046244" lon="12.693993">
        <ele>0</ele>
        <time>1970-01-01T01:00:00Z</time>
        <extensions><gpxtpx:TrackPointExtension><gpxtpx:hr>128</gpxtpx:hr></gpxtpx:TrackPointExtension></extensions>
      </trkpt>
      <trkpt lat="56.04626083" lon="12.69403617">
        <ele>0</ele>
        <time>1970-01-01T01:00:00Z</time>
        <extensions><gpxtpx:TrackPointExtension><gpxtpx:hr>128</gpxtpx:hr></gpxtpx:TrackPointExtension></extensions>
      </trkpt>
      <trkpt lat="56.04628483" lon="12.694068">
        <ele>0</ele>
        <time>1970-01-01T01:00:00Z</time>
        <extensions><gpxtpx:TrackPointExtension><gpxtpx:hr>128</gpxtpx:hr></gpxtpx:TrackPointExtension></extensions>
      </trkpt>
      <trkpt lat="56.04628483" lon="12.694068">
        <ele>0</ele>
        <time>1970-01-01T01:00:00Z</time>
        <extensions><gpxtpx:TrackPointExtension><gpxtpx:hr>128</gpxtpx:hr></gpxtpx:TrackPointExtension></extensions>
      </trkpt>
      <trkpt lat="56.046304" lon="12.6940925">
        <ele>0</ele>
        <time>1970-01-01T01:00:00Z</time>
        <extensions><gpxtpx:TrackPointExtension><gpxtpx:hr>129</gpxtpx:hr></gpxtpx:TrackPointExtension></extensions>
      </trkpt>
      <trkpt lat="56.046304" lon="12.6940925">
        <ele>0</ele>
        <time>1970-01-01T01:00:00Z</time>
        <extensions><gpxtpx:TrackPointExtension><gpxtpx:hr>129</gpxtpx:hr></gpxtpx:TrackPointExtension></extensions>
      </trkpt>
      <trkpt lat="56.046324" lon="12.69412483">
        <ele>0</ele>
        <time>1970-01-01T01:00:00Z</time>
        <extensions><gpxtpx:TrackPointExtension><gpxtpx:hr>128</gpxtpx:hr></gpxtpx:TrackPointExtension></extensions>
      </trkpt>
      <trkpt lat="56.046324" lon="12.69412483">
        <ele>0</ele>
        <time>1970-01-01T01:00:00Z</time>
        <extensions><gpxtpx:TrackPointExtension><gpxtpx:hr>129</gpxtpx:hr></gpxtpx:TrackPointExtension></extensions>
      </trkpt>
      <trkpt lat="56.046324" lon="12.69412483">
        <ele>0</ele>
        <time>1970-01-01T01:00:00Z</time>
        <extensions><gpxtpx:TrackPointExtension><gpxtpx:hr>129</gpxtpx:hr></gpxtpx:TrackPointExtension></extensions>
      </trkpt>
      <trkpt lat="56.04634483" lon="12.69415717">
        <ele>0</ele>
        <time>1970-01-01T01:00:00Z</time>
        <extensions><gpxtpx:TrackPointExtension><gpxtpx:hr>129</gpxtpx:hr></gpxtpx:TrackPointExtension></extensions>
      </trkpt>
      <trkpt lat="56.04636717" lon="12.6941895">
        <ele>0</ele>
        <time>1970-01-01T01:00:00Z</time>
        <extensions><gpxtpx:TrackPointExtension><gpxtpx:hr>129</gpxtpx:hr></gpxtpx:TrackPointExtension></extensions>
      </trkpt>
      <trkpt lat="56.04636717" lon="12.6941895">
        <ele>0</ele>
        <time>1970-01-01T01:00:00Z</time>
        <extensions><gpxtpx:TrackPointExtension><gpxtpx:hr>128</gpxtpx:hr></gpxtpx:TrackPointExtension></extensions>
      </trkpt>
      <trkpt lat="56.04638533" lon="12.69422483">
        <ele>0</ele>
        <time>1970-01-01T01:00:00Z</time>
        <extensions><gpxtpx:TrackPointExtension><gpxtpx:hr>128</gpxtpx:hr></gpxtpx:TrackPointExtension></extensions>
      </trkpt>
      <trkpt lat="56.04638533" lon="12.69422483">
        <ele>0</ele>
        <time>1970-01-01T01:00:00Z</time>
        <extensions><gpxtpx:TrackPointExtension><gpxtpx:hr>128</gpxtpx:hr></gpxtpx:TrackPointExtension></extensions>
      </trkpt>
      <trkpt lat="56.0464005" lon="12.6942655">
        <ele>0</ele>
        <time>1970-01-01T01:00:00Z</time>
        <extensions><gpxtpx:TrackPointExtension><gpxtpx:hr>128</gpxtpx:hr></gpxtpx:TrackPointExtension></extensions>
      </trkpt>
      <trkpt lat="56.0464005" lon="12.6942655">
        <ele>0</ele>
        <time>1970-01-01T01:00:00Z</time>
        <extensions><gpxtpx:TrackPointExtension><gpxtpx:hr>128</gpxtpx:hr></gpxtpx:TrackPointExtension></extensions>
      </trkpt>
      <trkpt lat="56.04642" lon="12.69431117">
        <ele>0</ele>
        <time>1970-01-01T01:00:00Z</time>
        <extensions><gpxtpx:TrackPointExtension><gpxtpx:hr>128</gpxtpx:hr></gpxtpx:TrackPointExtension></extensions>
      </trkpt>
      <trkpt lat="56.04642" lon="12.69431117">
        <ele>0</ele>
        <time>1970-01-01T01:00:00Z</time>
        <extensions><gpxtpx:TrackPointExtension><gpxtpx:hr>127</gpxtpx:hr></gpxtpx:TrackPointExtension></extensions>
      </trkpt>
      <trkpt lat="56.04643817" lon="12.6943515">
        <ele>0</ele>
        <time>1970-01-01T01:00:00Z</time>
        <extensions><gpxtpx:TrackPointExtension><gpxtpx:hr>127</gpxtpx:hr></gpxtpx:TrackPointExtension></extensions>
      </trkpt>
      <trkpt lat="56.04645267" lon="12.69437067">
        <ele>0</ele>
        <time>1970-01-01T01:00:00Z</time>
        <extensions><gpxtpx:TrackPointExtension><gpxtpx:hr>127</gpxtpx:hr></gpxtpx:TrackPointExtension></extensions>
      </trkpt>
      <trkpt lat="56.04646667" lon="12.69439317">
        <ele>0</ele>
        <time>1970-01-01T01:00:00Z</time>
        <extensions><gpxtpx:TrackPointExtension><gpxtpx:hr>127</gpxtpx:hr></gpxtpx:TrackPointExtension></extensions>
      </trkpt>
      <trkpt lat="56.04646667" lon="12.69439317">
        <ele>0</ele>
        <time>1970-01-01T01:00:00Z</time>
        <extensions><gpxtpx:TrackPointExtension><gpxtpx:hr>126</gpxtpx:hr></gpxtpx:TrackPointExtension></extensions>
      </trkpt>
      <trkpt lat="56.04648917" lon="12.69442883">
        <ele>0</ele>
        <time>1970-01-01T01:00:00Z</time>
        <extensions><gpxtpx:TrackPointExtension><gpxtpx:hr>126</gpxtpx:hr></gpxtpx:TrackPointExtension></extensions>
      </trkpt>
      <trkpt lat="56.04648917" lon="12.69442883">
        <ele>0</ele>
        <time>1970-01-01T01:00:00Z</time>
        <extensions><gpxtpx:TrackPointExtension><gpxtpx:hr>127</gpxtpx:hr></gpxtpx:TrackPointExtension></extensions>
      </trkpt>
      <trkpt lat="56.046509" lon="12.694465">
        <ele>0</ele>
        <time>1970-01-01T01:00:00Z</time>
        <extensions><gpxtpx:TrackPointExtension><gpxtpx:hr>127</gpxtpx:hr></gpxtpx:TrackPointExtension></extensions>
      </trkpt>
      <trkpt lat="56.046509" lon="12.694465">
        <ele>0</ele>
        <time>1970-01-01T01:00:00Z</time>
        <extensions><gpxtpx:TrackPointExtension><gpxtpx:hr>128</gpxtpx:hr></gpxtpx:TrackPointExtension></extensions>
      </trkpt>
      <trkpt lat="56.046528" lon="12.69449733">
        <ele>0</ele>
        <time>1970-01-01T01:00:00Z</time>
        <extensions><gpxtpx:TrackPointExtension><gpxtpx:hr>128</gpxtpx:hr></gpxtpx:TrackPointExtension></extensions>
      </trkpt>
      <trkpt lat="56.04654133" lon="12.69452">
        <ele>0</ele>
        <time>1970-01-01T01:00:00Z</time>
        <extensions><gpxtpx:TrackPointExtension><gpxtpx:hr>128</gpxtpx:hr></gpxtpx:TrackPointExtension></extensions>
      </trkpt>
      <trkpt lat="56.04654133" lon="12.69452">
        <ele>0</ele>
        <time>1970-01-01T01:00:00Z</time>
        <extensions><gpxtpx:TrackPointExtension><gpxtpx:hr>129</gpxtpx:hr></gpxtpx:TrackPointExtension></extensions>
      </trkpt>
      <trkpt lat="56.04656117" lon="12.69456">
        <ele>0</ele>
        <time>1970-01-01T01:00:00Z</time>
        <extensions><gpxtpx:TrackPointExtension><gpxtpx:hr>129</gpxtpx:hr></gpxtpx:TrackPointExtension></extensions>
      </trkpt>
      <trkpt lat="56.04656117" lon="12.69456">
        <ele>0</ele>
        <time>1970-01-01T01:00:00Z</time>
        <extensions><gpxtpx:TrackPointExtension><gpxtpx:hr>130</gpxtpx:hr></gpxtpx:TrackPointExtension></extensions>
      </trkpt>
      <trkpt lat="56.04656983" lon="12.69459417">
        <ele>0</ele>
        <time>1970-01-01T01:00:00Z</time>
        <extensions><gpxtpx:TrackPointExtension><gpxtpx:hr>130</gpxtpx:hr></gpxtpx:TrackPointExtension></extensions>
      </trkpt>
      <trkpt lat="56.04656983" lon="12.69459417">
        <ele>0</ele>
        <time>1970-01-01T01:00:00Z</time>
        <extensions><gpxtpx:TrackPointExtension><gpxtpx:hr>130</gpxtpx:hr></gpxtpx:TrackPointExtension></extensions>
      </trkpt>
      <trkpt lat="56.04658583" lon="12.69462683">
        <ele>0</ele>
        <time>1970-01-01T01:00:00Z</time>
        <extensions><gpxtpx:TrackPointExtension><gpxtpx:hr>131</gpxtpx:hr></gpxtpx:TrackPointExtension></extensions>
      </trkpt>
      <trkpt lat="56.04658583" lon="12.69462683">
        <ele>0</ele>
        <time>1970-01-01T01:00:00Z</time>
        <extensions><gpxtpx:TrackPointExtension><gpxtpx:hr>131</gpxtpx:hr></gpxtpx:TrackPointExtension></extensions>
      </trkpt>
      <trkpt lat="56.04659717" lon="12.69465967">
        <ele>0</ele>
        <time>1970-01-01T01:00:00Z</time>
        <extensions><gpxtpx:TrackPointExtension><gpxtpx:hr>131</gpxtpx:hr></gpxtpx:TrackPointExtension></extensions>
      </trkpt>
      <trkpt lat="56.04659717" lon="12.69465967">
        <ele>0</ele>
        <time>1970-01-01T01:00:00Z</time>
        <extensions><gpxtpx:TrackPointExtension><gpxtpx:hr>132</gpxtpx:hr></gpxtpx:TrackPointExtension></extensions>
      </trkpt>
      <trkpt lat="56.04661883" lon="12.6946935">
        <ele>0</ele>
        <time>1970-01-01T01:00:00Z</time>
        <extensions><gpxtpx:TrackPointExtension><gpxtpx:hr>132</gpxtpx:hr></gpxtpx:TrackPointExtension></extensions>
      </trkpt>
      <trkpt lat="56.04663017" lon="12.69472383">
        <ele>0</ele>
        <time>1970-01-01T01:00:00Z</time>
        <extensions><gpxtpx:TrackPointExtension><gpxtpx:hr>132</gpxtpx:hr></gpxtpx:TrackPointExtension></extensions>
      </trkpt>
      <trkpt lat="56.04663017" lon="12.69472383">
        <ele>0</ele>
        <time>1970-01-01T01:00:00Z</time>
        <extensions><gpxtpx:TrackPointExtension><gpxtpx:hr>132</gpxtpx:hr></gpxtpx:TrackPointExtension></extensions>
      </trkpt>
      <trkpt lat="56.046651" lon="12.694752">
        <ele>0</ele>
        <time>1970-01-01T01:00:00Z</time>
        <extensions><gpxtpx:TrackPointExtension><gpxtpx:hr>133</gpxtpx:hr></gpxtpx:TrackPointExtension></extensions>
      </trkpt>
      <trkpt lat="56.046651" lon="12.694752">
        <ele>0</ele>
        <time>1970-01-01T01:00:00Z</time>
        <extensions><gpxtpx:TrackPointExtension><gpxtpx:hr>133</gpxtpx:hr></gpxtpx:TrackPointExtension></extensions>
      </trkpt>
      <trkpt lat="56.046669" lon="12.694811">
        <ele>0</ele>
        <time>1970-01-01T01:00:00Z</time>
        <extensions><gpxtpx:TrackPointExtension><gpxtpx:hr>133</gpxtpx:hr></gpxtpx:TrackPointExtension></extensions>
      </trkpt>
      <trkpt lat="56.046675" lon="12.69484217">
        <ele>0</ele>
        <time>1970-01-01T01:00:00Z</time>
        <extensions><gpxtpx:TrackPointExtension><gpxtpx:hr>135</gpxtpx:hr></gpxtpx:TrackPointExtension></extensions>
      </trkpt>
      <trkpt lat="56.046675" lon="12.69484217">
        <ele>0</ele>
        <time>1970-01-01T01:00:00Z</time>
        <extensions><gpxtpx:TrackPointExtension><gpxtpx:hr>136</gpxtpx:hr></gpxtpx:TrackPointExtension></extensions>
      </trkpt>
      <trkpt lat="56.04669433" lon="12.6948895">
        <ele>0</ele>
        <time>1970-01-01T01:00:00Z</time>
        <extensions><gpxtpx:TrackPointExtension><gpxtpx:hr>137</gpxtpx:hr></gpxtpx:TrackPointExtension></extensions>
      </trkpt>
      <trkpt lat="56.04669433" lon="12.6948895">
        <ele>0</ele>
        <time>1970-01-01T01:00:00Z</time>
        <extensions><gpxtpx:TrackPointExtension><gpxtpx:hr>137</gpxtpx:hr></gpxtpx:TrackPointExtension></extensions>
      </trkpt>
      <trkpt lat="56.04669433" lon="12.6948895">
        <ele>0</ele>
        <time>1970-01-01T01:00:00Z</time>
        <extensions><gpxtpx:TrackPointExtension><gpxtpx:hr>137</gpxtpx:hr></gpxtpx:TrackPointExtension></extensions>
      </trkpt>
      <trkpt lat="56.04674217" lon="12.69494283">
        <ele>0</ele>
        <time>1970-01-01T01:00:00Z</time>
        <extensions><gpxtpx:TrackPointExtension><gpxtpx:hr>137</gpxtpx:hr></gpxtpx:TrackPointExtension></extensions>
      </trkpt>
      <trkpt lat="56.04674217" lon="12.69494283">
        <ele>0</ele>
        <time>1970-01-01T01:00:00Z</time>
        <extensions><gpxtpx:TrackPointExtension><gpxtpx:hr>137</gpxtpx:hr></gpxtpx:TrackPointExtension></extensions>
      </trkpt>
      <trkpt lat="56.046759" lon="12.69497833">
        <ele>0</ele>
        <time>1970-01-01T01:00:00Z</time>
        <extensions><gpxtpx:TrackPointExtension><gpxtpx:hr>136</gpxtpx:hr></gpxtpx:TrackPointExtension></extensions>
      </trkpt>
      <trkpt lat="56.046759" lon="12.69497833">
        <ele>0</ele>
        <time>1970-01-01T01:00:00Z</time>
        <extensions><gpxtpx:TrackPointExtension><gpxtpx:hr>136</gpxtpx:hr></gpxtpx:TrackPointExtension></extensions>
      </trkpt>
      <trkpt lat="56.04677317" lon="12.69500083">
        <ele>0</ele>
        <time>1970-01-01T01:00:00Z</time>
        <extensions><gpxtpx:TrackPointExtension><gpxtpx:hr>136</gpxtpx:hr></gpxtpx:TrackPointExtension></extensions>
      </trkpt>
      <trkpt lat="56.04677317" lon="12.69500083">
        <ele>0</ele>
        <time>1970-01-01T01:00:00Z</time>
        <extensions><gpxtpx:TrackPointExtension><gpxtpx:hr>136</gpxtpx:hr></gpxtpx:TrackPointExtension></extensions>
      </trkpt>
      <trkpt lat="56.04677317" lon="12.69500083">
        <ele>0</ele>
        <time>1970-01-01T01:00:00Z</time>
        <extensions><gpxtpx:TrackPointExtension><gpxtpx:hr>136</gpxtpx:hr></gpxtpx:TrackPointExtension></extensions>
      </trkpt>
      <trkpt lat="56.04677317" lon="12.69500083">
        <ele>0</ele>
        <time>1970-01-01T01:00:00Z</time>
        <extensions><gpxtpx:TrackPointExtension><gpxtpx:hr>136</gpxtpx:hr></gpxtpx:TrackPointExtension></extensions>
      </trkpt>
      <trkpt lat="56.046788" lon="12.69503667">
        <ele>0</ele>
        <time>1970-01-01T01:00:00Z</time>
        <extensions><gpxtpx:TrackPointExtension><gpxtpx:hr>136</gpxtpx:hr></gpxtpx:TrackPointExtension></extensions>
      </trkpt>
      <trkpt lat="56.046788" lon="12.69503667">
        <ele>0</ele>
        <time>1970-01-01T01:00:00Z</time>
        <extensions><gpxtpx:TrackPointExtension><gpxtpx:hr>136</gpxtpx:hr></gpxtpx:TrackPointExtension></extensions>
      </trkpt>
      <trkpt lat="56.04680333" lon="12.69506333">
        <ele>0</ele>
        <time>1970-01-01T01:00:00Z</time>
        <extensions><gpxtpx:TrackPointExtension><gpxtpx:hr>136</gpxtpx:hr></gpxtpx:TrackPointExtension></extensions>
      </trkpt>
      <trkpt lat="56.04680333" lon="12.69506333">
        <ele>0</ele>
        <time>1970-01-01T01:00:00Z</time>
        <extensions><gpxtpx:TrackPointExtension><gpxtpx:hr>136</gpxtpx:hr></gpxtpx:TrackPointExtension></extensions>
      </trkpt>
      <trkpt lat="56.04683083" lon="12.69505417">
        <ele>0</ele>
        <time>1970-01-01T01:00:00Z</time>
        <extensions><gpxtpx:TrackPointExtension><gpxtpx:hr>136</gpxtpx:hr></gpxtpx:TrackPointExtension></extensions>
      </trkpt>
      <trkpt lat="56.04683083" lon="12.69505417">
        <ele>0</ele>
        <time>1970-01-01T01:00:00Z</time>
        <extensions><gpxtpx:TrackPointExtension><gpxtpx:hr>137</gpxtpx:hr></gpxtpx:TrackPointExtension></extensions>
      </trkpt>
      <trkpt lat="56.04684983" lon="12.6950565">
        <ele>0</ele>
        <time>1970-01-01T01:00:00Z</time>
        <extensions><gpxtpx:TrackPointExtension><gpxtpx:hr>137</gpxtpx:hr></gpxtpx:TrackPointExtension></extensions>
      </trkpt>
      <trkpt lat="56.04684983" lon="12.6950565">
        <ele>0</ele>
        <time>1970-01-01T01:00:00Z</time>
        <extensions><gpxtpx:TrackPointExtension><gpxtpx:hr>137</gpxtpx:hr></gpxtpx:TrackPointExtension></extensions>
      </trkpt>
      <trkpt lat="56.0468755" lon="12.69504817">
        <ele>0</ele>
        <time>1970-01-01T01:00:00Z</time>
        <extensions><gpxtpx:TrackPointExtension><gpxtpx:hr>137</gpxtpx:hr></gpxtpx:TrackPointExtension></extensions>
      </trkpt>
      <trkpt lat="56.0468755" lon="12.69504817">
        <ele>0</ele>
        <time>1970-01-01T01:00:00Z</time>
        <extensions><gpxtpx:TrackPointExtension><gpxtpx:hr>137</gpxtpx:hr></gpxtpx:TrackPointExtension></extensions>
      </trkpt>
      <trkpt lat="56.04688933" lon="12.69502383">
        <ele>0</ele>
        <time>1970-01-01T01:00:00Z</time>
        <extensions><gpxtpx:TrackPointExtension><gpxtpx:hr>137</gpxtpx:hr></gpxtpx:TrackPointExtension></extensions>
      </trkpt>
      <trkpt lat="56.0469165" lon="12.69499617">
        <ele>0</ele>
        <time>1970-01-01T01:00:00Z</time>
        <extensions><gpxtpx:TrackPointExtension><gpxtpx:hr>137</gpxtpx:hr></gpxtpx:TrackPointExtension></extensions>
      </trkpt>
      <trkpt lat="56.0469165" lon="12.69499617">
        <ele>0</ele>
        <time>1970-01-01T01:00:00Z</time>
        <extensions><gpxtpx:TrackPointExtension><gpxtpx:hr>137</gpxtpx:hr></gpxtpx:TrackPointExtension></extensions>
      </trkpt>
      <trkpt lat="56.0469455" lon="12.694967">
        <ele>0</ele>
        <time>1970-01-01T01:00:00Z</time>
        <extensions><gpxtpx:TrackPointExtension><gpxtpx:hr>137</gpxtpx:hr></gpxtpx:TrackPointExtension></extensions>
      </trkpt>
      <trkpt lat="56.0469655" lon="12.69493467">
        <ele>0</ele>
        <time>1970-01-01T01:00:00Z</time>
        <extensions><gpxtpx:TrackPointExtension><gpxtpx:hr>137</gpxtpx:hr></gpxtpx:TrackPointExtension></extensions>
      </trkpt>
      <trkpt lat="56.04698133" lon="12.69490983">
        <ele>0</ele>
        <time>1970-01-01T01:00:00Z</time>
        <extensions><gpxtpx:TrackPointExtension><gpxtpx:hr>137</gpxtpx:hr></gpxtpx:TrackPointExtension></extensions>
      </trkpt>
      <trkpt lat="56.04699633" lon="12.69488717">
        <ele>0</ele>
        <time>1970-01-01T01:00:00Z</time>
        <extensions><gpxtpx:TrackPointExtension><gpxtpx:hr>137</gpxtpx:hr></gpxtpx:TrackPointExtension></extensions>
      </trkpt>
      <trkpt lat="56.04699633" lon="12.69488717">
        <ele>0</ele>
        <time>1970-01-01T01:00:00Z</time>
        <extensions><gpxtpx:TrackPointExtension><gpxtpx:hr>137</gpxtpx:hr></gpxtpx:TrackPointExtension></extensions>
      </trkpt>
      <trkpt lat="56.047021" lon="12.694848">
        <ele>0</ele>
        <time>1970-01-01T01:00:00Z</time>
        <extensions><gpxtpx:TrackPointExtension><gpxtpx:hr>137</gpxtpx:hr></gpxtpx:TrackPointExtension></extensions>
      </trkpt>
      <trkpt lat="56.04703817" lon="12.694821">
        <ele>0</ele>
        <time>1970-01-01T01:00:00Z</time>
        <extensions><gpxtpx:TrackPointExtension><gpxtpx:hr>137</gpxtpx:hr></gpxtpx:TrackPointExtension></extensions>
      </trkpt>
      <trkpt lat="56.04703817" lon="12.694821">
        <ele>0</ele>
        <time>1970-01-01T01:00:00Z</time>
        <extensions><gpxtpx:TrackPointExtension><gpxtpx:hr>137</gpxtpx:hr></gpxtpx:TrackPointExtension></extensions>
      </trkpt>
      <trkpt lat="56.04706367" lon="12.69478483">
        <ele>0</ele>
        <time>1970-01-01T01:00:00Z</time>
        <extensions><gpxtpx:TrackPointExtension><gpxtpx:hr>137</gpxtpx:hr></gpxtpx:TrackPointExtension></extensions>
      </trkpt>
      <trkpt lat="56.04706367" lon="12.69478483">
        <ele>0</ele>
        <time>1970-01-01T01:00:00Z</time>
        <extensions><gpxtpx:TrackPointExtension><gpxtpx:hr>136</gpxtpx:hr></gpxtpx:TrackPointExtension></extensions>
      </trkpt>
      <trkpt lat="56.047091" lon="12.6947435">
        <ele>0</ele>
        <time>1970-01-01T01:00:00Z</time>
        <extensions><gpxtpx:TrackPointExtension><gpxtpx:hr>136</gpxtpx:hr></gpxtpx:TrackPointExtension></extensions>
      </trkpt>
      <trkpt lat="56.047091" lon="12.6947435">
        <ele>0</ele>
        <time>1970-01-01T01:00:00Z</time>
        <extensions><gpxtpx:TrackPointExtension><gpxtpx:hr>136</gpxtpx:hr></gpxtpx:TrackPointExtension></extensions>
      </trkpt>
      <trkpt lat="56.047114" lon="12.6947185">
        <ele>0</ele>
        <time>1970-01-01T01:00:00Z</time>
        <extensions><gpxtpx:TrackPointExtension><gpxtpx:hr>136</gpxtpx:hr></gpxtpx:TrackPointExtension></extensions>
      </trkpt>
      <trkpt lat="56.047114" lon="12.6947185">
        <ele>0</ele>
        <time>1970-01-01T01:00:00Z</time>
        <extensions><gpxtpx:TrackPointExtension><gpxtpx:hr>136</gpxtpx:hr></gpxtpx:TrackPointExtension></extensions>
      </trkpt>
      <trkpt lat="56.0471405" lon="12.6946865">
        <ele>0</ele>
        <time>1970-01-01T01:00:00Z</time>
        <extensions><gpxtpx:TrackPointExtension><gpxtpx:hr>136</gpxtpx:hr></gpxtpx:TrackPointExtension></extensions>
      </trkpt>
      <trkpt lat="56.0471405" lon="12.6946865">
        <ele>0</ele>
        <time>1970-01-01T01:00:00Z</time>
        <extensions><gpxtpx:TrackPointExtension><gpxtpx:hr>136</gpxtpx:hr></gpxtpx:TrackPointExtension></extensions>
      </trkpt>
      <trkpt lat="56.047169" lon="12.69466217">
        <ele>0</ele>
        <time>1970-01-01T01:00:00Z</time>
        <extensions><gpxtpx:TrackPointExtension><gpxtpx:hr>136</gpxtpx:hr></gpxtpx:TrackPointExtension></extensions>
      </trkpt>
      <trkpt lat="56.047169" lon="12.69466217">
        <ele>0</ele>
        <time>1970-01-01T01:00:00Z</time>
        <extensions><gpxtpx:TrackPointExtension><gpxtpx:hr>136</gpxtpx:hr></gpxtpx:TrackPointExtension></extensions>
      </trkpt>
      <trkpt lat="56.04719533" lon="12.694635">
        <ele>0</ele>
        <time>1970-01-01T01:00:00Z</time>
        <extensions><gpxtpx:TrackPointExtension><gpxtpx:hr>136</gpxtpx:hr></gpxtpx:TrackPointExtension></extensions>
      </trkpt>
      <trkpt lat="56.04719533" lon="12.694635">
        <ele>0</ele>
        <time>1970-01-01T01:00:00Z</time>
        <extensions><gpxtpx:TrackPointExtension><gpxtpx:hr>136</gpxtpx:hr></gpxtpx:TrackPointExtension></extensions>
      </trkpt>
      <trkpt lat="56.04721917" lon="12.69461467">
        <ele>0</ele>
        <time>1970-01-01T01:00:00Z</time>
        <extensions><gpxtpx:TrackPointExtension><gpxtpx:hr>136</gpxtpx:hr></gpxtpx:TrackPointExtension></extensions>
      </trkpt>
      <trkpt lat="56.04721917" lon="12.69461467">
        <ele>0</ele>
        <time>1970-01-01T01:00:00Z</time>
        <extensions><gpxtpx:TrackPointExtension><gpxtpx:hr>136</gpxtpx:hr></gpxtpx:TrackPointExtension></extensions>
      </trkpt>
      <trkpt lat="56.04721917" lon="12.69461467">
        <ele>0</ele>
        <time>1970-01-01T01:00:00Z</time>
        <extensions><gpxtpx:TrackPointExtension><gpxtpx:hr>136</gpxtpx:hr></gpxtpx:TrackPointExtension></extensions>
      </trkpt>
      <trkpt lat="56.04724533" lon="12.69457517">
        <ele>0</ele>
        <time>1970-01-01T01:00:00Z</time>
        <extensions><gpxtpx:TrackPointExtension><gpxtpx:hr>136</gpxtpx:hr></gpxtpx:TrackPointExtension></extensions>
      </trkpt>
      <trkpt lat="56.04725717" lon="12.6945425">
        <ele>0</ele>
        <time>1970-01-01T01:00:00Z</time>
        <extensions><gpxtpx:TrackPointExtension><gpxtpx:hr>136</gpxtpx:hr></gpxtpx:TrackPointExtension></extensions>
      </trkpt>
      <trkpt lat="56.04725717" lon="12.6945425">
        <ele>0</ele>
        <time>1970-01-01T01:00:00Z</time>
        <extensions><gpxtpx:TrackPointExtension><gpxtpx:hr>136</gpxtpx:hr></gpxtpx:TrackPointExtension></extensions>
      </trkpt>
      <trkpt lat="56.04725717" lon="12.6945425">
        <ele>0</ele>
        <time>1970-01-01T01:00:00Z</time>
        <extensions><gpxtpx:TrackPointExtension><gpxtpx:hr>136</gpxtpx:hr></gpxtpx:TrackPointExtension></extensions>
      </trkpt>
      <trkpt lat="56.04727433" lon="12.69448833">
        <ele>0</ele>
        <time>1970-01-01T01:00:00Z</time>
        <extensions><gpxtpx:TrackPointExtension><gpxtpx:hr>136</gpxtpx:hr></gpxtpx:TrackPointExtension></extensions>
      </trkpt>
      <trkpt lat="56.047289" lon="12.69444783">
        <ele>0</ele>
        <time>1970-01-01T01:00:00Z</time>
        <extensions><gpxtpx:TrackPointExtension><gpxtpx:hr>135</gpxtpx:hr></gpxtpx:TrackPointExtension></extensions>
      </trkpt>
      <trkpt lat="56.047289" lon="12.69444783">
        <ele>0</ele>
        <time>1970-01-01T01:00:00Z</time>
        <extensions><gpxtpx:TrackPointExtension><gpxtpx:hr>135</gpxtpx:hr></gpxtpx:TrackPointExtension></extensions>
      </trkpt>
      <trkpt lat="56.04730283" lon="12.69442433">
        <ele>0</ele>
        <time>1970-01-01T01:00:00Z</time>
        <extensions><gpxtpx:TrackPointExtension><gpxtpx:hr>135</gpxtpx:hr></gpxtpx:TrackPointExtension></extensions>
      </trkpt>
      <trkpt lat="56.04730283" lon="12.69442433">
        <ele>0</ele>
        <time>1970-01-01T01:00:00Z</time>
        <extensions><gpxtpx:TrackPointExtension><gpxtpx:hr>135</gpxtpx:hr></gpxtpx:TrackPointExtension></extensions>
      </trkpt>
      <trkpt lat="56.04730283" lon="12.69442433">
        <ele>0</ele>
        <time>1970-01-01T01:00:00Z</time>
        <extensions><gpxtpx:TrackPointExtension><gpxtpx:hr>135</gpxtpx:hr></gpxtpx:TrackPointExtension></extensions>
      </trkpt>
      <trkpt lat="56.04730283" lon="12.69442433">
        <ele>0</ele>
        <time>1970-01-01T01:00:00Z</time>
        <extensions><gpxtpx:TrackPointExtension><gpxtpx:hr>135</gpxtpx:hr></gpxtpx:TrackPointExtension></extensions>
      </trkpt>
      <trkpt lat="56.0473165" lon="12.69440233">
        <ele>0</ele>
        <time>1970-01-01T01:00:00Z</time>
        <extensions><gpxtpx:TrackPointExtension><gpxtpx:hr>135</gpxtpx:hr></gpxtpx:TrackPointExtension></extensions>
      </trkpt>
      <trkpt lat="56.0473165" lon="12.69440233">
        <ele>0</ele>
        <time>1970-01-01T01:00:00Z</time>
        <extensions><gpxtpx:TrackPointExtension><gpxtpx:hr>135</gpxtpx:hr></gpxtpx:TrackPointExtension></extensions>
      </trkpt>
      <trkpt lat="56.0473165" lon="12.69440233">
        <ele>0</ele>
        <time>1970-01-01T01:00:00Z</time>
        <extensions><gpxtpx:TrackPointExtension><gpxtpx:hr>135</gpxtpx:hr></gpxtpx:TrackPointExtension></extensions>
      </trkpt>
      <trkpt lat="56.04733167" lon="12.69437867">
        <ele>0</ele>
        <time>1970-01-01T01:00:00Z</time>
        <extensions><gpxtpx:TrackPointExtension><gpxtpx:hr>135</gpxtpx:hr></gpxtpx:TrackPointExtension></extensions>
      </trkpt>
      <trkpt lat="56.04733167" lon="12.69437867">
        <ele>0</ele>
        <time>1970-01-01T01:00:00Z</time>
        <extensions><gpxtpx:TrackPointExtension><gpxtpx:hr>135</gpxtpx:hr></gpxtpx:TrackPointExtension></extensions>
      </trkpt>
      <trkpt lat="56.04734967" lon="12.69437033">
        <ele>0</ele>
        <time>1970-01-01T01:00:00Z</time>
        <extensions><gpxtpx:TrackPointExtension><gpxtpx:hr>135</gpxtpx:hr></gpxtpx:TrackPointExtension></extensions>
      </trkpt>
      <trkpt lat="56.04734967" lon="12.69437033">
        <ele>0</ele>
        <time>1970-01-01T01:00:00Z</time>
        <extensions><gpxtpx:TrackPointExtension><gpxtpx:hr>135</gpxtpx:hr></gpxtpx:TrackPointExtension></extensions>
      </trkpt>
      <trkpt lat="56.047369" lon="12.6943145">
        <ele>0</ele>
        <time>1970-01-01T01:00:00Z</time>
        <extensions><gpxtpx:TrackPointExtension><gpxtpx:hr>135</gpxtpx:hr></gpxtpx:TrackPointExtension></extensions>
      </trkpt>
      <trkpt lat="56.047369" lon="12.6943145">
        <ele>0</ele>
        <time>1970-01-01T01:00:00Z</time>
        <extensions><gpxtpx:TrackPointExtension><gpxtpx:hr>135</gpxtpx:hr></gpxtpx:TrackPointExtension></extensions>
      </trkpt>
      <trkpt lat="56.047369" lon="12.6943145">
        <ele>0</ele>
        <time>1970-01-01T01:00:00Z</time>
        <extensions><gpxtpx:TrackPointExtension><gpxtpx:hr>135</gpxtpx:hr></gpxtpx:TrackPointExtension></extensions>
      </trkpt>
      <trkpt lat="56.04739233" lon="12.69427067">
        <ele>0</ele>
        <time>1970-01-01T01:00:00Z</time>
        <extensions><gpxtpx:TrackPointExtension><gpxtpx:hr>135</gpxtpx:hr></gpxtpx:TrackPointExtension></extensions>
      </trkpt>
      <trkpt lat="56.0474055" lon="12.69421733">
        <ele>0</ele>
        <time>1970-01-01T01:00:00Z</time>
        <extensions><gpxtpx:TrackPointExtension><gpxtpx:hr>135</gpxtpx:hr></gpxtpx:TrackPointExtension></extensions>
      </trkpt>
      <trkpt lat="56.0474055" lon="12.69421733">
        <ele>0</ele>
        <time>1970-01-01T01:00:00Z</time>
        <extensions><gpxtpx:TrackPointExtension><gpxtpx:hr>135</gpxtpx:hr></gpxtpx:TrackPointExtension></extensions>
      </trkpt>
      <trkpt lat="56.04742817" lon="12.6941665">
        <ele>0</ele>
        <time>1970-01-01T01:00:00Z</time>
        <extensions><gpxtpx:TrackPointExtension><gpxtpx:hr>135</gpxtpx:hr></gpxtpx:TrackPointExtension></extensions>
      </trkpt>
      <trkpt lat="56.047441" lon="12.69414333">
        <ele>0</ele>
        <time>1970-01-01T01:00:00Z</time>
        <extensions><gpxtpx:TrackPointExtension><gpxtpx:hr>135</gpxtpx:hr></gpxtpx:TrackPointExtension></extensions>
      </trkpt>
      <trkpt lat="56.047441" lon="12.69414333">
        <ele>0</ele>
        <time>1970-01-01T01:00:00Z</time>
        <extensions><gpxtpx:TrackPointExtension><gpxtpx:hr>135</gpxtpx:hr></gpxtpx:TrackPointExtension></extensions>
      </trkpt>
      <trkpt lat="56.04746283" lon="12.69409733">
        <ele>0</ele>
        <time>1970-01-01T01:00:00Z</time>
        <extensions><gpxtpx:TrackPointExtension><gpxtpx:hr>135</gpxtpx:hr></gpxtpx:TrackPointExtension></extensions>
      </trkpt>
      <trkpt lat="56.04746283" lon="12.69409733">
        <ele>0</ele>
        <time>1970-01-01T01:00:00Z</time>
        <extensions><gpxtpx:TrackPointExtension><gpxtpx:hr>135</gpxtpx:hr></gpxtpx:TrackPointExtension></extensions>
      </trkpt>
      <trkpt lat="56.047476" lon="12.694056">
        <ele>0</ele>
        <time>1970-01-01T01:00:00Z</time>
        <extensions><gpxtpx:TrackPointExtension><gpxtpx:hr>134</gpxtpx:hr></gpxtpx:TrackPointExtension></extensions>
      </trkpt>
      <trkpt lat="56.047476" lon="12.694056">
        <ele>0</ele>
        <time>1970-01-01T01:00:00Z</time>
        <extensions><gpxtpx:TrackPointExtension><gpxtpx:hr>134</gpxtpx:hr></gpxtpx:TrackPointExtension></extensions>
      </trkpt>
      <trkpt lat="56.0474995" lon="12.69403167">
        <ele>0</ele>
        <time>1970-01-01T01:00:00Z</time>
        <extensions><gpxtpx:TrackPointExtension><gpxtpx:hr>134</gpxtpx:hr></gpxtpx:TrackPointExtension></extensions>
      </trkpt>
      <trkpt lat="56.0474995" lon="12.69403167">
        <ele>0</ele>
        <time>1970-01-01T01:00:00Z</time>
        <extensions><gpxtpx:TrackPointExtension><gpxtpx:hr>134</gpxtpx:hr></gpxtpx:TrackPointExtension></extensions>
      </trkpt>
      <trkpt lat="56.04752517" lon="12.69398467">
        <ele>0</ele>
        <time>1970-01-01T01:00:00Z</time>
        <extensions><gpxtpx:TrackPointExtension><gpxtpx:hr>134</gpxtpx:hr></gpxtpx:TrackPointExtension></extensions>
      </trkpt>
      <trkpt lat="56.04752517" lon="12.69398467">
        <ele>0</ele>
        <time>1970-01-01T01:00:00Z</time>
        <extensions><gpxtpx:TrackPointExtension><gpxtpx:hr>134</gpxtpx:hr></gpxtpx:TrackPointExtension></extensions>
      </trkpt>
      <trkpt lat="56.04754183" lon="12.69395583">
        <ele>0</ele>
        <time>1970-01-01T01:00:00Z</time>
        <extensions><gpxtpx:TrackPointExtension><gpxtpx:hr>134</gpxtpx:hr></gpxtpx:TrackPointExtension></extensions>
      </trkpt>
      <trkpt lat="56.04754183" lon="12.69395583">
        <ele>0</ele>
        <time>1970-01-01T01:00:00Z</time>
        <extensions><gpxtpx:TrackPointExtension><gpxtpx:hr>134</gpxtpx:hr></gpxtpx:TrackPointExtension></extensions>
      </trkpt>
      <trkpt lat="56.047557" lon="12.6939105">
        <ele>0</ele>
        <time>1970-01-01T01:00:00Z</time>
        <extensions><gpxtpx:TrackPointExtension><gpxtpx:hr>134</gpxtpx:hr></gpxtpx:TrackPointExtension></extensions>
      </trkpt>
      <trkpt lat="56.047557" lon="12.6939105">
        <ele>0</ele>
        <time>1970-01-01T01:00:00Z</time>
        <extensions><gpxtpx:TrackPointExtension><gpxtpx:hr>134</gpxtpx:hr></gpxtpx:TrackPointExtension></extensions>
      </trkpt>
      <trkpt lat="56.04756767" lon="12.6938755">
        <ele>0</ele>
        <time>1970-01-01T01:00:00Z</time>
        <extensions><gpxtpx:TrackPointExtension><gpxtpx:hr>133</gpxtpx:hr></gpxtpx:TrackPointExtension></extensions>
      </trkpt>
      <trkpt lat="56.04756767" lon="12.6938755">
        <ele>0</ele>
        <time>1970-01-01T01:00:00Z</time>
        <extensions><gpxtpx:TrackPointExtension><gpxtpx:hr>134</gpxtpx:hr></gpxtpx:TrackPointExtension></extensions>
      </trkpt>
      <trkpt lat="56.04756767" lon="12.6938755">
        <ele>0</ele>
        <time>1970-01-01T01:00:00Z</time>
        <extensions><gpxtpx:TrackPointExtension><gpxtpx:hr>134</gpxtpx:hr></gpxtpx:TrackPointExtension></extensions>
      </trkpt>
      <trkpt lat="56.0475855" lon="12.693848">
        <ele>0</ele>
        <time>1970-01-01T01:00:00Z</time>
        <extensions><gpxtpx:TrackPointExtension><gpxtpx:hr>134</gpxtpx:hr></gpxtpx:TrackPointExtension></extensions>
      </trkpt>
      <trkpt lat="56.0475855" lon="12.693848">
        <ele>0</ele>
        <time>1970-01-01T01:00:00Z</time>
        <extensions><gpxtpx:TrackPointExtension><gpxtpx:hr>134</gpxtpx:hr></gpxtpx:TrackPointExtension></extensions>
      </trkpt>
      <trkpt lat="56.04760567" lon="12.693817">
        <ele>0</ele>
        <time>1970-01-01T01:00:00Z</time>
        <extensions><gpxtpx:TrackPointExtension><gpxtpx:hr>134</gpxtpx:hr></gpxtpx:TrackPointExtension></extensions>
      </trkpt>
      <trkpt lat="56.04760567" lon="12.693817">
        <ele>0</ele>
        <time>1970-01-01T01:00:00Z</time>
        <extensions><gpxtpx:TrackPointExtension><gpxtpx:hr>134</gpxtpx:hr></gpxtpx:TrackPointExtension></extensions>
      </trkpt>
      <trkpt lat="56.0476305" lon="12.6938035">
        <ele>0</ele>
        <time>1970-01-01T01:00:00Z</time>
        <extensions><gpxtpx:TrackPointExtension><gpxtpx:hr>134</gpxtpx:hr></gpxtpx:TrackPointExtension></extensions>
      </trkpt>
      <trkpt lat="56.04764683" lon="12.69377933">
        <ele>0</ele>
        <time>1970-01-01T01:00:00Z</time>
        <extensions><gpxtpx:TrackPointExtension><gpxtpx:hr>134</gpxtpx:hr></gpxtpx:TrackPointExtension></extensions>
      </trkpt>
      <trkpt lat="56.047662" lon="12.69375433">
        <ele>0</ele>
        <time>1970-01-01T01:00:00Z</time>
        <extensions><gpxtpx:TrackPointExtension><gpxtpx:hr>133</gpxtpx:hr></gpxtpx:TrackPointExtension></extensions>
      </trkpt>
      <trkpt lat="56.047662" lon="12.69375433">
        <ele>0</ele>
        <time>1970-01-01T01:00:00Z</time>
        <extensions><gpxtpx:TrackPointExtension><gpxtpx:hr>134</gpxtpx:hr></gpxtpx:TrackPointExtension></extensions>
      </trkpt>
      <trkpt lat="56.0476815" lon="12.69372667">
        <ele>0</ele>
        <time>1970-01-01T01:00:00Z</time>
        <extensions><gpxtpx:TrackPointExtension><gpxtpx:hr>134</gpxtpx:hr></gpxtpx:TrackPointExtension></extensions>
      </trkpt>
      <trkpt lat="56.0476965" lon="12.69370733">
        <ele>0</ele>
        <time>1970-01-01T01:00:00Z</time>
        <extensions><gpxtpx:TrackPointExtension><gpxtpx:hr>134</gpxtpx:hr></gpxtpx:TrackPointExtension></extensions>
      </trkpt>
      <trkpt lat="56.04771467" lon="12.69369083">
        <ele>0</ele>
        <time>1970-01-01T01:00:00Z</time>
        <extensions><gpxtpx:TrackPointExtension><gpxtpx:hr>134</gpxtpx:hr></gpxtpx:TrackPointExtension></extensions>
      </trkpt>
      <trkpt lat="56.04771467" lon="12.69369083">
        <ele>0</ele>
        <time>1970-01-01T01:00:00Z</time>
        <extensions><gpxtpx:TrackPointExtension><gpxtpx:hr>134</gpxtpx:hr></gpxtpx:TrackPointExtension></extensions>
      </trkpt>
      <trkpt lat="56.04771467" lon="12.69369083">
        <ele>0</ele>
        <time>1970-01-01T01:00:00Z</time>
        <extensions><gpxtpx:TrackPointExtension><gpxtpx:hr>133</gpxtpx:hr></gpxtpx:TrackPointExtension></extensions>
      </trkpt>
      <trkpt lat="56.04773567" lon="12.69366433">
        <ele>0</ele>
        <time>1970-01-01T01:00:00Z</time>
        <extensions><gpxtpx:TrackPointExtension><gpxtpx:hr>134</gpxtpx:hr></gpxtpx:TrackPointExtension></extensions>
      </trkpt>
      <trkpt lat="56.04773567" lon="12.69366433">
        <ele>0</ele>
        <time>1970-01-01T01:00:00Z</time>
        <extensions><gpxtpx:TrackPointExtension><gpxtpx:hr>133</gpxtpx:hr></gpxtpx:TrackPointExtension></extensions>
      </trkpt>
      <trkpt lat="56.0477625" lon="12.6936335">
        <ele>0</ele>
        <time>1970-01-01T01:00:00Z</time>
        <extensions><gpxtpx:TrackPointExtension><gpxtpx:hr>133</gpxtpx:hr></gpxtpx:TrackPointExtension></extensions>
      </trkpt>
      <trkpt lat="56.0477625" lon="12.6936335">
        <ele>0</ele>
        <time>1970-01-01T01:00:00Z</time>
        <extensions><gpxtpx:TrackPointExtension><gpxtpx:hr>133</gpxtpx:hr></gpxtpx:TrackPointExtension></extensions>
      </trkpt>
      <trkpt lat="56.0477625" lon="12.6936335">
        <ele>0</ele>
        <time>1970-01-01T01:00:00Z</time>
        <extensions><gpxtpx:TrackPointExtension><gpxtpx:hr>133</gpxtpx:hr></gpxtpx:TrackPointExtension></extensions>
      </trkpt>
      <trkpt lat="56.04778" lon="12.69361467">
        <ele>0</ele>
        <time>1970-01-01T01:00:00Z</time>
        <extensions><gpxtpx:TrackPointExtension><gpxtpx:hr>133</gpxtpx:hr></gpxtpx:TrackPointExtension></extensions>
      </trkpt>
      <trkpt lat="56.04778" lon="12.69361467">
        <ele>0</ele>
        <time>1970-01-01T01:00:00Z</time>
        <extensions><gpxtpx:TrackPointExtension><gpxtpx:hr>133</gpxtpx:hr></gpxtpx:TrackPointExtension></extensions>
      </trkpt>
      <trkpt lat="56.04778" lon="12.69361467">
        <ele>0</ele>
        <time>1970-01-01T01:00:00Z</time>
        <extensions><gpxtpx:TrackPointExtension><gpxtpx:hr>133</gpxtpx:hr></gpxtpx:TrackPointExtension></extensions>
      </trkpt>
      <trkpt lat="56.047804" lon="12.693573">
        <ele>0</ele>
        <time>1970-01-01T01:00:00Z</time>
        <extensions><gpxtpx:TrackPointExtension><gpxtpx:hr>133</gpxtpx:hr></gpxtpx:TrackPointExtension></extensions>
      </trkpt>
      <trkpt lat="56.047804" lon="12.693573">
        <ele>0</ele>
        <time>1970-01-01T01:00:00Z</time>
        <extensions><gpxtpx:TrackPointExtension><gpxtpx:hr>133</gpxtpx:hr></gpxtpx:TrackPointExtension></extensions>
      </trkpt>
      <trkpt lat="56.04782167" lon="12.69356733">
        <ele>0</ele>
        <time>1970-01-01T01:00:00Z</time>
        <extensions><gpxtpx:TrackPointExtension><gpxtpx:hr>133</gpxtpx:hr></gpxtpx:TrackPointExtension></extensions>
      </trkpt>
      <trkpt lat="56.04782167" lon="12.69356733">
        <ele>0</ele>
        <time>1970-01-01T01:00:00Z</time>
        <extensions><gpxtpx:TrackPointExtension><gpxtpx:hr>133</gpxtpx:hr></gpxtpx:TrackPointExtension></extensions>
      </trkpt>
      <trkpt lat="56.04782167" lon="12.69356733">
        <ele>0</ele>
        <time>1970-01-01T01:00:00Z</time>
        <extensions><gpxtpx:TrackPointExtension><gpxtpx:hr>132</gpxtpx:hr></gpxtpx:TrackPointExtension></extensions>
      </trkpt>
      <trkpt lat="56.04782167" lon="12.69356733">
        <ele>0</ele>
        <time>1970-01-01T01:00:00Z</time>
        <extensions><gpxtpx:TrackPointExtension><gpxtpx:hr>132</gpxtpx:hr></gpxtpx:TrackPointExtension></extensions>
      </trkpt>
      <trkpt lat="56.04782167" lon="12.69356733">
        <ele>0</ele>
        <time>1970-01-01T01:00:00Z</time>
        <extensions><gpxtpx:TrackPointExtension><gpxtpx:hr>132</gpxtpx:hr></gpxtpx:TrackPointExtension></extensions>
      </trkpt>
      <trkpt lat="56.04784433" lon="12.6935685">
        <ele>0</ele>
        <time>1970-01-01T01:00:00Z</time>
        <extensions><gpxtpx:TrackPointExtension><gpxtpx:hr>132</gpxtpx:hr></gpxtpx:TrackPointExtension></extensions>
      </trkpt>
      <trkpt lat="56.04784433" lon="12.6935685">
        <ele>0</ele>
        <time>1970-01-01T01:00:00Z</time>
        <extensions><gpxtpx:TrackPointExtension><gpxtpx:hr>132</gpxtpx:hr></gpxtpx:TrackPointExtension></extensions>
      </trkpt>
      <trkpt lat="56.04784433" lon="12.6935685">
        <ele>0</ele>
        <time>1970-01-01T01:00:00Z</time>
        <extensions><gpxtpx:TrackPointExtension><gpxtpx:hr>132</gpxtpx:hr></gpxtpx:TrackPointExtension></extensions>
      </trkpt>
      <trkpt lat="56.04784433" lon="12.6935685">
        <ele>0</ele>
        <time>1970-01-01T01:00:00Z</time>
        <extensions><gpxtpx:TrackPointExtension><gpxtpx:hr>132</gpxtpx:hr></gpxtpx:TrackPointExtension></extensions>
      </trkpt>
      <trkpt lat="56.04784433" lon="12.6935685">
        <ele>0</ele>
        <time>1970-01-01T01:00:00Z</time>
        <extensions><gpxtpx:TrackPointExtension><gpxtpx:hr>132</gpxtpx:hr></gpxtpx:TrackPointExtension></extensions>
      </trkpt>
      <trkpt lat="56.04784433" lon="12.6935685">
        <ele>0</ele>
        <time>1970-01-01T01:00:00Z</time>
        <extensions><gpxtpx:TrackPointExtension><gpxtpx:hr>132</gpxtpx:hr></gpxtpx:TrackPointExtension></extensions>
      </trkpt>
      <trkpt lat="56.0478595" lon="12.69354267">
        <ele>0</ele>
        <time>1970-01-01T01:00:00Z</time>
        <extensions><gpxtpx:TrackPointExtension><gpxtpx:hr>132</gpxtpx:hr></gpxtpx:TrackPointExtension></extensions>
      </trkpt>
      <trkpt lat="56.0478595" lon="12.69354267">
        <ele>0</ele>
        <time>1970-01-01T01:00:00Z</time>
        <extensions><gpxtpx:TrackPointExtension><gpxtpx:hr>132</gpxtpx:hr></gpxtpx:TrackPointExtension></extensions>
      </trkpt>
      <trkpt lat="56.0478595" lon="12.69354267">
        <ele>0</ele>
        <time>1970-01-01T01:00:00Z</time>
        <extensions><gpxtpx:TrackPointExtension><gpxtpx:hr>131</gpxtpx:hr></gpxtpx:TrackPointExtension></extensions>
      </trkpt>
      <trkpt lat="56.0478715" lon="12.69351567">
        <ele>0</ele>
        <time>1970-01-01T01:00:00Z</time>
        <extensions><gpxtpx:TrackPointExtension><gpxtpx:hr>131</gpxtpx:hr></gpxtpx:TrackPointExtension></extensions>
      </trkpt>
      <trkpt lat="56.0478715" lon="12.69351567">
        <ele>0</ele>
        <time>1970-01-01T01:00:00Z</time>
        <extensions><gpxtpx:TrackPointExtension><gpxtpx:hr>131</gpxtpx:hr></gpxtpx:TrackPointExtension></extensions>
      </trkpt>
      <trkpt lat="56.04788917" lon="12.69347983">
        <ele>0</ele>
        <time>1970-01-01T01:00:00Z</time>
        <extensions><gpxtpx:TrackPointExtension><gpxtpx:hr>131</gpxtpx:hr></gpxtpx:TrackPointExtension></extensions>
      </trkpt>
      <trkpt lat="56.04788917" lon="12.69347983">
        <ele>0</ele>
        <time>1970-01-01T01:00:00Z</time>
        <extensions><gpxtpx:TrackPointExtension><gpxtpx:hr>131</gpxtpx:hr></gpxtpx:TrackPointExtension></extensions>
      </trkpt>
      <trkpt lat="56.047908" lon="12.693462">
        <ele>0</ele>
        <time>1970-01-01T01:00:00Z</time>
        <extensions><gpxtpx:TrackPointExtension><gpxtpx:hr>131</gpxtpx:hr></gpxtpx:TrackPointExtension></extensions>
      </trkpt>
      <trkpt lat="56.047908" lon="12.693462">
        <ele>0</ele>
        <time>1970-01-01T01:00:00Z</time>
        <extensions><gpxtpx:TrackPointExtension><gpxtpx:hr>131</gpxtpx:hr></gpxtpx:TrackPointExtension></extensions>
      </trkpt>
      <trkpt lat="56.047908" lon="12.693462">
        <ele>0</ele>
        <time>1970-01-01T01:00:00Z</time>
        <extensions><gpxtpx:TrackPointExtension><gpxtpx:hr>131</gpxtpx:hr></gpxtpx:TrackPointExtension></extensions>
      </trkpt>
      <trkpt lat="56.047908" lon="12.693462">
        <ele>0</ele>
        <time>1970-01-01T01:00:00Z</time>
        <extensions><gpxtpx:TrackPointExtension><gpxtpx:hr>131</gpxtpx:hr></gpxtpx:TrackPointExtension></extensions>
      </trkpt>
      <trkpt lat="56.047908" lon="12.693462">
        <ele>0</ele>
        <time>1970-01-01T01:00:00Z</time>
        <extensions><gpxtpx:TrackPointExtension><gpxtpx:hr>131</gpxtpx:hr></gpxtpx:TrackPointExtension></extensions>
      </trkpt>
      <trkpt lat="56.04793367" lon="12.6934335">
        <ele>0</ele>
        <time>1970-01-01T01:00:00Z</time>
        <extensions><gpxtpx:TrackPointExtension><gpxtpx:hr>131</gpxtpx:hr></gpxtpx:TrackPointExtension></extensions>
      </trkpt>
      <trkpt lat="56.04793367" lon="12.6934335">
        <ele>0</ele>
        <time>1970-01-01T01:00:00Z</time>
        <extensions><gpxtpx:TrackPointExtension><gpxtpx:hr>131</gpxtpx:hr></gpxtpx:TrackPointExtension></extensions>
      </trkpt>
      <trkpt lat="56.04794833" lon="12.69339783">
        <ele>0</ele>
        <time>1970-01-01T01:00:00Z</time>
        <extensions><gpxtpx:TrackPointExtension><gpxtpx:hr>130</gpxtpx:hr></gpxtpx:TrackPointExtension></extensions>
      </trkpt>
      <trkpt lat="56.04794833" lon="12.69339783">
        <ele>0</ele>
        <time>1970-01-01T01:00:00Z</time>
        <extensions><gpxtpx:TrackPointExtension><gpxtpx:hr>130</gpxtpx:hr></gpxtpx:TrackPointExtension></extensions>
      </trkpt>
      <trkpt lat="56.0479565" lon="12.69336433">
        <ele>0</ele>
        <time>1970-01-01T01:00:00Z</time>
        <extensions><gpxtpx:TrackPointExtension><gpxtpx:hr>130</gpxtpx:hr></gpxtpx:TrackPointExtension></extensions>
      </trkpt>
      <trkpt lat="56.0479565" lon="12.69336433">
        <ele>0</ele>
        <time>1970-01-01T01:00:00Z</time>
        <extensions><gpxtpx:TrackPointExtension><gpxtpx:hr>130</gpxtpx:hr></gpxtpx:TrackPointExtension></extensions>
      </trkpt>
      <trkpt lat="56.0479635" lon="12.693324">
        <ele>0</ele>
        <time>1970-01-01T01:00:00Z</time>
        <extensions><gpxtpx:TrackPointExtension><gpxtpx:hr>130</gpxtpx:hr></gpxtpx:TrackPointExtension></extensions>
      </trkpt>
      <trkpt lat="56.04797583" lon="12.69329167">
        <ele>0</ele>
        <time>1970-01-01T01:00:00Z</time>
        <extensions><gpxtpx:TrackPointExtension><gpxtpx:hr>130</gpxtpx:hr></gpxtpx:TrackPointExtension></extensions>
      </trkpt>
      <trkpt lat="56.04797583" lon="12.69329167">
        <ele>0</ele>
        <time>1970-01-01T01:00:00Z</time>
        <extensions><gpxtpx:TrackPointExtension><gpxtpx:hr>130</gpxtpx:hr></gpxtpx:TrackPointExtension></extensions>
      </trkpt>
      <trkpt lat="56.04797583" lon="12.69329167">
        <ele>0</ele>
        <time>1970-01-01T01:00:00Z</time>
        <extensions><gpxtpx:TrackPointExtension><gpxtpx:hr>130</gpxtpx:hr></gpxtpx:TrackPointExtension></extensions>
      </trkpt>
      <trkpt lat="56.04798633" lon="12.69326217">
        <ele>0</ele>
        <time>1970-01-01T01:00:00Z</time>
        <extensions><gpxtpx:TrackPointExtension><gpxtpx:hr>130</gpxtpx:hr></gpxtpx:TrackPointExtension></extensions>
      </trkpt>
      <trkpt lat="56.04798633" lon="12.69326217">
        <ele>0</ele>
        <time>1970-01-01T01:00:00Z</time>
        <extensions><gpxtpx:TrackPointExtension><gpxtpx:hr>129</gpxtpx:hr></gpxtpx:TrackPointExtension></extensions>
      </trkpt>
      <trkpt lat="56.04798633" lon="12.69326217">
        <ele>0</ele>
        <time>1970-01-01T01:00:00Z</time>
        <extensions><gpxtpx:TrackPointExtension><gpxtpx:hr>129</gpxtpx:hr></gpxtpx:TrackPointExtension></extensions>
      </trkpt>
      <trkpt lat="56.04798633" lon="12.69326217">
        <ele>0</ele>
        <time>1970-01-01T01:00:00Z</time>
        <extensions><gpxtpx:TrackPointExtension><gpxtpx:hr>129</gpxtpx:hr></gpxtpx:TrackPointExtension></extensions>
      </trkpt>
      <trkpt lat="56.04798633" lon="12.69326217">
        <ele>0</ele>
        <time>1970-01-01T01:00:00Z</time>
        <extensions><gpxtpx:TrackPointExtension><gpxtpx:hr>128</gpxtpx:hr></gpxtpx:TrackPointExtension></extensions>
      </trkpt>
      <trkpt lat="56.04798633" lon="12.69326217">
        <ele>0</ele>
        <time>1970-01-01T01:00:00Z</time>
        <extensions><gpxtpx:TrackPointExtension><gpxtpx:hr>129</gpxtpx:hr></gpxtpx:TrackPointExtension></extensions>
      </trkpt>
      <trkpt lat="56.04798633" lon="12.69326217">
        <ele>0</ele>
        <time>1970-01-01T01:00:00Z</time>
        <extensions><gpxtpx:TrackPointExtension><gpxtpx:hr>129</gpxtpx:hr></gpxtpx:TrackPointExtension></extensions>
      </trkpt>
      <trkpt lat="56.04800133" lon="12.69322433">
        <ele>0</ele>
        <time>1970-01-01T01:00:00Z</time>
        <extensions><gpxtpx:TrackPointExtension><gpxtpx:hr>129</gpxtpx:hr></gpxtpx:TrackPointExtension></extensions>
      </trkpt>
      <trkpt lat="56.04800133" lon="12.69322433">
        <ele>0</ele>
        <time>1970-01-01T01:00:00Z</time>
        <extensions><gpxtpx:TrackPointExtension><gpxtpx:hr>130</gpxtpx:hr></gpxtpx:TrackPointExtension></extensions>
      </trkpt>
      <trkpt lat="56.04800133" lon="12.69322433">
        <ele>0</ele>
        <time>1970-01-01T01:00:00Z</time>
        <extensions><gpxtpx:TrackPointExtension><gpxtpx:hr>130</gpxtpx:hr></gpxtpx:TrackPointExtension></extensions>
      </trkpt>
      <trkpt lat="56.04800133" lon="12.69322433">
        <ele>0</ele>
        <time>1970-01-01T01:00:00Z</time>
        <extensions><gpxtpx:TrackPointExtension><gpxtpx:hr>129</gpxtpx:hr></gpxtpx:TrackPointExtension></extensions>
      </trkpt>
      <trkpt lat="56.04800133" lon="12.69322433">
        <ele>0</ele>
        <time>1970-01-01T01:00:00Z</time>
        <extensions><gpxtpx:TrackPointExtension><gpxtpx:hr>129</gpxtpx:hr></gpxtpx:TrackPointExtension></extensions>
      </trkpt>
      <trkpt lat="56.04800133" lon="12.69322433">
        <ele>0</ele>
        <time>1970-01-01T01:00:00Z</time>
        <extensions><gpxtpx:TrackPointExtension><gpxtpx:hr>129</gpxtpx:hr></gpxtpx:TrackPointExtension></extensions>
      </trkpt>
      <trkpt lat="56.04800133" lon="12.69322433">
        <ele>0</ele>
        <time>1970-01-01T01:00:00Z</time>
        <extensions><gpxtpx:TrackPointExtension><gpxtpx:hr>129</gpxtpx:hr></gpxtpx:TrackPointExtension></extensions>
      </trkpt>
      <trkpt lat="56.04800133" lon="12.69322433">
        <ele>0</ele>
        <time>1970-01-01T01:00:00Z</time>
        <extensions><gpxtpx:TrackPointExtension><gpxtpx:hr>129</gpxtpx:hr></gpxtpx:TrackPointExtension></extensions>
      </trkpt>
      <trkpt lat="56.04800133" lon="12.69322433">
        <ele>0</ele>
        <time>1970-01-01T01:00:00Z</time>
        <extensions><gpxtpx:TrackPointExtension><gpxtpx:hr>129</gpxtpx:hr></gpxtpx:TrackPointExtension></extensions>
      </trkpt>
      <trkpt lat="56.04800133" lon="12.69322433">
        <ele>0</ele>
        <time>1970-01-01T01:00:00Z</time>
        <extensions><gpxtpx:TrackPointExtension><gpxtpx:hr>129</gpxtpx:hr></gpxtpx:TrackPointExtension></extensions>
      </trkpt>
      <trkpt lat="56.04800133" lon="12.69322433">
        <ele>0</ele>
        <time>1970-01-01T01:00:00Z</time>
        <extensions><gpxtpx:TrackPointExtension><gpxtpx:hr>129</gpxtpx:hr></gpxtpx:TrackPointExtension></extensions>
      </trkpt>
      <trkpt lat="56.04800133" lon="12.69322433">
        <ele>0</ele>
        <time>1970-01-01T01:00:00Z</time>
        <extensions><gpxtpx:TrackPointExtension><gpxtpx:hr>129</gpxtpx:hr></gpxtpx:TrackPointExtension></extensions>
      </trkpt>
      <trkpt lat="56.04800133" lon="12.69322433">
        <ele>0</ele>
        <time>1970-01-01T01:00:00Z</time>
        <extensions><gpxtpx:TrackPointExtension><gpxtpx:hr>129</gpxtpx:hr></gpxtpx:TrackPointExtension></extensions>
      </trkpt>
      <trkpt lat="56.04800133" lon="12.69322433">
        <ele>0</ele>
        <time>1970-01-01T01:00:00Z</time>
        <extensions><gpxtpx:TrackPointExtension><gpxtpx:hr>129</gpxtpx:hr></gpxtpx:TrackPointExtension></extensions>
      </trkpt>
      <trkpt lat="56.04800133" lon="12.69322433">
        <ele>0</ele>
        <time>1970-01-01T01:00:00Z</time>
        <extensions><gpxtpx:TrackPointExtension><gpxtpx:hr>129</gpxtpx:hr></gpxtpx:TrackPointExtension></extensions>
      </trkpt>
      <trkpt lat="56.04800133" lon="12.69322433">
        <ele>0</ele>
        <time>1970-01-01T01:00:00Z</time>
        <extensions><gpxtpx:TrackPointExtension><gpxtpx:hr>129</gpxtpx:hr></gpxtpx:TrackPointExtension></extensions>
      </trkpt>
      <trkpt lat="56.04800133" lon="12.69322433">
        <ele>0</ele>
        <time>1970-01-01T01:00:00Z</time>
        <extensions><gpxtpx:TrackPointExtension><gpxtpx:hr>130</gpxtpx:hr></gpxtpx:TrackPointExtension></extensions>
      </trkpt>
      <trkpt lat="56.04800133" lon="12.69322433">
        <ele>0</ele>
        <time>1970-01-01T01:00:00Z</time>
        <extensions><gpxtpx:TrackPointExtension><gpxtpx:hr>130</gpxtpx:hr></gpxtpx:TrackPointExtension></extensions>
      </trkpt>
      <trkpt lat="56.04800133" lon="12.69322433">
        <ele>0</ele>
        <time>1970-01-01T01:00:00Z</time>
        <extensions><gpxtpx:TrackPointExtension><gpxtpx:hr>130</gpxtpx:hr></gpxtpx:TrackPointExtension></extensions>
      </trkpt>
      <trkpt lat="56.04800133" lon="12.69322433">
        <ele>0</ele>
        <time>1970-01-01T01:00:00Z</time>
        <extensions><gpxtpx:TrackPointExtension><gpxtpx:hr>130</gpxtpx:hr></gpxtpx:TrackPointExtension></extensions>
      </trkpt>
      <trkpt lat="56.04800133" lon="12.69322433">
        <ele>0</ele>
        <time>1970-01-01T01:00:00Z</time>
        <extensions><gpxtpx:TrackPointExtension><gpxtpx:hr>130</gpxtpx:hr></gpxtpx:TrackPointExtension></extensions>
      </trkpt>
      <trkpt lat="56.04800133" lon="12.69322433">
        <ele>0</ele>
        <time>1970-01-01T01:00:00Z</time>
        <extensions><gpxtpx:TrackPointExtension><gpxtpx:hr>130</gpxtpx:hr></gpxtpx:TrackPointExtension></extensions>
      </trkpt>
      <trkpt lat="56.04800133" lon="12.69322433">
        <ele>0</ele>
        <time>1970-01-01T01:00:00Z</time>
        <extensions><gpxtpx:TrackPointExtension><gpxtpx:hr>130</gpxtpx:hr></gpxtpx:TrackPointExtension></extensions>
      </trkpt>
      <trkpt lat="56.04800133" lon="12.69322433">
        <ele>0</ele>
        <time>1970-01-01T01:00:00Z</time>
        <extensions><gpxtpx:TrackPointExtension><gpxtpx:hr>129</gpxtpx:hr></gpxtpx:TrackPointExtension></extensions>
      </trkpt>
      <trkpt lat="56.04800133" lon="12.69322433">
        <ele>0</ele>
        <time>1970-01-01T01:00:00Z</time>
        <extensions><gpxtpx:TrackPointExtension><gpxtpx:hr>129</gpxtpx:hr></gpxtpx:TrackPointExtension></extensions>
      </trkpt>
      <trkpt lat="56.04800133" lon="12.69322433">
        <ele>0</ele>
        <time>1970-01-01T01:00:00Z</time>
        <extensions><gpxtpx:TrackPointExtension><gpxtpx:hr>129</gpxtpx:hr></gpxtpx:TrackPointExtension></extensions>
      </trkpt>
      <trkpt lat="56.04800133" lon="12.69322433">
        <ele>0</ele>
        <time>1970-01-01T01:00:00Z</time>
        <extensions><gpxtpx:TrackPointExtension><gpxtpx:hr>129</gpxtpx:hr></gpxtpx:TrackPointExtension></extensions>
      </trkpt>
      <trkpt lat="56.04800133" lon="12.69322433">
        <ele>0</ele>
        <time>1970-01-01T01:00:00Z</time>
        <extensions><gpxtpx:TrackPointExtension><gpxtpx:hr>129</gpxtpx:hr></gpxtpx:TrackPointExtension></extensions>
      </trkpt>
      <trkpt lat="56.04800133" lon="12.69322433">
        <ele>0</ele>
        <time>1970-01-01T01:00:00Z</time>
        <extensions><gpxtpx:TrackPointExtension><gpxtpx:hr>129</gpxtpx:hr></gpxtpx:TrackPointExtension></extensions>
      </trkpt>
      <trkpt lat="56.04800133" lon="12.69322433">
        <ele>0</ele>
        <time>1970-01-01T01:00:00Z</time>
        <extensions><gpxtpx:TrackPointExtension><gpxtpx:hr>129</gpxtpx:hr></gpxtpx:TrackPointExtension></extensions>
      </trkpt>
      <trkpt lat="56.04800133" lon="12.69322433">
        <ele>0</ele>
        <time>1970-01-01T01:00:00Z</time>
        <extensions><gpxtpx:TrackPointExtension><gpxtpx:hr>129</gpxtpx:hr></gpxtpx:TrackPointExtension></extensions>
      </trkpt>
      <trkpt lat="56.04800133" lon="12.69322433">
        <ele>0</ele>
        <time>1970-01-01T01:00:00Z</time>
        <extensions><gpxtpx:TrackPointExtension><gpxtpx:hr>129</gpxtpx:hr></gpxtpx:TrackPointExtension></extensions>
      </trkpt>
      <trkpt lat="56.04800133" lon="12.69322433">
        <ele>0</ele>
        <time>1970-01-01T01:00:00Z</time>
        <extensions><gpxtpx:TrackPointExtension><gpxtpx:hr>129</gpxtpx:hr></gpxtpx:TrackPointExtension></extensions>
      </trkpt>
      <trkpt lat="56.04800133" lon="12.69322433">
        <ele>0</ele>
        <time>1970-01-01T01:00:00Z</time>
        <extensions><gpxtpx:TrackPointExtension><gpxtpx:hr>129</gpxtpx:hr></gpxtpx:TrackPointExtension></extensions>
      </trkpt>
      <trkpt lat="56.04800133" lon="12.69322433">
        <ele>0</ele>
        <time>1970-01-01T01:00:00Z</time>
        <extensions><gpxtpx:TrackPointExtension><gpxtpx:hr>129</gpxtpx:hr></gpxtpx:TrackPointExtension></extensions>
      </trkpt>
      <trkpt lat="56.04800133" lon="12.69322433">
        <ele>0</ele>
        <time>1970-01-01T01:00:00Z</time>
        <extensions><gpxtpx:TrackPointExtension><gpxtpx:hr>129</gpxtpx:hr></gpxtpx:TrackPointExtension></extensions>
      </trkpt>
      <trkpt lat="56.04800133" lon="12.69322433">
        <ele>0</ele>
        <time>1970-01-01T01:00:00Z</time>
        <extensions><gpxtpx:TrackPointExtension><gpxtpx:hr>129</gpxtpx:hr></gpxtpx:TrackPointExtension></extensions>
      </trkpt>
      <trkpt lat="56.04800133" lon="12.69322433">
        <ele>0</ele>
        <time>1970-01-01T01:00:00Z</time>
        <extensions><gpxtpx:TrackPointExtension><gpxtpx:hr>129</gpxtpx:hr></gpxtpx:TrackPointExtension></extensions>
      </trkpt>
      <trkpt lat="56.04800133" lon="12.69322433">
        <ele>0</ele>
        <time>1970-01-01T01:00:00Z</time>
        <extensions><gpxtpx:TrackPointExtension><gpxtpx:hr>129</gpxtpx:hr></gpxtpx:TrackPointExtension></extensions>
      </trkpt>
      <trkpt lat="56.04800133" lon="12.69322433">
        <ele>0</ele>
        <time>1970-01-01T01:00:00Z</time>
        <extensions><gpxtpx:TrackPointExtension><gpxtpx:hr>129</gpxtpx:hr></gpxtpx:TrackPointExtension></extensions>
      </trkpt>
      <trkpt lat="56.04800133" lon="12.69322433">
        <ele>0</ele>
        <time>1970-01-01T01:00:00Z</time>
        <extensions><gpxtpx:TrackPointExtension><gpxtpx:hr>129</gpxtpx:hr></gpxtpx:TrackPointExtension></extensions>
      </trkpt>
      <trkpt lat="56.04800133" lon="12.69322433">
        <ele>0</ele>
        <time>1970-01-01T01:00:00Z</time>
        <extensions><gpxtpx:TrackPointExtension><gpxtpx:hr>129</gpxtpx:hr></gpxtpx:TrackPointExtension></extensions>
      </trkpt>
      <trkpt lat="56.04800133" lon="12.69322433">
        <ele>0</ele>
        <time>1970-01-01T01:00:00Z</time>
        <extensions><gpxtpx:TrackPointExtension><gpxtpx:hr>129</gpxtpx:hr></gpxtpx:TrackPointExtension></extensions>
      </trkpt>
      <trkpt lat="56.04800133" lon="12.69322433">
        <ele>0</ele>
        <time>1970-01-01T01:00:00Z</time>
        <extensions><gpxtpx:TrackPointExtension><gpxtpx:hr>130</gpxtpx:hr></gpxtpx:TrackPointExtension></extensions>
      </trkpt>
      <trkpt lat="56.04800133" lon="12.69322433">
        <ele>0</ele>
        <time>1970-01-01T01:00:00Z</time>
        <extensions><gpxtpx:TrackPointExtension><gpxtpx:hr>130</gpxtpx:hr></gpxtpx:TrackPointExtension></extensions>
      </trkpt>
      <trkpt lat="56.04800133" lon="12.69322433">
        <ele>0</ele>
        <time>1970-01-01T01:00:00Z</time>
        <extensions><gpxtpx:TrackPointExtension><gpxtpx:hr>130</gpxtpx:hr></gpxtpx:TrackPointExtension></extensions>
      </trkpt>
      <trkpt lat="56.04800133" lon="12.69322433">
        <ele>0</ele>
        <time>1970-01-01T01:00:00Z</time>
        <extensions><gpxtpx:TrackPointExtension><gpxtpx:hr>131</gpxtpx:hr></gpxtpx:TrackPointExtension></extensions>
      </trkpt>
      <trkpt lat="56.04800133" lon="12.69322433">
        <ele>0</ele>
        <time>1970-01-01T01:00:00Z</time>
        <extensions><gpxtpx:TrackPointExtension><gpxtpx:hr>131</gpxtpx:hr></gpxtpx:TrackPointExtension></extensions>
      </trkpt>
      <trkpt lat="56.04733733" lon="12.69466917">
        <ele>0</ele>
        <time>1970-01-01T01:00:00Z</time>
        <extensions><gpxtpx:TrackPointExtension><gpxtpx:hr>130</gpxtpx:hr></gpxtpx:TrackPointExtension></extensions>
      </trkpt>
      <trkpt lat="56.04733733" lon="12.69466917">
        <ele>0</ele>
        <time>1970-01-01T01:00:00Z</time>
        <extensions><gpxtpx:TrackPointExtension><gpxtpx:hr>130</gpxtpx:hr></gpxtpx:TrackPointExtension></extensions>
      </trkpt>
      <trkpt lat="56.04731717" lon="12.694702">
        <ele>0</ele>
        <time>1970-01-01T01:00:00Z</time>
        <extensions><gpxtpx:TrackPointExtension><gpxtpx:hr>130</gpxtpx:hr></gpxtpx:TrackPointExtension></extensions>
      </trkpt>
      <trkpt lat="56.04731717" lon="12.694702">
        <ele>0</ele>
        <time>1970-01-01T01:00:00Z</time>
        <extensions><gpxtpx:TrackPointExtension><gpxtpx:hr>130</gpxtpx:hr></gpxtpx:TrackPointExtension></extensions>
      </trkpt>
      <trkpt lat="56.04730067" lon="12.694734">
        <ele>0</ele>
        <time>1970-01-01T01:00:00Z</time>
        <extensions><gpxtpx:TrackPointExtension><gpxtpx:hr>130</gpxtpx:hr></gpxtpx:TrackPointExtension></extensions>
      </trkpt>
      <trkpt lat="56.04730067" lon="12.694734">
        <ele>0</ele>
        <time>1970-01-01T01:00:00Z</time>
        <extensions><gpxtpx:TrackPointExtension><gpxtpx:hr>130</gpxtpx:hr></gpxtpx:TrackPointExtension></extensions>
      </trkpt>
      <trkpt lat="56.04727217" lon="12.69476183">
        <ele>0</ele>
        <time>1970-01-01T01:00:00Z</time>
        <extensions><gpxtpx:TrackPointExtension><gpxtpx:hr>130</gpxtpx:hr></gpxtpx:TrackPointExtension></extensions>
      </trkpt>
      <trkpt lat="56.04727217" lon="12.69476183">
        <ele>0</ele>
        <time>1970-01-01T01:00:00Z</time>
        <extensions><gpxtpx:TrackPointExtension><gpxtpx:hr>131</gpxtpx:hr></gpxtpx:TrackPointExtension></extensions>
      </trkpt>
      <trkpt lat="56.04727217" lon="12.69476183">
        <ele>0</ele>
        <time>1970-01-01T01:00:00Z</time>
        <extensions><gpxtpx:TrackPointExtension><gpxtpx:hr>131</gpxtpx:hr></gpxtpx:TrackPointExtension></extensions>
      </trkpt>
      <trkpt lat="56.04722217" lon="12.69478283">
        <ele>0</ele>
        <time>1970-01-01T01:00:00Z</time>
        <extensions><gpxtpx:TrackPointExtension><gpxtpx:hr>131</gpxtpx:hr></gpxtpx:TrackPointExtension></extensions>
      </trkpt>
      <trkpt lat="56.04722217" lon="12.69478283">
        <ele>0</ele>
        <time>1970-01-01T01:00:00Z</time>
        <extensions><gpxtpx:TrackPointExtension><gpxtpx:hr>131</gpxtpx:hr></gpxtpx:TrackPointExtension></extensions>
      </trkpt>
      <trkpt lat="56.0472015" lon="12.69480417">
        <ele>0</ele>
        <time>1970-01-01T01:00:00Z</time>
        <extensions><gpxtpx:TrackPointExtension><gpxtpx:hr>131</gpxtpx:hr></gpxtpx:TrackPointExtension></extensions>
      </trkpt>
      <trkpt lat="56.04715833" lon="12.69484967">
        <ele>0</ele>
        <time>1970-01-01T01:00:00Z</time>
        <extensions><gpxtpx:TrackPointExtension><gpxtpx:hr>131</gpxtpx:hr></gpxtpx:TrackPointExtension></extensions>
      </trkpt>
      <trkpt lat="56.04715833" lon="12.69484967">
        <ele>0</ele>
        <time>1970-01-01T01:00:00Z</time>
        <extensions><gpxtpx:TrackPointExtension><gpxtpx:hr>131</gpxtpx:hr></gpxtpx:TrackPointExtension></extensions>
      </trkpt>
      <trkpt lat="56.04712817" lon="12.69486617">
        <ele>0</ele>
        <time>1970-01-01T01:00:00Z</time>
        <extensions><gpxtpx:TrackPointExtension><gpxtpx:hr>131</gpxtpx:hr></gpxtpx:TrackPointExtension></extensions>
      </trkpt>
      <trkpt lat="56.04712817" lon="12.69486617">
        <ele>0</ele>
        <time>1970-01-01T01:00:00Z</time>
        <extensions><gpxtpx:TrackPointExtension><gpxtpx:hr>131</gpxtpx:hr></gpxtpx:TrackPointExtension></extensions>
      </trkpt>
      <trkpt lat="56.0470975" lon="12.69488583">
        <ele>0</ele>
        <time>1970-01-01T01:00:00Z</time>
        <extensions><gpxtpx:TrackPointExtension><gpxtpx:hr>131</gpxtpx:hr></gpxtpx:TrackPointExtension></extensions>
      </trkpt>
      <trkpt lat="56.0470765" lon="12.6948935">
        <ele>0</ele>
        <time>1970-01-01T01:00:00Z</time>
        <extensions><gpxtpx:TrackPointExtension><gpxtpx:hr>131</gpxtpx:hr></gpxtpx:TrackPointExtension></extensions>
      </trkpt>
      <trkpt lat="56.0470765" lon="12.6948935">
        <ele>0</ele>
        <time>1970-01-01T01:00:00Z</time>
        <extensions><gpxtpx:TrackPointExtension><gpxtpx:hr>131</gpxtpx:hr></gpxtpx:TrackPointExtension></extensions>
      </trkpt>
      <trkpt lat="56.04704717" lon="12.69490617">
        <ele>0</ele>
        <time>1970-01-01T01:00:00Z</time>
        <extensions><gpxtpx:TrackPointExtension><gpxtpx:hr>130</gpxtpx:hr></gpxtpx:TrackPointExtension></extensions>
      </trkpt>
      <trkpt lat="56.04704717" lon="12.69490617">
        <ele>0</ele>
        <time>1970-01-01T01:00:00Z</time>
        <extensions><gpxtpx:TrackPointExtension><gpxtpx:hr>130</gpxtpx:hr></gpxtpx:TrackPointExtension></extensions>
      </trkpt>
      <trkpt lat="56.04701733" lon="12.6949">
        <ele>0</ele>
        <time>1970-01-01T01:00:00Z</time>
        <extensions><gpxtpx:TrackPointExtension><gpxtpx:hr>130</gpxtpx:hr></gpxtpx:TrackPointExtension></extensions>
      </trkpt>
      <trkpt lat="56.04701733" lon="12.6949">
        <ele>0</ele>
        <time>1970-01-01T01:00:00Z</time>
        <extensions><gpxtpx:TrackPointExtension><gpxtpx:hr>130</gpxtpx:hr></gpxtpx:TrackPointExtension></extensions>
      </trkpt>
      <trkpt lat="56.04698167" lon="12.69491583">
        <ele>0</ele>
        <time>1970-01-01T01:00:00Z</time>
        <extensions><gpxtpx:TrackPointExtension><gpxtpx:hr>130</gpxtpx:hr></gpxtpx:TrackPointExtension></extensions>
      </trkpt>
      <trkpt lat="56.04696167" lon="12.69490667">
        <ele>0</ele>
        <time>1970-01-01T01:00:00Z</time>
        <extensions><gpxtpx:TrackPointExtension><gpxtpx:hr>130</gpxtpx:hr></gpxtpx:TrackPointExtension></extensions>
      </trkpt>
      <trkpt lat="56.046943" lon="12.69490233">
        <ele>0</ele>
        <time>1970-01-01T01:00:00Z</time>
        <extensions><gpxtpx:TrackPointExtension><gpxtpx:hr>131</gpxtpx:hr></gpxtpx:TrackPointExtension></extensions>
      </trkpt>
      <trkpt lat="56.046943" lon="12.69490233">
        <ele>0</ele>
        <time>1970-01-01T01:00:00Z</time>
        <extensions><gpxtpx:TrackPointExtension><gpxtpx:hr>130</gpxtpx:hr></gpxtpx:TrackPointExtension></extensions>
      </trkpt>
      <trkpt lat="56.04691667" lon="12.69491317">
        <ele>0</ele>
        <time>1970-01-01T01:00:00Z</time>
        <extensions><gpxtpx:TrackPointExtension><gpxtpx:hr>130</gpxtpx:hr></gpxtpx:TrackPointExtension></extensions>
      </trkpt>
      <trkpt lat="56.04691667" lon="12.69491317">
        <ele>0</ele>
        <time>1970-01-01T01:00:00Z</time>
        <extensions><gpxtpx:TrackPointExtension><gpxtpx:hr>109</gpxtpx:hr></gpxtpx:TrackPointExtension></extensions>
      </trkpt>
      <trkpt lat="56.046898" lon="12.694942">
        <ele>0</ele>
        <time>1970-01-01T01:00:00Z</time>
        <extensions><gpxtpx:TrackPointExtension><gpxtpx:hr>109</gpxtpx:hr></gpxtpx:TrackPointExtension></extensions>
      </trkpt>
      <trkpt lat="56.046898" lon="12.694942">
        <ele>0</ele>
        <time>1970-01-01T01:00:00Z</time>
        <extensions><gpxtpx:TrackPointExtension><gpxtpx:hr>109</gpxtpx:hr></gpxtpx:TrackPointExtension></extensions>
      </trkpt>
      <trkpt lat="56.04688133" lon="12.69498033">
        <ele>0</ele>
        <time>1970-01-01T01:00:00Z</time>
        <extensions><gpxtpx:TrackPointExtension><gpxtpx:hr>110</gpxtpx:hr></gpxtpx:TrackPointExtension></extensions>
      </trkpt>
      <trkpt lat="56.04688133" lon="12.69498033">
        <ele>0</ele>
        <time>1970-01-01T01:00:00Z</time>
        <extensions><gpxtpx:TrackPointExtension><gpxtpx:hr>110</gpxtpx:hr></gpxtpx:TrackPointExtension></extensions>
      </trkpt>
      <trkpt lat="56.04686617" lon="12.694998">
        <ele>0</ele>
        <time>1970-01-01T01:00:00Z</time>
        <extensions><gpxtpx:TrackPointExtension><gpxtpx:hr>110</gpxtpx:hr></gpxtpx:TrackPointExtension></extensions>
      </trkpt>
      <trkpt lat="56.04686617" lon="12.694998">
        <ele>0</ele>
        <time>1970-01-01T01:00:00Z</time>
        <extensions><gpxtpx:TrackPointExtension><gpxtpx:hr>109</gpxtpx:hr></gpxtpx:TrackPointExtension></extensions>
      </trkpt>
      <trkpt lat="56.04685" lon="12.69502167">
        <ele>0</ele>
        <time>1970-01-01T01:00:00Z</time>
        <extensions><gpxtpx:TrackPointExtension><gpxtpx:hr>109</gpxtpx:hr></gpxtpx:TrackPointExtension></extensions>
      </trkpt>
      <trkpt lat="56.04685" lon="12.69502167">
        <ele>0</ele>
        <time>1970-01-01T01:00:00Z</time>
        <extensions><gpxtpx:TrackPointExtension><gpxtpx:hr>110</gpxtpx:hr></gpxtpx:TrackPointExtension></extensions>
      </trkpt>
      <trkpt lat="56.046829" lon="12.69503983">
        <ele>0</ele>
        <time>1970-01-01T01:00:00Z</time>
        <extensions><gpxtpx:TrackPointExtension><gpxtpx:hr>110</gpxtpx:hr></gpxtpx:TrackPointExtension></extensions>
      </trkpt>
      <trkpt lat="56.046829" lon="12.69503983">
        <ele>0</ele>
        <time>1970-01-01T01:00:00Z</time>
        <extensions><gpxtpx:TrackPointExtension><gpxtpx:hr>110</gpxtpx:hr></gpxtpx:TrackPointExtension></extensions>
      </trkpt>
      <trkpt lat="56.04679883" lon="12.69505833">
        <ele>0</ele>
        <time>1970-01-01T01:00:00Z</time>
        <extensions><gpxtpx:TrackPointExtension><gpxtpx:hr>110</gpxtpx:hr></gpxtpx:TrackPointExtension></extensions>
      </trkpt>
      <trkpt lat="56.04679883" lon="12.69505833">
        <ele>0</ele>
        <time>1970-01-01T01:00:00Z</time>
        <extensions><gpxtpx:TrackPointExtension><gpxtpx:hr>111</gpxtpx:hr></gpxtpx:TrackPointExtension></extensions>
      </trkpt>
      <trkpt lat="56.04677417" lon="12.69507917">
        <ele>0</ele>
        <time>1970-01-01T01:00:00Z</time>
        <extensions><gpxtpx:TrackPointExtension><gpxtpx:hr>111</gpxtpx:hr></gpxtpx:TrackPointExtension></extensions>
      </trkpt>
      <trkpt lat="56.04677417" lon="12.69507917">
        <ele>0</ele>
        <time>1970-01-01T01:00:00Z</time>
        <extensions><gpxtpx:TrackPointExtension><gpxtpx:hr>111</gpxtpx:hr></gpxtpx:TrackPointExtension></extensions>
      </trkpt>
      <trkpt lat="56.04674733" lon="12.695093">
        <ele>0</ele>
        <time>1970-01-01T01:00:00Z</time>
        <extensions><gpxtpx:TrackPointExtension><gpxtpx:hr>110</gpxtpx:hr></gpxtpx:TrackPointExtension></extensions>
      </trkpt>
      <trkpt lat="56.04674733" lon="12.695093">
        <ele>0</ele>
        <time>1970-01-01T01:00:00Z</time>
        <extensions><gpxtpx:TrackPointExtension><gpxtpx:hr>110</gpxtpx:hr></gpxtpx:TrackPointExtension></extensions>
      </trkpt>
      <trkpt lat="56.04672417" lon="12.69511817">
        <ele>0</ele>
        <time>1970-01-01T01:00:00Z</time>
        <extensions><gpxtpx:TrackPointExtension><gpxtpx:hr>110</gpxtpx:hr></gpxtpx:TrackPointExtension></extensions>
      </trkpt>
      <trkpt lat="56.04672417" lon="12.69511817">
        <ele>0</ele>
        <time>1970-01-01T01:00:00Z</time>
        <extensions><gpxtpx:TrackPointExtension><gpxtpx:hr>110</gpxtpx:hr></gpxtpx:TrackPointExtension></extensions>
      </trkpt>
      <trkpt lat="56.0466955" lon="12.69514933">
        <ele>0</ele>
        <time>1970-01-01T01:00:00Z</time>
        <extensions><gpxtpx:TrackPointExtension><gpxtpx:hr>110</gpxtpx:hr></gpxtpx:TrackPointExtension></extensions>
      </trkpt>
      <trkpt lat="56.0466955" lon="12.69514933">
        <ele>0</ele>
        <time>1970-01-01T01:00:00Z</time>
        <extensions><gpxtpx:TrackPointExtension><gpxtpx:hr>110</gpxtpx:hr></gpxtpx:TrackPointExtension></extensions>
      </trkpt>
      <trkpt lat="56.04667033" lon="12.695173">
        <ele>0</ele>
        <time>1970-01-01T01:00:00Z</time>
        <extensions><gpxtpx:TrackPointExtension><gpxtpx:hr>110</gpxtpx:hr></gpxtpx:TrackPointExtension></extensions>
      </trkpt>
      <trkpt lat="56.04667033" lon="12.695173">
        <ele>0</ele>
        <time>1970-01-01T01:00:00Z</time>
        <extensions><gpxtpx:TrackPointExtension><gpxtpx:hr>110</gpxtpx:hr></gpxtpx:TrackPointExtension></extensions>
      </trkpt>
      <trkpt lat="56.046649" lon="12.6951905">
        <ele>0</ele>
        <time>1970-01-01T01:00:00Z</time>
        <extensions><gpxtpx:TrackPointExtension><gpxtpx:hr>110</gpxtpx:hr></gpxtpx:TrackPointExtension></extensions>
      </trkpt>
      <trkpt lat="56.046649" lon="12.6951905">
        <ele>0</ele>
        <time>1970-01-01T01:00:00Z</time>
        <extensions><gpxtpx:TrackPointExtension><gpxtpx:hr>110</gpxtpx:hr></gpxtpx:TrackPointExtension></extensions>
      </trkpt>
      <trkpt lat="56.04662517" lon="12.6952">
        <ele>0</ele>
        <time>1970-01-01T01:00:00Z</time>
        <extensions><gpxtpx:TrackPointExtension><gpxtpx:hr>110</gpxtpx:hr></gpxtpx:TrackPointExtension></extensions>
      </trkpt>
      <trkpt lat="56.04662517" lon="12.6952">
        <ele>0</ele>
        <time>1970-01-01T01:00:00Z</time>
        <extensions><gpxtpx:TrackPointExtension><gpxtpx:hr>109</gpxtpx:hr></gpxtpx:TrackPointExtension></extensions>
      </trkpt>
      <trkpt lat="56.04659717" lon="12.695211">
        <ele>0</ele>
        <time>1970-01-01T01:00:00Z</time>
        <extensions><gpxtpx:TrackPointExtension><gpxtpx:hr>110</gpxtpx:hr></gpxtpx:TrackPointExtension></extensions>
      </trkpt>
      <trkpt lat="56.04659717" lon="12.695211">
        <ele>0</ele>
        <time>1970-01-01T01:00:00Z</time>
        <extensions><gpxtpx:TrackPointExtension><gpxtpx:hr>110</gpxtpx:hr></gpxtpx:TrackPointExtension></extensions>
      </trkpt>
      <trkpt lat="56.04659717" lon="12.695211">
        <ele>0</ele>
        <time>1970-01-01T01:00:00Z</time>
        <extensions><gpxtpx:TrackPointExtension><gpxtpx:hr>110</gpxtpx:hr></gpxtpx:TrackPointExtension></extensions>
      </trkpt>
      <trkpt lat="56.04656683" lon="12.69522783">
        <ele>0</ele>
        <time>1970-01-01T01:00:00Z</time>
        <extensions><gpxtpx:TrackPointExtension><gpxtpx:hr>110</gpxtpx:hr></gpxtpx:TrackPointExtension></extensions>
      </trkpt>
      <trkpt lat="56.04651867" lon="12.69522217">
        <ele>0</ele>
        <time>1970-01-01T01:00:00Z</time>
        <extensions><gpxtpx:TrackPointExtension><gpxtpx:hr>111</gpxtpx:hr></gpxtpx:TrackPointExtension></extensions>
      </trkpt>
      <trkpt lat="56.04649683" lon="12.69522683">
        <ele>0</ele>
        <time>1970-01-01T01:00:00Z</time>
        <extensions><gpxtpx:TrackPointExtension><gpxtpx:hr>111</gpxtpx:hr></gpxtpx:TrackPointExtension></extensions>
      </trkpt>
      <trkpt lat="56.04649683" lon="12.69522683">
        <ele>0</ele>
        <time>1970-01-01T01:00:00Z</time>
        <extensions><gpxtpx:TrackPointExtension><gpxtpx:hr>111</gpxtpx:hr></gpxtpx:TrackPointExtension></extensions>
      </trkpt>
      <trkpt lat="56.04647183" lon="12.69525033">
        <ele>0</ele>
        <time>1970-01-01T01:00:00Z</time>
        <extensions><gpxtpx:TrackPointExtension><gpxtpx:hr>111</gpxtpx:hr></gpxtpx:TrackPointExtension></extensions>
      </trkpt>
      <trkpt lat="56.04647183" lon="12.69525033">
        <ele>0</ele>
        <time>1970-01-01T01:00:00Z</time>
        <extensions><gpxtpx:TrackPointExtension><gpxtpx:hr>111</gpxtpx:hr></gpxtpx:TrackPointExtension></extensions>
      </trkpt>
      <trkpt lat="56.046468" lon="12.69528783">
        <ele>0</ele>
        <time>1970-01-01T01:00:00Z</time>
        <extensions><gpxtpx:TrackPointExtension><gpxtpx:hr>112</gpxtpx:hr></gpxtpx:TrackPointExtension></extensions>
      </trkpt>
      <trkpt lat="56.046468" lon="12.69528783">
        <ele>0</ele>
        <time>1970-01-01T01:00:00Z</time>
        <extensions><gpxtpx:TrackPointExtension><gpxtpx:hr>112</gpxtpx:hr></gpxtpx:TrackPointExtension></extensions>
      </trkpt>
      <trkpt lat="56.04648217" lon="12.69534783">
        <ele>0</ele>
        <time>1970-01-01T01:00:00Z</time>
        <extensions><gpxtpx:TrackPointExtension><gpxtpx:hr>112</gpxtpx:hr></gpxtpx:TrackPointExtension></extensions>
      </trkpt>
      <trkpt lat="56.04649267" lon="12.695375">
        <ele>0</ele>
        <time>1970-01-01T01:00:00Z</time>
        <extensions><gpxtpx:TrackPointExtension><gpxtpx:hr>112</gpxtpx:hr></gpxtpx:TrackPointExtension></extensions>
      </trkpt>
      <trkpt lat="56.04649267" lon="12.695375">
        <ele>0</ele>
        <time>1970-01-01T01:00:00Z</time>
        <extensions><gpxtpx:TrackPointExtension><gpxtpx:hr>112</gpxtpx:hr></gpxtpx:TrackPointExtension></extensions>
      </trkpt>
      <trkpt lat="56.04649267" lon="12.695375">
        <ele>0</ele>
        <time>1970-01-01T01:00:00Z</time>
        <extensions><gpxtpx:TrackPointExtension><gpxtpx:hr>113</gpxtpx:hr></gpxtpx:TrackPointExtension></extensions>
      </trkpt>
      <trkpt lat="56.0465015" lon="12.69541583">
        <ele>0</ele>
        <time>1970-01-01T01:00:00Z</time>
        <extensions><gpxtpx:TrackPointExtension><gpxtpx:hr>113</gpxtpx:hr></gpxtpx:TrackPointExtension></extensions>
      </trkpt>
      <trkpt lat="56.04650817" lon="12.695453">
        <ele>0</ele>
        <time>1970-01-01T01:00:00Z</time>
        <extensions><gpxtpx:TrackPointExtension><gpxtpx:hr>113</gpxtpx:hr></gpxtpx:TrackPointExtension></extensions>
      </trkpt>
      <trkpt lat="56.04650817" lon="12.695453">
        <ele>0</ele>
        <time>1970-01-01T01:00:00Z</time>
        <extensions><gpxtpx:TrackPointExtension><gpxtpx:hr>113</gpxtpx:hr></gpxtpx:TrackPointExtension></extensions>
      </trkpt>
      <trkpt lat="56.04650817" lon="12.695453">
        <ele>0</ele>
        <time>1970-01-01T01:00:00Z</time>
        <extensions><gpxtpx:TrackPointExtension><gpxtpx:hr>112</gpxtpx:hr></gpxtpx:TrackPointExtension></extensions>
      </trkpt>
      <trkpt lat="56.046507" lon="12.6954925">
        <ele>0</ele>
        <time>1970-01-01T01:00:00Z</time>
        <extensions><gpxtpx:TrackPointExtension><gpxtpx:hr>112</gpxtpx:hr></gpxtpx:TrackPointExtension></extensions>
      </trkpt>
      <trkpt lat="56.04649133" lon="12.695512">
        <ele>0</ele>
        <time>1970-01-01T01:00:00Z</time>
        <extensions><gpxtpx:TrackPointExtension><gpxtpx:hr>112</gpxtpx:hr></gpxtpx:TrackPointExtension></extensions>
      </trkpt>
      <trkpt lat="56.04649133" lon="12.695512">
        <ele>0</ele>
        <time>1970-01-01T01:00:00Z</time>
        <extensions><gpxtpx:TrackPointExtension><gpxtpx:hr>113</gpxtpx:hr></gpxtpx:TrackPointExtension></extensions>
      </trkpt>
      <trkpt lat="56.04647267" lon="12.69554533">
        <ele>0</ele>
        <time>1970-01-01T01:00:00Z</time>
        <extensions><gpxtpx:TrackPointExtension><gpxtpx:hr>114</gpxtpx:hr></gpxtpx:TrackPointExtension></extensions>
      </trkpt>
      <trkpt lat="56.04647267" lon="12.69554533">
        <ele>0</ele>
        <time>1970-01-01T01:00:00Z</time>
        <extensions><gpxtpx:TrackPointExtension><gpxtpx:hr>116</gpxtpx:hr></gpxtpx:TrackPointExtension></extensions>
      </trkpt>
      <trkpt lat="56.04644717" lon="12.69555833">
        <ele>0</ele>
        <time>1970-01-01T01:00:00Z</time>
        <extensions><gpxtpx:TrackPointExtension><gpxtpx:hr>119</gpxtpx:hr></gpxtpx:TrackPointExtension></extensions>
      </trkpt>
      <trkpt lat="56.04644717" lon="12.69555833">
        <ele>0</ele>
        <time>1970-01-01T01:00:00Z</time>
        <extensions><gpxtpx:TrackPointExtension><gpxtpx:hr>118</gpxtpx:hr></gpxtpx:TrackPointExtension></extensions>
      </trkpt>
      <trkpt lat="56.04642017" lon="12.6955765">
        <ele>0</ele>
        <time>1970-01-01T01:00:00Z</time>
        <extensions><gpxtpx:TrackPointExtension><gpxtpx:hr>118</gpxtpx:hr></gpxtpx:TrackPointExtension></extensions>
      </trkpt>
      <trkpt lat="56.04642017" lon="12.6955765">
        <ele>0</ele>
        <time>1970-01-01T01:00:00Z</time>
        <extensions><gpxtpx:TrackPointExtension><gpxtpx:hr>118</gpxtpx:hr></gpxtpx:TrackPointExtension></extensions>
      </trkpt>
      <trkpt lat="56.0464025" lon="12.69559317">
        <ele>0</ele>
        <time>1970-01-01T01:00:00Z</time>
        <extensions><gpxtpx:TrackPointExtension><gpxtpx:hr>118</gpxtpx:hr></gpxtpx:TrackPointExtension></extensions>
      </trkpt>
      <trkpt lat="56.0464025" lon="12.69559317">
        <ele>0</ele>
        <time>1970-01-01T01:00:00Z</time>
        <extensions><gpxtpx:TrackPointExtension><gpxtpx:hr>117</gpxtpx:hr></gpxtpx:TrackPointExtension></extensions>
      </trkpt>
      <trkpt lat="56.04638267" lon="12.69559983">
        <ele>0</ele>
        <time>1970-01-01T01:00:00Z</time>
        <extensions><gpxtpx:TrackPointExtension><gpxtpx:hr>117</gpxtpx:hr></gpxtpx:TrackPointExtension></extensions>
      </trkpt>
      <trkpt lat="56.04638267" lon="12.69559983">
        <ele>0</ele>
        <time>1970-01-01T01:00:00Z</time>
        <extensions><gpxtpx:TrackPointExtension><gpxtpx:hr>117</gpxtpx:hr></gpxtpx:TrackPointExtension></extensions>
      </trkpt>
      <trkpt lat="56.0463575" lon="12.695625">
        <ele>0</ele>
        <time>1970-01-01T01:00:00Z</time>
        <extensions><gpxtpx:TrackPointExtension><gpxtpx:hr>117</gpxtpx:hr></gpxtpx:TrackPointExtension></extensions>
      </trkpt>
      <trkpt lat="56.0463575" lon="12.695625">
        <ele>0</ele>
        <time>1970-01-01T01:00:00Z</time>
        <extensions><gpxtpx:TrackPointExtension><gpxtpx:hr>116</gpxtpx:hr></gpxtpx:TrackPointExtension></extensions>
      </trkpt>
      <trkpt lat="56.04632917" lon="12.69564917">
        <ele>0</ele>
        <time>1970-01-01T01:00:00Z</time>
        <extensions><gpxtpx:TrackPointExtension><gpxtpx:hr>116</gpxtpx:hr></gpxtpx:TrackPointExtension></extensions>
      </trkpt>
      <trkpt lat="56.04632917" lon="12.69564917">
        <ele>0</ele>
        <time>1970-01-01T01:00:00Z</time>
        <extensions><gpxtpx:TrackPointExtension><gpxtpx:hr>116</gpxtpx:hr></gpxtpx:TrackPointExtension></extensions>
      </trkpt>
      <trkpt lat="56.04630533" lon="12.69566517">
        <ele>0</ele>
        <time>1970-01-01T01:00:00Z</time>
        <extensions><gpxtpx:TrackPointExtension><gpxtpx:hr>116</gpxtpx:hr></gpxtpx:TrackPointExtension></extensions>
      </trkpt>
      <trkpt lat="56.04630533" lon="12.69566517">
        <ele>0</ele>
        <time>1970-01-01T01:00:00Z</time>
        <extensions><gpxtpx:TrackPointExtension><gpxtpx:hr>115</gpxtpx:hr></gpxtpx:TrackPointExtension></extensions>
      </trkpt>
      <trkpt lat="56.04627617" lon="12.69568683">
        <ele>0</ele>
        <time>1970-01-01T01:00:00Z</time>
        <extensions><gpxtpx:TrackPointExtension><gpxtpx:hr>115</gpxtpx:hr></gpxtpx:TrackPointExtension></extensions>
      </trkpt>
      <trkpt lat="56.04625583" lon="12.69569483">
        <ele>0</ele>
        <time>1970-01-01T01:00:00Z</time>
        <extensions><gpxtpx:TrackPointExtension><gpxtpx:hr>115</gpxtpx:hr></gpxtpx:TrackPointExtension></extensions>
      </trkpt>
      <trkpt lat="56.046237" lon="12.69570367">
        <ele>0</ele>
        <time>1970-01-01T01:00:00Z</time>
        <extensions><gpxtpx:TrackPointExtension><gpxtpx:hr>115</gpxtpx:hr></gpxtpx:TrackPointExtension></extensions>
      </trkpt>
      <trkpt lat="56.046237" lon="12.69570367">
        <ele>0</ele>
        <time>1970-01-01T01:00:00Z</time>
        <extensions><gpxtpx:TrackPointExtension><gpxtpx:hr>114</gpxtpx:hr></gpxtpx:TrackPointExtension></extensions>
      </trkpt>
      <trkpt lat="56.0462045" lon="12.695733">
        <ele>0</ele>
        <time>1970-01-01T01:00:00Z</time>
        <extensions><gpxtpx:TrackPointExtension><gpxtpx:hr>114</gpxtpx:hr></gpxtpx:TrackPointExtension></extensions>
      </trkpt>
      <trkpt lat="56.046189" lon="12.69575317">
        <ele>0</ele>
        <time>1970-01-01T01:00:00Z</time>
        <extensions><gpxtpx:TrackPointExtension><gpxtpx:hr>114</gpxtpx:hr></gpxtpx:TrackPointExtension></extensions>
      </trkpt>
      <trkpt lat="56.046189" lon="12.69575317">
        <ele>0</ele>
        <time>1970-01-01T01:00:00Z</time>
        <extensions><gpxtpx:TrackPointExtension><gpxtpx:hr>114</gpxtpx:hr></gpxtpx:TrackPointExtension></extensions>
      </trkpt>
      <trkpt lat="56.04616367" lon="12.695793">
        <ele>0</ele>
        <time>1970-01-01T01:00:00Z</time>
        <extensions><gpxtpx:TrackPointExtension><gpxtpx:hr>114</gpxtpx:hr></gpxtpx:TrackPointExtension></extensions>
      </trkpt>
      <trkpt lat="56.04616367" lon="12.695793">
        <ele>0</ele>
        <time>1970-01-01T01:00:00Z</time>
        <extensions><gpxtpx:TrackPointExtension><gpxtpx:hr>113</gpxtpx:hr></gpxtpx:TrackPointExtension></extensions>
      </trkpt>
      <trkpt lat="56.04614083" lon="12.6958315">
        <ele>0</ele>
        <time>1970-01-01T01:00:00Z</time>
        <extensions><gpxtpx:TrackPointExtension><gpxtpx:hr>113</gpxtpx:hr></gpxtpx:TrackPointExtension></extensions>
      </trkpt>
      <trkpt lat="56.04614083" lon="12.6958315">
        <ele>0</ele>
        <time>1970-01-01T01:00:00Z</time>
        <extensions><gpxtpx:TrackPointExtension><gpxtpx:hr>113</gpxtpx:hr></gpxtpx:TrackPointExtension></extensions>
      </trkpt>
      <trkpt lat="56.046114" lon="12.69585733">
        <ele>0</ele>
        <time>1970-01-01T01:00:00Z</time>
        <extensions><gpxtpx:TrackPointExtension><gpxtpx:hr>112</gpxtpx:hr></gpxtpx:TrackPointExtension></extensions>
      </trkpt>
      <trkpt lat="56.046114" lon="12.69585733">
        <ele>0</ele>
        <time>1970-01-01T01:00:00Z</time>
        <extensions><gpxtpx:TrackPointExtension><gpxtpx:hr>112</gpxtpx:hr></gpxtpx:TrackPointExtension></extensions>
      </trkpt>
      <trkpt lat="56.0460785" lon="12.695881">
        <ele>0</ele>
        <time>1970-01-01T01:00:00Z</time>
        <extensions><gpxtpx:TrackPointExtension><gpxtpx:hr>112</gpxtpx:hr></gpxtpx:TrackPointExtension></extensions>
      </trkpt>
      <trkpt lat="56.0460785" lon="12.695881">
        <ele>0</ele>
        <time>1970-01-01T01:00:00Z</time>
        <extensions><gpxtpx:TrackPointExtension><gpxtpx:hr>111</gpxtpx:hr></gpxtpx:TrackPointExtension></extensions>
      </trkpt>
      <trkpt lat="56.04605033" lon="12.69590017">
        <ele>0</ele>
        <time>1970-01-01T01:00:00Z</time>
        <extensions><gpxtpx:TrackPointExtension><gpxtpx:hr>111</gpxtpx:hr></gpxtpx:TrackPointExtension></extensions>
      </trkpt>
      <trkpt lat="56.04605033" lon="12.69590017">
        <ele>0</ele>
        <time>1970-01-01T01:00:00Z</time>
        <extensions><gpxtpx:TrackPointExtension><gpxtpx:hr>111</gpxtpx:hr></gpxtpx:TrackPointExtension></extensions>
      </trkpt>
      <trkpt lat="56.04603033" lon="12.695911">
        <ele>0</ele>
        <time>1970-01-01T01:00:00Z</time>
        <extensions><gpxtpx:TrackPointExtension><gpxtpx:hr>110</gpxtpx:hr></gpxtpx:TrackPointExtension></extensions>
      </trkpt>
      <trkpt lat="56.04603033" lon="12.695911">
        <ele>0</ele>
        <time>1970-01-01T01:00:00Z</time>
        <extensions><gpxtpx:TrackPointExtension><gpxtpx:hr>110</gpxtpx:hr></gpxtpx:TrackPointExtension></extensions>
      </trkpt>
      <trkpt lat="56.04603033" lon="12.695911">
        <ele>0</ele>
        <time>1970-01-01T01:00:00Z</time>
        <extensions><gpxtpx:TrackPointExtension><gpxtpx:hr>108</gpxtpx:hr></gpxtpx:TrackPointExtension></extensions>
      </trkpt>
      <trkpt lat="56.04603033" lon="12.695911">
        <ele>0</ele>
        <time>1970-01-01T01:00:00Z</time>
        <extensions><gpxtpx:TrackPointExtension><gpxtpx:hr>107</gpxtpx:hr></gpxtpx:TrackPointExtension></extensions>
      </trkpt>
      <trkpt lat="56.04601017" lon="12.6959345">
        <ele>0</ele>
        <time>1970-01-01T01:00:00Z</time>
        <extensions><gpxtpx:TrackPointExtension><gpxtpx:hr>107</gpxtpx:hr></gpxtpx:TrackPointExtension></extensions>
      </trkpt>
      <trkpt lat="56.04601017" lon="12.6959345">
        <ele>0</ele>
        <time>1970-01-01T01:00:00Z</time>
        <extensions><gpxtpx:TrackPointExtension><gpxtpx:hr>107</gpxtpx:hr></gpxtpx:TrackPointExtension></extensions>
      </trkpt>
      <trkpt lat="56.04598617" lon="12.69594017">
        <ele>0</ele>
        <time>1970-01-01T01:00:00Z</time>
        <extensions><gpxtpx:TrackPointExtension><gpxtpx:hr>107</gpxtpx:hr></gpxtpx:TrackPointExtension></extensions>
      </trkpt>
      <trkpt lat="56.04598617" lon="12.69594017">
        <ele>0</ele>
        <time>1970-01-01T01:00:00Z</time>
        <extensions><gpxtpx:TrackPointExtension><gpxtpx:hr>107</gpxtpx:hr></gpxtpx:TrackPointExtension></extensions>
      </trkpt>
      <trkpt lat="56.04598617" lon="12.69594017">
        <ele>0</ele>
        <time>1970-01-01T01:00:00Z</time>
        <extensions><gpxtpx:TrackPointExtension><gpxtpx:hr>107</gpxtpx:hr></gpxtpx:TrackPointExtension></extensions>
      </trkpt>
      <trkpt lat="56.04596667" lon="12.695936">
        <ele>0</ele>
        <time>1970-01-01T01:00:00Z</time>
        <extensions><gpxtpx:TrackPointExtension><gpxtpx:hr>107</gpxtpx:hr></gpxtpx:TrackPointExtension></extensions>
      </trkpt>
      <trkpt lat="56.04596667" lon="12.695936">
        <ele>0</ele>
        <time>1970-01-01T01:00:00Z</time>
        <extensions><gpxtpx:TrackPointExtension><gpxtpx:hr>106</gpxtpx:hr></gpxtpx:TrackPointExtension></extensions>
      </trkpt>
      <trkpt lat="56.04596667" lon="12.695936">
        <ele>0</ele>
        <time>1970-01-01T01:00:00Z</time>
        <extensions><gpxtpx:TrackPointExtension><gpxtpx:hr>107</gpxtpx:hr></gpxtpx:TrackPointExtension></extensions>
      </trkpt>
      <trkpt lat="56.04596667" lon="12.695936">
        <ele>0</ele>
        <time>1970-01-01T01:00:00Z</time>
        <extensions><gpxtpx:TrackPointExtension><gpxtpx:hr>107</gpxtpx:hr></gpxtpx:TrackPointExtension></extensions>
      </trkpt>
      <trkpt lat="56.04596667" lon="12.695936">
        <ele>0</ele>
        <time>1970-01-01T01:00:00Z</time>
        <extensions><gpxtpx:TrackPointExtension><gpxtpx:hr>107</gpxtpx:hr></gpxtpx:TrackPointExtension></extensions>
      </trkpt>
      <trkpt lat="56.045952" lon="12.695906">
        <ele>0</ele>
        <time>1970-01-01T01:00:00Z</time>
        <extensions><gpxtpx:TrackPointExtension><gpxtpx:hr>107</gpxtpx:hr></gpxtpx:TrackPointExtension></extensions>
      </trkpt>
      <trkpt lat="56.0459455" lon="12.69587317">
        <ele>0</ele>
        <time>1970-01-01T01:00:00Z</time>
        <extensions><gpxtpx:TrackPointExtension><gpxtpx:hr>106</gpxtpx:hr></gpxtpx:TrackPointExtension></extensions>
      </trkpt>
      <trkpt lat="56.0459455" lon="12.69587317">
        <ele>0</ele>
        <time>1970-01-01T01:00:00Z</time>
        <extensions><gpxtpx:TrackPointExtension><gpxtpx:hr>106</gpxtpx:hr></gpxtpx:TrackPointExtension></extensions>
      </trkpt>
      <trkpt lat="56.0459455" lon="12.69587317">
        <ele>0</ele>
        <time>1970-01-01T01:00:00Z</time>
        <extensions><gpxtpx:TrackPointExtension><gpxtpx:hr>107</gpxtpx:hr></gpxtpx:TrackPointExtension></extensions>
      </trkpt>
      <trkpt lat="56.045945" lon="12.695837">
        <ele>0</ele>
        <time>1970-01-01T01:00:00Z</time>
        <extensions><gpxtpx:TrackPointExtension><gpxtpx:hr>107</gpxtpx:hr></gpxtpx:TrackPointExtension></extensions>
      </trkpt>
      <trkpt lat="56.045945" lon="12.695837">
        <ele>0</ele>
        <time>1970-01-01T01:00:00Z</time>
        <extensions><gpxtpx:TrackPointExtension><gpxtpx:hr>107</gpxtpx:hr></gpxtpx:TrackPointExtension></extensions>
      </trkpt>
      <trkpt lat="56.04594033" lon="12.69579217">
        <ele>0</ele>
        <time>1970-01-01T01:00:00Z</time>
        <extensions><gpxtpx:TrackPointExtension><gpxtpx:hr>107</gpxtpx:hr></gpxtpx:TrackPointExtension></extensions>
      </trkpt>
      <trkpt lat="56.04594033" lon="12.69579217">
        <ele>0</ele>
        <time>1970-01-01T01:00:00Z</time>
        <extensions><gpxtpx:TrackPointExtension><gpxtpx:hr>107</gpxtpx:hr></gpxtpx:TrackPointExtension></extensions>
      </trkpt>
      <trkpt lat="56.04592283" lon="12.695757">
        <ele>0</ele>
        <time>1970-01-01T01:00:00Z</time>
        <extensions><gpxtpx:TrackPointExtension><gpxtpx:hr>107</gpxtpx:hr></gpxtpx:TrackPointExtension></extensions>
      </trkpt>
      <trkpt lat="56.04592283" lon="12.695757">
        <ele>0</ele>
        <time>1970-01-01T01:00:00Z</time>
        <extensions><gpxtpx:TrackPointExtension><gpxtpx:hr>107</gpxtpx:hr></gpxtpx:TrackPointExtension></extensions>
      </trkpt>
      <trkpt lat="56.04591067" lon="12.69572283">
        <ele>0</ele>
        <time>1970-01-01T01:00:00Z</time>
        <extensions><gpxtpx:TrackPointExtension><gpxtpx:hr>107</gpxtpx:hr></gpxtpx:TrackPointExtension></extensions>
      </trkpt>
      <trkpt lat="56.04591067" lon="12.69572283">
        <ele>0</ele>
        <time>1970-01-01T01:00:00Z</time>
        <extensions><gpxtpx:TrackPointExtension><gpxtpx:hr>107</gpxtpx:hr></gpxtpx:TrackPointExtension></extensions>
      </trkpt>
      <trkpt lat="56.04591067" lon="12.69572283">
        <ele>0</ele>
        <time>1970-01-01T01:00:00Z</time>
        <extensions><gpxtpx:TrackPointExtension><gpxtpx:hr>107</gpxtpx:hr></gpxtpx:TrackPointExtension></extensions>
      </trkpt>
      <trkpt lat="56.04589367" lon="12.695705">
        <ele>0</ele>
        <time>1970-01-01T01:00:00Z</time>
        <extensions><gpxtpx:TrackPointExtension><gpxtpx:hr>107</gpxtpx:hr></gpxtpx:TrackPointExtension></extensions>
      </trkpt>
      <trkpt lat="56.04589367" lon="12.695705">
        <ele>0</ele>
        <time>1970-01-01T01:00:00Z</time>
        <extensions><gpxtpx:TrackPointExtension><gpxtpx:hr>107</gpxtpx:hr></gpxtpx:TrackPointExtension></extensions>
      </trkpt>
      <trkpt lat="56.04589367" lon="12.695705">
        <ele>0</ele>
        <time>1970-01-01T01:00:00Z</time>
        <extensions><gpxtpx:TrackPointExtension><gpxtpx:hr>107</gpxtpx:hr></gpxtpx:TrackPointExtension></extensions>
      </trkpt>
      <trkpt lat="56.04586733" lon="12.6957045">
        <ele>0</ele>
        <time>1970-01-01T01:00:00Z</time>
        <extensions><gpxtpx:TrackPointExtension><gpxtpx:hr>107</gpxtpx:hr></gpxtpx:TrackPointExtension></extensions>
      </trkpt>
      <trkpt lat="56.04586733" lon="12.6957045">
        <ele>0</ele>
        <time>1970-01-01T01:00:00Z</time>
        <extensions><gpxtpx:TrackPointExtension><gpxtpx:hr>107</gpxtpx:hr></gpxtpx:TrackPointExtension></extensions>
      </trkpt>
      <trkpt lat="56.045839" lon="12.69572633">
        <ele>0</ele>
        <time>1970-01-01T01:00:00Z</time>
        <extensions><gpxtpx:TrackPointExtension><gpxtpx:hr>108</gpxtpx:hr></gpxtpx:TrackPointExtension></extensions>
      </trkpt>
      <trkpt lat="56.045839" lon="12.69572633">
        <ele>0</ele>
        <time>1970-01-01T01:00:00Z</time>
        <extensions><gpxtpx:TrackPointExtension><gpxtpx:hr>108</gpxtpx:hr></gpxtpx:TrackPointExtension></extensions>
      </trkpt>
      <trkpt lat="56.04580117" lon="12.695761">
        <ele>0</ele>
        <time>1970-01-01T01:00:00Z</time>
        <extensions><gpxtpx:TrackPointExtension><gpxtpx:hr>108</gpxtpx:hr></gpxtpx:TrackPointExtension></extensions>
      </trkpt>
      <trkpt lat="56.04580117" lon="12.695761">
        <ele>0</ele>
        <time>1970-01-01T01:00:00Z</time>
        <extensions><gpxtpx:TrackPointExtension><gpxtpx:hr>108</gpxtpx:hr></gpxtpx:TrackPointExtension></extensions>
      </trkpt>
      <trkpt lat="56.04576883" lon="12.69579717">
        <ele>0</ele>
        <time>1970-01-01T01:00:00Z</time>
        <extensions><gpxtpx:TrackPointExtension><gpxtpx:hr>108</gpxtpx:hr></gpxtpx:TrackPointExtension></extensions>
      </trkpt>
      <trkpt lat="56.04574983" lon="12.695816">
        <ele>0</ele>
        <time>1970-01-01T01:00:00Z</time>
        <extensions><gpxtpx:TrackPointExtension><gpxtpx:hr>108</gpxtpx:hr></gpxtpx:TrackPointExtension></extensions>
      </trkpt>
      <trkpt lat="56.04572567" lon="12.69583417">
        <ele>0</ele>
        <time>1970-01-01T01:00:00Z</time>
        <extensions><gpxtpx:TrackPointExtension><gpxtpx:hr>109</gpxtpx:hr></gpxtpx:TrackPointExtension></extensions>
      </trkpt>
      <trkpt lat="56.04570767" lon="12.695846">
        <ele>0</ele>
        <time>1970-01-01T01:00:00Z</time>
        <extensions><gpxtpx:TrackPointExtension><gpxtpx:hr>109</gpxtpx:hr></gpxtpx:TrackPointExtension></extensions>
      </trkpt>
      <trkpt lat="56.0456885" lon="12.6958645">
        <ele>0</ele>
        <time>1970-01-01T01:00:00Z</time>
        <extensions><gpxtpx:TrackPointExtension><gpxtpx:hr>110</gpxtpx:hr></gpxtpx:TrackPointExtension></extensions>
      </trkpt>
      <trkpt lat="56.0456885" lon="12.6958645">
        <ele>0</ele>
        <time>1970-01-01T01:00:00Z</time>
        <extensions><gpxtpx:TrackPointExtension><gpxtpx:hr>110</gpxtpx:hr></gpxtpx:TrackPointExtension></extensions>
      </trkpt>
      <trkpt lat="56.04565717" lon="12.69588567">
        <ele>0</ele>
        <time>1970-01-01T01:00:00Z</time>
        <extensions><gpxtpx:TrackPointExtension><gpxtpx:hr>110</gpxtpx:hr></gpxtpx:TrackPointExtension></extensions>
      </trkpt>
      <trkpt lat="56.04565717" lon="12.69588567">
        <ele>0</ele>
        <time>1970-01-01T01:00:00Z</time>
        <extensions><gpxtpx:TrackPointExtension><gpxtpx:hr>110</gpxtpx:hr></gpxtpx:TrackPointExtension></extensions>
      </trkpt>
      <trkpt lat="56.045624" lon="12.69589567">
        <ele>0</ele>
        <time>1970-01-01T01:00:00Z</time>
        <extensions><gpxtpx:TrackPointExtension><gpxtpx:hr>110</gpxtpx:hr></gpxtpx:TrackPointExtension></extensions>
      </trkpt>
      <trkpt lat="56.045624" lon="12.69589567">
        <ele>0</ele>
        <time>1970-01-01T01:00:00Z</time>
        <extensions><gpxtpx:TrackPointExtension><gpxtpx:hr>110</gpxtpx:hr></gpxtpx:TrackPointExtension></extensions>
      </trkpt>
      <trkpt lat="56.0455955" lon="12.695918">
        <ele>0</ele>
        <time>1970-01-01T01:00:00Z</time>
        <extensions><gpxtpx:TrackPointExtension><gpxtpx:hr>110</gpxtpx:hr></gpxtpx:TrackPointExtension></extensions>
      </trkpt>
      <trkpt lat="56.0455955" lon="12.695918">
        <ele>0</ele>
        <time>1970-01-01T01:00:00Z</time>
        <extensions><gpxtpx:TrackPointExtension><gpxtpx:hr>111</gpxtpx:hr></gpxtpx:TrackPointExtension></extensions>
      </trkpt>
      <trkpt lat="56.04557467" lon="12.6959505">
        <ele>0</ele>
        <time>1970-01-01T01:00:00Z</time>
        <extensions><gpxtpx:TrackPointExtension><gpxtpx:hr>112</gpxtpx:hr></gpxtpx:TrackPointExtension></extensions>
      </trkpt>
      <trkpt lat="56.04557467" lon="12.6959505">
        <ele>0</ele>
        <time>1970-01-01T01:00:00Z</time>
        <extensions><gpxtpx:TrackPointExtension><gpxtpx:hr>112</gpxtpx:hr></gpxtpx:TrackPointExtension></extensions>
      </trkpt>
      <trkpt lat="56.04555717" lon="12.69596417">
        <ele>0</ele>
        <time>1970-01-01T01:00:00Z</time>
        <extensions><gpxtpx:TrackPointExtension><gpxtpx:hr>112</gpxtpx:hr></gpxtpx:TrackPointExtension></extensions>
      </trkpt>
      <trkpt lat="56.045535" lon="12.69598233">
        <ele>0</ele>
        <time>1970-01-01T01:00:00Z</time>
        <extensions><gpxtpx:TrackPointExtension><gpxtpx:hr>112</gpxtpx:hr></gpxtpx:TrackPointExtension></extensions>
      </trkpt>
      <trkpt lat="56.045535" lon="12.69598233">
        <ele>0</ele>
        <time>1970-01-01T01:00:00Z</time>
        <extensions><gpxtpx:TrackPointExtension><gpxtpx:hr>112</gpxtpx:hr></gpxtpx:TrackPointExtension></extensions>
      </trkpt>
      <trkpt lat="56.045511" lon="12.696016">
        <ele>0</ele>
        <time>1970-01-01T01:00:00Z</time>
        <extensions><gpxtpx:TrackPointExtension><gpxtpx:hr>113</gpxtpx:hr></gpxtpx:TrackPointExtension></extensions>
      </trkpt>
      <trkpt lat="56.045511" lon="12.696016">
        <ele>0</ele>
        <time>1970-01-01T01:00:00Z</time>
        <extensions><gpxtpx:TrackPointExtension><gpxtpx:hr>113</gpxtpx:hr></gpxtpx:TrackPointExtension></extensions>
      </trkpt>
      <trkpt lat="56.04549817" lon="12.69605433">
        <ele>0</ele>
        <time>1970-01-01T01:00:00Z</time>
        <extensions><gpxtpx:TrackPointExtension><gpxtpx:hr>113</gpxtpx:hr></gpxtpx:TrackPointExtension></extensions>
      </trkpt>
      <trkpt lat="56.04549817" lon="12.69605433">
        <ele>0</ele>
        <time>1970-01-01T01:00:00Z</time>
        <extensions><gpxtpx:TrackPointExtension><gpxtpx:hr>113</gpxtpx:hr></gpxtpx:TrackPointExtension></extensions>
      </trkpt>
      <trkpt lat="56.04549817" lon="12.69605433">
        <ele>0</ele>
        <time>1970-01-01T01:00:00Z</time>
        <extensions><gpxtpx:TrackPointExtension><gpxtpx:hr>113</gpxtpx:hr></gpxtpx:TrackPointExtension></extensions>
      </trkpt>
      <trkpt lat="56.04548183" lon="12.6961005">
        <ele>0</ele>
        <time>1970-01-01T01:00:00Z</time>
        <extensions><gpxtpx:TrackPointExtension><gpxtpx:hr>113</gpxtpx:hr></gpxtpx:TrackPointExtension></extensions>
      </trkpt>
      <trkpt lat="56.04546183" lon="12.69613167">
        <ele>0</ele>
        <time>1970-01-01T01:00:00Z</time>
        <extensions><gpxtpx:TrackPointExtension><gpxtpx:hr>113</gpxtpx:hr></gpxtpx:TrackPointExtension></extensions>
      </trkpt>
      <trkpt lat="56.04546183" lon="12.69613167">
        <ele>0</ele>
        <time>1970-01-01T01:00:00Z</time>
        <extensions><gpxtpx:TrackPointExtension><gpxtpx:hr>113</gpxtpx:hr></gpxtpx:TrackPointExtension></extensions>
      </trkpt>
      <trkpt lat="56.04546183" lon="12.69613167">
        <ele>0</ele>
        <time>1970-01-01T01:00:00Z</time>
        <extensions><gpxtpx:TrackPointExtension><gpxtpx:hr>113</gpxtpx:hr></gpxtpx:TrackPointExtension></extensions>
      </trkpt>
      <trkpt lat="56.04544533" lon="12.69616267">
        <ele>0</ele>
        <time>1970-01-01T01:00:00Z</time>
        <extensions><gpxtpx:TrackPointExtension><gpxtpx:hr>113</gpxtpx:hr></gpxtpx:TrackPointExtension></extensions>
      </trkpt>
      <trkpt lat="56.04544533" lon="12.69616267">
        <ele>0</ele>
        <time>1970-01-01T01:00:00Z</time>
        <extensions><gpxtpx:TrackPointExtension><gpxtpx:hr>113</gpxtpx:hr></gpxtpx:TrackPointExtension></extensions>
      </trkpt>
      <trkpt lat="56.04542517" lon="12.69618467">
        <ele>0</ele>
        <time>1970-01-01T01:00:00Z</time>
        <extensions><gpxtpx:TrackPointExtension><gpxtpx:hr>113</gpxtpx:hr></gpxtpx:TrackPointExtension></extensions>
      </trkpt>
      <trkpt lat="56.04539767" lon="12.69620717">
        <ele>0</ele>
        <time>1970-01-01T01:00:00Z</time>
        <extensions><gpxtpx:TrackPointExtension><gpxtpx:hr>113</gpxtpx:hr></gpxtpx:TrackPointExtension></extensions>
      </trkpt>
      <trkpt lat="56.04539767" lon="12.69620717">
        <ele>0</ele>
        <time>1970-01-01T01:00:00Z</time>
        <extensions><gpxtpx:TrackPointExtension><gpxtpx:hr>113</gpxtpx:hr></gpxtpx:TrackPointExtension></extensions>
      </trkpt>
      <trkpt lat="56.04536983" lon="12.69622767">
        <ele>0</ele>
        <time>1970-01-01T01:00:00Z</time>
        <extensions><gpxtpx:TrackPointExtension><gpxtpx:hr>113</gpxtpx:hr></gpxtpx:TrackPointExtension></extensions>
      </trkpt>
      <trkpt lat="56.04535267" lon="12.69624067">
        <ele>0</ele>
        <time>1970-01-01T01:00:00Z</time>
        <extensions><gpxtpx:TrackPointExtension><gpxtpx:hr>113</gpxtpx:hr></gpxtpx:TrackPointExtension></extensions>
      </trkpt>
      <trkpt lat="56.04535267" lon="12.69624067">
        <ele>0</ele>
        <time>1970-01-01T01:00:00Z</time>
        <extensions><gpxtpx:TrackPointExtension><gpxtpx:hr>113</gpxtpx:hr></gpxtpx:TrackPointExtension></extensions>
      </trkpt>
      <trkpt lat="56.045323" lon="12.6962605">
        <ele>0</ele>
        <time>1970-01-01T01:00:00Z</time>
        <extensions><gpxtpx:TrackPointExtension><gpxtpx:hr>113</gpxtpx:hr></gpxtpx:TrackPointExtension></extensions>
      </trkpt>
      <trkpt lat="56.045323" lon="12.6962605">
        <ele>0</ele>
        <time>1970-01-01T01:00:00Z</time>
        <extensions><gpxtpx:TrackPointExtension><gpxtpx:hr>113</gpxtpx:hr></gpxtpx:TrackPointExtension></extensions>
      </trkpt>
      <trkpt lat="56.0453005" lon="12.69627417">
        <ele>0</ele>
        <time>1970-01-01T01:00:00Z</time>
        <extensions><gpxtpx:TrackPointExtension><gpxtpx:hr>113</gpxtpx:hr></gpxtpx:TrackPointExtension></extensions>
      </trkpt>
      <trkpt lat="56.0453005" lon="12.69627417">
        <ele>0</ele>
        <time>1970-01-01T01:00:00Z</time>
        <extensions><gpxtpx:TrackPointExtension><gpxtpx:hr>114</gpxtpx:hr></gpxtpx:TrackPointExtension></extensions>
      </trkpt>
      <trkpt lat="56.04527883" lon="12.69630833">
        <ele>0</ele>
        <time>1970-01-01T01:00:00Z</time>
        <extensions><gpxtpx:TrackPointExtension><gpxtpx:hr>115</gpxtpx:hr></gpxtpx:TrackPointExtension></extensions>
      </trkpt>
      <trkpt lat="56.04527883" lon="12.69630833">
        <ele>0</ele>
        <time>1970-01-01T01:00:00Z</time>
        <extensions><gpxtpx:TrackPointExtension><gpxtpx:hr>115</gpxtpx:hr></gpxtpx:TrackPointExtension></extensions>
      </trkpt>
      <trkpt lat="56.045257" lon="12.696315">
        <ele>0</ele>
        <time>1970-01-01T01:00:00Z</time>
        <extensions><gpxtpx:TrackPointExtension><gpxtpx:hr>116</gpxtpx:hr></gpxtpx:TrackPointExtension></extensions>
      </trkpt>
      <trkpt lat="56.04525333" lon="12.69627483">
        <ele>0</ele>
        <time>1970-01-01T01:00:00Z</time>
        <extensions><gpxtpx:TrackPointExtension><gpxtpx:hr>116</gpxtpx:hr></gpxtpx:TrackPointExtension></extensions>
      </trkpt>
      <trkpt lat="56.04525333" lon="12.69627483">
        <ele>0</ele>
        <time>1970-01-01T01:00:00Z</time>
        <extensions><gpxtpx:TrackPointExtension><gpxtpx:hr>116</gpxtpx:hr></gpxtpx:TrackPointExtension></extensions>
      </trkpt>
      <trkpt lat="56.0452645" lon="12.69623317">
        <ele>0</ele>
        <time>1970-01-01T01:00:00Z</time>
        <extensions><gpxtpx:TrackPointExtension><gpxtpx:hr>116</gpxtpx:hr></gpxtpx:TrackPointExtension></extensions>
      </trkpt>
      <trkpt lat="56.0452675" lon="12.69619633">
        <ele>0</ele>
        <time>1970-01-01T01:00:00Z</time>
        <extensions><gpxtpx:TrackPointExtension><gpxtpx:hr>116</gpxtpx:hr></gpxtpx:TrackPointExtension></extensions>
      </trkpt>
      <trkpt lat="56.0452675" lon="12.69619633">
        <ele>0</ele>
        <time>1970-01-01T01:00:00Z</time>
        <extensions><gpxtpx:TrackPointExtension><gpxtpx:hr>116</gpxtpx:hr></gpxtpx:TrackPointExtension></extensions>
      </trkpt>
      <trkpt lat="56.0452675" lon="12.69619633">
        <ele>0</ele>
        <time>1970-01-01T01:00:00Z</time>
        <extensions><gpxtpx:TrackPointExtension><gpxtpx:hr>116</gpxtpx:hr></gpxtpx:TrackPointExtension></extensions>
      </trkpt>
      <trkpt lat="56.0452675" lon="12.69619633">
        <ele>0</ele>
        <time>1970-01-01T01:00:00Z</time>
        <extensions><gpxtpx:TrackPointExtension><gpxtpx:hr>116</gpxtpx:hr></gpxtpx:TrackPointExtension></extensions>
      </trkpt>
      <trkpt lat="56.0452675" lon="12.69619633">
        <ele>0</ele>
        <time>1970-01-01T01:00:00Z</time>
        <extensions><gpxtpx:TrackPointExtension><gpxtpx:hr>116</gpxtpx:hr></gpxtpx:TrackPointExtension></extensions>
      </trkpt>
      <trkpt lat="56.04525883" lon="12.696156">
        <ele>0</ele>
        <time>1970-01-01T01:00:00Z</time>
        <extensions><gpxtpx:TrackPointExtension><gpxtpx:hr>116</gpxtpx:hr></gpxtpx:TrackPointExtension></extensions>
      </trkpt>
      <trkpt lat="56.04525883" lon="12.696156">
        <ele>0</ele>
        <time>1970-01-01T01:00:00Z</time>
        <extensions><gpxtpx:TrackPointExtension><gpxtpx:hr>116</gpxtpx:hr></gpxtpx:TrackPointExtension></extensions>
      </trkpt>
      <trkpt lat="56.04525883" lon="12.696156">
        <ele>0</ele>
        <time>1970-01-01T01:00:00Z</time>
        <extensions><gpxtpx:TrackPointExtension><gpxtpx:hr>116</gpxtpx:hr></gpxtpx:TrackPointExtension></extensions>
      </trkpt>
      <trkpt lat="56.04525883" lon="12.696156">
        <ele>0</ele>
        <time>1970-01-01T01:00:00Z</time>
        <extensions><gpxtpx:TrackPointExtension><gpxtpx:hr>116</gpxtpx:hr></gpxtpx:TrackPointExtension></extensions>
      </trkpt>
      <trkpt lat="56.04525883" lon="12.696156">
        <ele>0</ele>
        <time>1970-01-01T01:00:00Z</time>
        <extensions><gpxtpx:TrackPointExtension><gpxtpx:hr>116</gpxtpx:hr></gpxtpx:TrackPointExtension></extensions>
      </trkpt>
      <trkpt lat="56.04525883" lon="12.696156">
        <ele>0</ele>
        <time>1970-01-01T01:00:00Z</time>
        <extensions><gpxtpx:TrackPointExtension><gpxtpx:hr>117</gpxtpx:hr></gpxtpx:TrackPointExtension></extensions>
      </trkpt>
      <trkpt lat="56.04524717" lon="12.69612783">
        <ele>0</ele>
        <time>1970-01-01T01:00:00Z</time>
        <extensions><gpxtpx:TrackPointExtension><gpxtpx:hr>117</gpxtpx:hr></gpxtpx:TrackPointExtension></extensions>
      </trkpt>
      <trkpt lat="56.04524717" lon="12.69612783">
        <ele>0</ele>
        <time>1970-01-01T01:00:00Z</time>
        <extensions><gpxtpx:TrackPointExtension><gpxtpx:hr>117</gpxtpx:hr></gpxtpx:TrackPointExtension></extensions>
      </trkpt>
      <trkpt lat="56.04524717" lon="12.69612783">
        <ele>0</ele>
        <time>1970-01-01T01:00:00Z</time>
        <extensions><gpxtpx:TrackPointExtension><gpxtpx:hr>117</gpxtpx:hr></gpxtpx:TrackPointExtension></extensions>
      </trkpt>
      <trkpt lat="56.045234" lon="12.69608517">
        <ele>0</ele>
        <time>1970-01-01T01:00:00Z</time>
        <extensions><gpxtpx:TrackPointExtension><gpxtpx:hr>117</gpxtpx:hr></gpxtpx:TrackPointExtension></extensions>
      </trkpt>
      <trkpt lat="56.045234" lon="12.69608517">
        <ele>0</ele>
        <time>1970-01-01T01:00:00Z</time>
        <extensions><gpxtpx:TrackPointExtension><gpxtpx:hr>117</gpxtpx:hr></gpxtpx:TrackPointExtension></extensions>
      </trkpt>
      <trkpt lat="56.04521233" lon="12.69604433">
        <ele>0</ele>
        <time>1970-01-01T01:00:00Z</time>
        <extensions><gpxtpx:TrackPointExtension><gpxtpx:hr>117</gpxtpx:hr></gpxtpx:TrackPointExtension></extensions>
      </trkpt>
      <trkpt lat="56.04521233" lon="12.69604433">
        <ele>0</ele>
        <time>1970-01-01T01:00:00Z</time>
        <extensions><gpxtpx:TrackPointExtension><gpxtpx:hr>117</gpxtpx:hr></gpxtpx:TrackPointExtension></extensions>
      </trkpt>
      <trkpt lat="56.04520583" lon="12.69600933">
        <ele>0</ele>
        <time>1970-01-01T01:00:00Z</time>
        <extensions><gpxtpx:TrackPointExtension><gpxtpx:hr>117</gpxtpx:hr></gpxtpx:TrackPointExtension></extensions>
      </trkpt>
      <trkpt lat="56.04520583" lon="12.69600933">
        <ele>0</ele>
        <time>1970-01-01T01:00:00Z</time>
        <extensions><gpxtpx:TrackPointExtension><gpxtpx:hr>117</gpxtpx:hr></gpxtpx:TrackPointExtension></extensions>
      </trkpt>
      <trkpt lat="56.045195" lon="12.69596033">
        <ele>0</ele>
        <time>1970-01-01T01:00:00Z</time>
        <extensions><gpxtpx:TrackPointExtension><gpxtpx:hr>117</gpxtpx:hr></gpxtpx:TrackPointExtension></extensions>
      </trkpt>
      <trkpt lat="56.045195" lon="12.69596033">
        <ele>0</ele>
        <time>1970-01-01T01:00:00Z</time>
        <extensions><gpxtpx:TrackPointExtension><gpxtpx:hr>117</gpxtpx:hr></gpxtpx:TrackPointExtension></extensions>
      </trkpt>
      <trkpt lat="56.04519433" lon="12.69592017">
        <ele>0</ele>
        <time>1970-01-01T01:00:00Z</time>
        <extensions><gpxtpx:TrackPointExtension><gpxtpx:hr>116</gpxtpx:hr></gpxtpx:TrackPointExtension></extensions>
      </trkpt>
      <trkpt lat="56.04519433" lon="12.69592017">
        <ele>0</ele>
        <time>1970-01-01T01:00:00Z</time>
        <extensions><gpxtpx:TrackPointExtension><gpxtpx:hr>116</gpxtpx:hr></gpxtpx:TrackPointExtension></extensions>
      </trkpt>
      <trkpt lat="56.04518783" lon="12.69587467">
        <ele>0</ele>
        <time>1970-01-01T01:00:00Z</time>
        <extensions><gpxtpx:TrackPointExtension><gpxtpx:hr>117</gpxtpx:hr></gpxtpx:TrackPointExtension></extensions>
      </trkpt>
      <trkpt lat="56.04518783" lon="12.69587467">
        <ele>0</ele>
        <time>1970-01-01T01:00:00Z</time>
        <extensions><gpxtpx:TrackPointExtension><gpxtpx:hr>119</gpxtpx:hr></gpxtpx:TrackPointExtension></extensions>
      </trkpt>
      <trkpt lat="56.04518233" lon="12.69583783">
        <ele>0</ele>
        <time>1970-01-01T01:00:00Z</time>
        <extensions><gpxtpx:TrackPointExtension><gpxtpx:hr>119</gpxtpx:hr></gpxtpx:TrackPointExtension></extensions>
      </trkpt>
      <trkpt lat="56.04518233" lon="12.69583783">
        <ele>0</ele>
        <time>1970-01-01T01:00:00Z</time>
        <extensions><gpxtpx:TrackPointExtension><gpxtpx:hr>119</gpxtpx:hr></gpxtpx:TrackPointExtension></extensions>
      </trkpt>
      <trkpt lat="56.04517633" lon="12.69580567">
        <ele>0</ele>
        <time>1970-01-01T01:00:00Z</time>
        <extensions><gpxtpx:TrackPointExtension><gpxtpx:hr>119</gpxtpx:hr></gpxtpx:TrackPointExtension></extensions>
      </trkpt>
      <trkpt lat="56.04517633" lon="12.69580567">
        <ele>0</ele>
        <time>1970-01-01T01:00:00Z</time>
        <extensions><gpxtpx:TrackPointExtension><gpxtpx:hr>119</gpxtpx:hr></gpxtpx:TrackPointExtension></extensions>
      </trkpt>
      <trkpt lat="56.045174" lon="12.69576867">
        <ele>0</ele>
        <time>1970-01-01T01:00:00Z</time>
        <extensions><gpxtpx:TrackPointExtension><gpxtpx:hr>119</gpxtpx:hr></gpxtpx:TrackPointExtension></extensions>
      </trkpt>
      <trkpt lat="56.045174" lon="12.69576867">
        <ele>0</ele>
        <time>1970-01-01T01:00:00Z</time>
        <extensions><gpxtpx:TrackPointExtension><gpxtpx:hr>118</gpxtpx:hr></gpxtpx:TrackPointExtension></extensions>
      </trkpt>
      <trkpt lat="56.04516817" lon="12.6957295">
        <ele>0</ele>
        <time>1970-01-01T01:00:00Z</time>
        <extensions><gpxtpx:TrackPointExtension><gpxtpx:hr>118</gpxtpx:hr></gpxtpx:TrackPointExtension></extensions>
      </trkpt>
      <trkpt lat="56.04516817" lon="12.6957295">
        <ele>0</ele>
        <time>1970-01-01T01:00:00Z</time>
        <extensions><gpxtpx:TrackPointExtension><gpxtpx:hr>118</gpxtpx:hr></gpxtpx:TrackPointExtension></extensions>
      </trkpt>
      <trkpt lat="56.04516533" lon="12.69568567">
        <ele>0</ele>
        <time>1970-01-01T01:00:00Z</time>
        <extensions><gpxtpx:TrackPointExtension><gpxtpx:hr>118</gpxtpx:hr></gpxtpx:TrackPointExtension></extensions>
      </trkpt>
      <trkpt lat="56.04516533" lon="12.69568567">
        <ele>0</ele>
        <time>1970-01-01T01:00:00Z</time>
        <extensions><gpxtpx:TrackPointExtension><gpxtpx:hr>118</gpxtpx:hr></gpxtpx:TrackPointExtension></extensions>
      </trkpt>
      <trkpt lat="56.04516533" lon="12.69568567">
        <ele>0</ele>
        <time>1970-01-01T01:00:00Z</time>
        <extensions><gpxtpx:TrackPointExtension><gpxtpx:hr>118</gpxtpx:hr></gpxtpx:TrackPointExtension></extensions>
      </trkpt>
      <trkpt lat="56.04515967" lon="12.69563783">
        <ele>0</ele>
        <time>1970-01-01T01:00:00Z</time>
        <extensions><gpxtpx:TrackPointExtension><gpxtpx:hr>118</gpxtpx:hr></gpxtpx:TrackPointExtension></extensions>
      </trkpt>
      <trkpt lat="56.04515733" lon="12.6956025">
        <ele>0</ele>
        <time>1970-01-01T01:00:00Z</time>
        <extensions><gpxtpx:TrackPointExtension><gpxtpx:hr>117</gpxtpx:hr></gpxtpx:TrackPointExtension></extensions>
      </trkpt>
      <trkpt lat="56.04515733" lon="12.6956025">
        <ele>0</ele>
        <time>1970-01-01T01:00:00Z</time>
        <extensions><gpxtpx:TrackPointExtension><gpxtpx:hr>117</gpxtpx:hr></gpxtpx:TrackPointExtension></extensions>
      </trkpt>
      <trkpt lat="56.04515183" lon="12.69555817">
        <ele>0</ele>
        <time>1970-01-01T01:00:00Z</time>
        <extensions><gpxtpx:TrackPointExtension><gpxtpx:hr>117</gpxtpx:hr></gpxtpx:TrackPointExtension></extensions>
      </trkpt>
      <trkpt lat="56.04515183" lon="12.69555817">
        <ele>0</ele>
        <time>1970-01-01T01:00:00Z</time>
        <extensions><gpxtpx:TrackPointExtension><gpxtpx:hr>118</gpxtpx:hr></gpxtpx:TrackPointExtension></extensions>
      </trkpt>
      <trkpt lat="56.04513767" lon="12.69550617">
        <ele>0</ele>
        <time>1970-01-01T01:00:00Z</time>
        <extensions><gpxtpx:TrackPointExtension><gpxtpx:hr>118</gpxtpx:hr></gpxtpx:TrackPointExtension></extensions>
      </trkpt>
      <trkpt lat="56.04513767" lon="12.69550617">
        <ele>0</ele>
        <time>1970-01-01T01:00:00Z</time>
        <extensions><gpxtpx:TrackPointExtension><gpxtpx:hr>118</gpxtpx:hr></gpxtpx:TrackPointExtension></extensions>
      </trkpt>
      <trkpt lat="56.045118" lon="12.69545883">
        <ele>0</ele>
        <time>1970-01-01T01:00:00Z</time>
        <extensions><gpxtpx:TrackPointExtension><gpxtpx:hr>118</gpxtpx:hr></gpxtpx:TrackPointExtension></extensions>
      </trkpt>
      <trkpt lat="56.045118" lon="12.69545883">
        <ele>0</ele>
        <time>1970-01-01T01:00:00Z</time>
        <extensions><gpxtpx:TrackPointExtension><gpxtpx:hr>118</gpxtpx:hr></gpxtpx:TrackPointExtension></extensions>
      </trkpt>
      <trkpt lat="56.04510783" lon="12.6954075">
        <ele>0</ele>
        <time>1970-01-01T01:00:00Z</time>
        <extensions><gpxtpx:TrackPointExtension><gpxtpx:hr>118</gpxtpx:hr></gpxtpx:TrackPointExtension></extensions>
      </trkpt>
      <trkpt lat="56.04510783" lon="12.6954075">
        <ele>0</ele>
        <time>1970-01-01T01:00:00Z</time>
        <extensions><gpxtpx:TrackPointExtension><gpxtpx:hr>118</gpxtpx:hr></gpxtpx:TrackPointExtension></extensions>
      </trkpt>
      <trkpt lat="56.04510783" lon="12.6954075">
        <ele>0</ele>
        <time>1970-01-01T01:00:00Z</time>
        <extensions><gpxtpx:TrackPointExtension><gpxtpx:hr>118</gpxtpx:hr></gpxtpx:TrackPointExtension></extensions>
      </trkpt>
      <trkpt lat="56.04509817" lon="12.695361">
        <ele>0</ele>
        <time>1970-01-01T01:00:00Z</time>
        <extensions><gpxtpx:TrackPointExtension><gpxtpx:hr>118</gpxtpx:hr></gpxtpx:TrackPointExtension></extensions>
      </trkpt>
      <trkpt lat="56.0450855" lon="12.69531833">
        <ele>0</ele>
        <time>1970-01-01T01:00:00Z</time>
        <extensions><gpxtpx:TrackPointExtension><gpxtpx:hr>118</gpxtpx:hr></gpxtpx:TrackPointExtension></extensions>
      </trkpt>
      <trkpt lat="56.0450855" lon="12.69531833">
        <ele>0</ele>
        <time>1970-01-01T01:00:00Z</time>
        <extensions><gpxtpx:TrackPointExtension><gpxtpx:hr>118</gpxtpx:hr></gpxtpx:TrackPointExtension></extensions>
      </trkpt>
      <trkpt lat="56.0450595" lon="12.69529667">
        <ele>0</ele>
        <time>1970-01-01T01:00:00Z</time>
        <extensions><gpxtpx:TrackPointExtension><gpxtpx:hr>118</gpxtpx:hr></gpxtpx:TrackPointExtension></extensions>
      </trkpt>
      <trkpt lat="56.0450595" lon="12.69529667">
        <ele>0</ele>
        <time>1970-01-01T01:00:00Z</time>
        <extensions><gpxtpx:TrackPointExtension><gpxtpx:hr>118</gpxtpx:hr></gpxtpx:TrackPointExtension></extensions>
      </trkpt>
      <trkpt lat="56.04503833" lon="12.69529133">
        <ele>0</ele>
        <time>1970-01-01T01:00:00Z</time>
        <extensions><gpxtpx:TrackPointExtension><gpxtpx:hr>118</gpxtpx:hr></gpxtpx:TrackPointExtension></extensions>
      </trkpt>
      <trkpt lat="56.04503833" lon="12.69529133">
        <ele>0</ele>
        <time>1970-01-01T01:00:00Z</time>
        <extensions><gpxtpx:TrackPointExtension><gpxtpx:hr>118</gpxtpx:hr></gpxtpx:TrackPointExtension></extensions>
      </trkpt>
      <trkpt lat="56.0450155" lon="12.6952705">
        <ele>0</ele>
        <time>1970-01-01T01:00:00Z</time>
        <extensions><gpxtpx:TrackPointExtension><gpxtpx:hr>117</gpxtpx:hr></gpxtpx:TrackPointExtension></extensions>
      </trkpt>
      <trkpt lat="56.0450155" lon="12.6952705">
        <ele>0</ele>
        <time>1970-01-01T01:00:00Z</time>
        <extensions><gpxtpx:TrackPointExtension><gpxtpx:hr>117</gpxtpx:hr></gpxtpx:TrackPointExtension></extensions>
      </trkpt>
      <trkpt lat="56.0450155" lon="12.6952705">
        <ele>0</ele>
        <time>1970-01-01T01:00:00Z</time>
        <extensions><gpxtpx:TrackPointExtension><gpxtpx:hr>117</gpxtpx:hr></gpxtpx:TrackPointExtension></extensions>
      </trkpt>
      <trkpt lat="56.04500417" lon="12.69523367">
        <ele>0</ele>
        <time>1970-01-01T01:00:00Z</time>
        <extensions><gpxtpx:TrackPointExtension><gpxtpx:hr>117</gpxtpx:hr></gpxtpx:TrackPointExtension></extensions>
      </trkpt>
      <trkpt lat="56.04500417" lon="12.69523367">
        <ele>0</ele>
        <time>1970-01-01T01:00:00Z</time>
        <extensions><gpxtpx:TrackPointExtension><gpxtpx:hr>118</gpxtpx:hr></gpxtpx:TrackPointExtension></extensions>
      </trkpt>
      <trkpt lat="56.04499917" lon="12.69519567">
        <ele>0</ele>
        <time>1970-01-01T01:00:00Z</time>
        <extensions><gpxtpx:TrackPointExtension><gpxtpx:hr>118</gpxtpx:hr></gpxtpx:TrackPointExtension></extensions>
      </trkpt>
      <trkpt lat="56.04499917" lon="12.69519567">
        <ele>0</ele>
        <time>1970-01-01T01:00:00Z</time>
        <extensions><gpxtpx:TrackPointExtension><gpxtpx:hr>118</gpxtpx:hr></gpxtpx:TrackPointExtension></extensions>
      </trkpt>
      <trkpt lat="56.04499917" lon="12.69519567">
        <ele>0</ele>
        <time>1970-01-01T01:00:00Z</time>
        <extensions><gpxtpx:TrackPointExtension><gpxtpx:hr>118</gpxtpx:hr></gpxtpx:TrackPointExtension></extensions>
      </trkpt>
      <trkpt lat="56.04499583" lon="12.69515533">
        <ele>0</ele>
        <time>1970-01-01T01:00:00Z</time>
        <extensions><gpxtpx:TrackPointExtension><gpxtpx:hr>118</gpxtpx:hr></gpxtpx:TrackPointExtension></extensions>
      </trkpt>
      <trkpt lat="56.04498833" lon="12.69512183">
        <ele>0</ele>
        <time>1970-01-01T01:00:00Z</time>
        <extensions><gpxtpx:TrackPointExtension><gpxtpx:hr>118</gpxtpx:hr></gpxtpx:TrackPointExtension></extensions>
      </trkpt>
      <trkpt lat="56.04498833" lon="12.69512183">
        <ele>0</ele>
        <time>1970-01-01T01:00:00Z</time>
        <extensions><gpxtpx:TrackPointExtension><gpxtpx:hr>118</gpxtpx:hr></gpxtpx:TrackPointExtension></extensions>
      </trkpt>
      <trkpt lat="56.04498833" lon="12.69512183">
        <ele>0</ele>
        <time>1970-01-01T01:00:00Z</time>
        <extensions><gpxtpx:TrackPointExtension><gpxtpx:hr>118</gpxtpx:hr></gpxtpx:TrackPointExtension></extensions>
      </trkpt>
      <trkpt lat="56.04497767" lon="12.69507133">
        <ele>0</ele>
        <time>1970-01-01T01:00:00Z</time>
        <extensions><gpxtpx:TrackPointExtension><gpxtpx:hr>118</gpxtpx:hr></gpxtpx:TrackPointExtension></extensions>
      </trkpt>
      <trkpt lat="56.0449675" lon="12.69502333">
        <ele>0</ele>
        <time>1970-01-01T01:00:00Z</time>
        <extensions><gpxtpx:TrackPointExtension><gpxtpx:hr>119</gpxtpx:hr></gpxtpx:TrackPointExtension></extensions>
      </trkpt>
      <trkpt lat="56.0449675" lon="12.69502333">
        <ele>0</ele>
        <time>1970-01-01T01:00:00Z</time>
        <extensions><gpxtpx:TrackPointExtension><gpxtpx:hr>119</gpxtpx:hr></gpxtpx:TrackPointExtension></extensions>
      </trkpt>
      <trkpt lat="56.0449675" lon="12.69502333">
        <ele>0</ele>
        <time>1970-01-01T01:00:00Z</time>
        <extensions><gpxtpx:TrackPointExtension><gpxtpx:hr>119</gpxtpx:hr></gpxtpx:TrackPointExtension></extensions>
      </trkpt>
      <trkpt lat="56.04494483" lon="12.6949365">
        <ele>0</ele>
        <time>1970-01-01T01:00:00Z</time>
        <extensions><gpxtpx:TrackPointExtension><gpxtpx:hr>119</gpxtpx:hr></gpxtpx:TrackPointExtension></extensions>
      </trkpt>
      <trkpt lat="56.04494483" lon="12.6949365">
        <ele>0</ele>
        <time>1970-01-01T01:00:00Z</time>
        <extensions><gpxtpx:TrackPointExtension><gpxtpx:hr>119</gpxtpx:hr></gpxtpx:TrackPointExtension></extensions>
      </trkpt>
      <trkpt lat="56.04491983" lon="12.69488483">
        <ele>0</ele>
        <time>1970-01-01T01:00:00Z</time>
        <extensions><gpxtpx:TrackPointExtension><gpxtpx:hr>119</gpxtpx:hr></gpxtpx:TrackPointExtension></extensions>
      </trkpt>
      <trkpt lat="56.04489733" lon="12.69487467">
        <ele>0</ele>
        <time>1970-01-01T01:00:00Z</time>
        <extensions><gpxtpx:TrackPointExtension><gpxtpx:hr>119</gpxtpx:hr></gpxtpx:TrackPointExtension></extensions>
      </trkpt>
      <trkpt lat="56.04488" lon="12.69485317">
        <ele>0</ele>
        <time>1970-01-01T01:00:00Z</time>
        <extensions><gpxtpx:TrackPointExtension><gpxtpx:hr>119</gpxtpx:hr></gpxtpx:TrackPointExtension></extensions>
      </trkpt>
      <trkpt lat="56.04488" lon="12.69485317">
        <ele>0</ele>
        <time>1970-01-01T01:00:00Z</time>
        <extensions><gpxtpx:TrackPointExtension><gpxtpx:hr>119</gpxtpx:hr></gpxtpx:TrackPointExtension></extensions>
      </trkpt>
      <trkpt lat="56.04484567" lon="12.694822">
        <ele>0</ele>
        <time>1970-01-01T01:00:00Z</time>
        <extensions><gpxtpx:TrackPointExtension><gpxtpx:hr>119</gpxtpx:hr></gpxtpx:TrackPointExtension></extensions>
      </trkpt>
      <trkpt lat="56.04482633" lon="12.694806">
        <ele>0</ele>
        <time>1970-01-01T01:00:00Z</time>
        <extensions><gpxtpx:TrackPointExtension><gpxtpx:hr>119</gpxtpx:hr></gpxtpx:TrackPointExtension></extensions>
      </trkpt>
      <trkpt lat="56.04482633" lon="12.694806">
        <ele>0</ele>
        <time>1970-01-01T01:00:00Z</time>
        <extensions><gpxtpx:TrackPointExtension><gpxtpx:hr>119</gpxtpx:hr></gpxtpx:TrackPointExtension></extensions>
      </trkpt>
      <trkpt lat="56.04480783" lon="12.69478833">
        <ele>0</ele>
        <time>1970-01-01T01:00:00Z</time>
        <extensions><gpxtpx:TrackPointExtension><gpxtpx:hr>119</gpxtpx:hr></gpxtpx:TrackPointExtension></extensions>
      </trkpt>
      <trkpt lat="56.04480783" lon="12.69478833">
        <ele>0</ele>
        <time>1970-01-01T01:00:00Z</time>
        <extensions><gpxtpx:TrackPointExtension><gpxtpx:hr>119</gpxtpx:hr></gpxtpx:TrackPointExtension></extensions>
      </trkpt>
      <trkpt lat="56.04480783" lon="12.69478833">
        <ele>0</ele>
        <time>1970-01-01T01:00:00Z</time>
        <extensions><gpxtpx:TrackPointExtension><gpxtpx:hr>119</gpxtpx:hr></gpxtpx:TrackPointExtension></extensions>
      </trkpt>
      <trkpt lat="56.04479567" lon="12.6947615">
        <ele>0</ele>
        <time>1970-01-01T01:00:00Z</time>
        <extensions><gpxtpx:TrackPointExtension><gpxtpx:hr>119</gpxtpx:hr></gpxtpx:TrackPointExtension></extensions>
      </trkpt>
      <trkpt lat="56.04479567" lon="12.6947615">
        <ele>0</ele>
        <time>1970-01-01T01:00:00Z</time>
        <extensions><gpxtpx:TrackPointExtension><gpxtpx:hr>119</gpxtpx:hr></gpxtpx:TrackPointExtension></extensions>
      </trkpt>
      <trkpt lat="56.04479567" lon="12.6947615">
        <ele>0</ele>
        <time>1970-01-01T01:00:00Z</time>
        <extensions><gpxtpx:TrackPointExtension><gpxtpx:hr>119</gpxtpx:hr></gpxtpx:TrackPointExtension></extensions>
      </trkpt>
      <trkpt lat="56.04479567" lon="12.6947615">
        <ele>0</ele>
        <time>1970-01-01T01:00:00Z</time>
        <extensions><gpxtpx:TrackPointExtension><gpxtpx:hr>119</gpxtpx:hr></gpxtpx:TrackPointExtension></extensions>
      </trkpt>
      <trkpt lat="56.04479567" lon="12.6947615">
        <ele>0</ele>
        <time>1970-01-01T01:00:00Z</time>
        <extensions><gpxtpx:TrackPointExtension><gpxtpx:hr>119</gpxtpx:hr></gpxtpx:TrackPointExtension></extensions>
      </trkpt>
      <trkpt lat="56.04479567" lon="12.6947615">
        <ele>0</ele>
        <time>1970-01-01T01:00:00Z</time>
        <extensions><gpxtpx:TrackPointExtension><gpxtpx:hr>119</gpxtpx:hr></gpxtpx:TrackPointExtension></extensions>
      </trkpt>
      <trkpt lat="56.04479567" lon="12.6947615">
        <ele>0</ele>
        <time>1970-01-01T01:00:00Z</time>
        <extensions><gpxtpx:TrackPointExtension><gpxtpx:hr>119</gpxtpx:hr></gpxtpx:TrackPointExtension></extensions>
      </trkpt>
      <trkpt lat="56.04479567" lon="12.6947615">
        <ele>0</ele>
        <time>1970-01-01T01:00:00Z</time>
        <extensions><gpxtpx:TrackPointExtension><gpxtpx:hr>119</gpxtpx:hr></gpxtpx:TrackPointExtension></extensions>
      </trkpt>
      <trkpt lat="56.0447775" lon="12.69476733">
        <ele>0</ele>
        <time>1970-01-01T01:00:00Z</time>
        <extensions><gpxtpx:TrackPointExtension><gpxtpx:hr>119</gpxtpx:hr></gpxtpx:TrackPointExtension></extensions>
      </trkpt>
      <trkpt lat="56.0447775" lon="12.69476733">
        <ele>0</ele>
        <time>1970-01-01T01:00:00Z</time>
        <extensions><gpxtpx:TrackPointExtension><gpxtpx:hr>119</gpxtpx:hr></gpxtpx:TrackPointExtension></extensions>
      </trkpt>
      <trkpt lat="56.0447775" lon="12.69476733">
        <ele>0</ele>
        <time>1970-01-01T01:00:00Z</time>
        <extensions><gpxtpx:TrackPointExtension><gpxtpx:hr>119</gpxtpx:hr></gpxtpx:TrackPointExtension></extensions>
      </trkpt>
      <trkpt lat="56.0447775" lon="12.69476733">
        <ele>0</ele>
        <time>1970-01-01T01:00:00Z</time>
        <extensions><gpxtpx:TrackPointExtension><gpxtpx:hr>119</gpxtpx:hr></gpxtpx:TrackPointExtension></extensions>
      </trkpt>
      <trkpt lat="56.0447775" lon="12.69476733">
        <ele>0</ele>
        <time>1970-01-01T01:00:00Z</time>
        <extensions><gpxtpx:TrackPointExtension><gpxtpx:hr>119</gpxtpx:hr></gpxtpx:TrackPointExtension></extensions>
      </trkpt>
      <trkpt lat="56.0447775" lon="12.69476733">
        <ele>0</ele>
        <time>1970-01-01T01:00:00Z</time>
        <extensions><gpxtpx:TrackPointExtension><gpxtpx:hr>119</gpxtpx:hr></gpxtpx:TrackPointExtension></extensions>
      </trkpt>
      <trkpt lat="56.0447775" lon="12.69476733">
        <ele>0</ele>
        <time>1970-01-01T01:00:00Z</time>
        <extensions><gpxtpx:TrackPointExtension><gpxtpx:hr>120</gpxtpx:hr></gpxtpx:TrackPointExtension></extensions>
      </trkpt>
      <trkpt lat="56.0447775" lon="12.69476733">
        <ele>0</ele>
        <time>1970-01-01T01:00:00Z</time>
        <extensions><gpxtpx:TrackPointExtension><gpxtpx:hr>121</gpxtpx:hr></gpxtpx:TrackPointExtension></extensions>
      </trkpt>
      <trkpt lat="56.0447775" lon="12.69476733">
        <ele>0</ele>
        <time>1970-01-01T01:00:00Z</time>
        <extensions><gpxtpx:TrackPointExtension><gpxtpx:hr>121</gpxtpx:hr></gpxtpx:TrackPointExtension></extensions>
      </trkpt>
      <trkpt lat="56.0447775" lon="12.69476733">
        <ele>0</ele>
        <time>1970-01-01T01:00:00Z</time>
        <extensions><gpxtpx:TrackPointExtension><gpxtpx:hr>121</gpxtpx:hr></gpxtpx:TrackPointExtension></extensions>
      </trkpt>
      <trkpt lat="56.0447775" lon="12.69476733">
        <ele>0</ele>
        <time>1970-01-01T01:00:00Z</time>
        <extensions><gpxtpx:TrackPointExtension><gpxtpx:hr>121</gpxtpx:hr></gpxtpx:TrackPointExtension></extensions>
      </trkpt>
      <trkpt lat="56.0447775" lon="12.69476733">
        <ele>0</ele>
        <time>1970-01-01T01:00:00Z</time>
        <extensions><gpxtpx:TrackPointExtension><gpxtpx:hr>122</gpxtpx:hr></gpxtpx:TrackPointExtension></extensions>
      </trkpt>
      <trkpt lat="56.0447775" lon="12.69476733">
        <ele>0</ele>
        <time>1970-01-01T01:00:00Z</time>
        <extensions><gpxtpx:TrackPointExtension><gpxtpx:hr>122</gpxtpx:hr></gpxtpx:TrackPointExtension></extensions>
      </trkpt>
      <trkpt lat="56.0447775" lon="12.69476733">
        <ele>0</ele>
        <time>1970-01-01T01:00:00Z</time>
        <extensions><gpxtpx:TrackPointExtension><gpxtpx:hr>122</gpxtpx:hr></gpxtpx:TrackPointExtension></extensions>
      </trkpt>
      <trkpt lat="56.0447775" lon="12.69476733">
        <ele>0</ele>
        <time>1970-01-01T01:00:00Z</time>
        <extensions><gpxtpx:TrackPointExtension><gpxtpx:hr>122</gpxtpx:hr></gpxtpx:TrackPointExtension></extensions>
      </trkpt>
      <trkpt lat="56.0447775" lon="12.69476733">
        <ele>0</ele>
        <time>1970-01-01T01:00:00Z</time>
        <extensions><gpxtpx:TrackPointExtension><gpxtpx:hr>122</gpxtpx:hr></gpxtpx:TrackPointExtension></extensions>
      </trkpt>
      <trkpt lat="56.0447775" lon="12.69476733">
        <ele>0</ele>
        <time>1970-01-01T01:00:00Z</time>
        <extensions><gpxtpx:TrackPointExtension><gpxtpx:hr>122</gpxtpx:hr></gpxtpx:TrackPointExtension></extensions>
      </trkpt>
      <trkpt lat="56.0447775" lon="12.69476733">
        <ele>0</ele>
        <time>1970-01-01T01:00:00Z</time>
        <extensions><gpxtpx:TrackPointExtension><gpxtpx:hr>123</gpxtpx:hr></gpxtpx:TrackPointExtension></extensions>
      </trkpt>
      <trkpt lat="56.0447775" lon="12.69476733">
        <ele>0</ele>
        <time>1970-01-01T01:00:00Z</time>
        <extensions><gpxtpx:TrackPointExtension><gpxtpx:hr>123</gpxtpx:hr></gpxtpx:TrackPointExtension></extensions>
      </trkpt>
      <trkpt lat="56.0447775" lon="12.69476733">
        <ele>0</ele>
        <time>1970-01-01T01:00:00Z</time>
        <extensions><gpxtpx:TrackPointExtension><gpxtpx:hr>123</gpxtpx:hr></gpxtpx:TrackPointExtension></extensions>
      </trkpt>
      <trkpt lat="56.0447775" lon="12.69476733">
        <ele>0</ele>
        <time>1970-01-01T01:00:00Z</time>
        <extensions><gpxtpx:TrackPointExtension><gpxtpx:hr>123</gpxtpx:hr></gpxtpx:TrackPointExtension></extensions>
      </trkpt>
      <trkpt lat="56.0447775" lon="12.69476733">
        <ele>0</ele>
        <time>1970-01-01T01:00:00Z</time>
        <extensions><gpxtpx:TrackPointExtension><gpxtpx:hr>123</gpxtpx:hr></gpxtpx:TrackPointExtension></extensions>
      </trkpt>
      <trkpt lat="56.0447775" lon="12.69476733">
        <ele>0</ele>
        <time>1970-01-01T01:00:00Z</time>
        <extensions><gpxtpx:TrackPointExtension><gpxtpx:hr>123</gpxtpx:hr></gpxtpx:TrackPointExtension></extensions>
      </trkpt>
      <trkpt lat="56.0447775" lon="12.69476733">
        <ele>0</ele>
        <time>1970-01-01T01:00:00Z</time>
        <extensions><gpxtpx:TrackPointExtension><gpxtpx:hr>123</gpxtpx:hr></gpxtpx:TrackPointExtension></extensions>
      </trkpt>
      <trkpt lat="56.0447775" lon="12.69476733">
        <ele>0</ele>
        <time>1970-01-01T01:00:00Z</time>
        <extensions><gpxtpx:TrackPointExtension><gpxtpx:hr>123</gpxtpx:hr></gpxtpx:TrackPointExtension></extensions>
      </trkpt>
      <trkpt lat="56.0447775" lon="12.69476733">
        <ele>0</ele>
        <time>1970-01-01T01:00:00Z</time>
        <extensions><gpxtpx:TrackPointExtension><gpxtpx:hr>123</gpxtpx:hr></gpxtpx:TrackPointExtension></extensions>
      </trkpt>
      <trkpt lat="56.0447635" lon="12.69474217">
        <ele>0</ele>
        <time>1970-01-01T01:00:00Z</time>
        <extensions><gpxtpx:TrackPointExtension><gpxtpx:hr>123</gpxtpx:hr></gpxtpx:TrackPointExtension></extensions>
      </trkpt>
      <trkpt lat="56.0447635" lon="12.69474217">
        <ele>0</ele>
        <time>1970-01-01T01:00:00Z</time>
        <extensions><gpxtpx:TrackPointExtension><gpxtpx:hr>122</gpxtpx:hr></gpxtpx:TrackPointExtension></extensions>
      </trkpt>
      <trkpt lat="56.04474767" lon="12.69471433">
        <ele>0</ele>
        <time>1970-01-01T01:00:00Z</time>
        <extensions><gpxtpx:TrackPointExtension><gpxtpx:hr>122</gpxtpx:hr></gpxtpx:TrackPointExtension></extensions>
      </trkpt>
      <trkpt lat="56.04474767" lon="12.69471433">
        <ele>0</ele>
        <time>1970-01-01T01:00:00Z</time>
        <extensions><gpxtpx:TrackPointExtension><gpxtpx:hr>121</gpxtpx:hr></gpxtpx:TrackPointExtension></extensions>
      </trkpt>
      <trkpt lat="56.0447315" lon="12.69467417">
        <ele>0</ele>
        <time>1970-01-01T01:00:00Z</time>
        <extensions><gpxtpx:TrackPointExtension><gpxtpx:hr>120</gpxtpx:hr></gpxtpx:TrackPointExtension></extensions>
      </trkpt>
      <trkpt lat="56.0447315" lon="12.69467417">
        <ele>0</ele>
        <time>1970-01-01T01:00:00Z</time>
        <extensions><gpxtpx:TrackPointExtension><gpxtpx:hr>120</gpxtpx:hr></gpxtpx:TrackPointExtension></extensions>
      </trkpt>
      <trkpt lat="56.04471683" lon="12.69461433">
        <ele>0</ele>
        <time>1970-01-01T01:00:00Z</time>
        <extensions><gpxtpx:TrackPointExtension><gpxtpx:hr>118</gpxtpx:hr></gpxtpx:TrackPointExtension></extensions>
      </trkpt>
      <trkpt lat="56.04471683" lon="12.69461433">
        <ele>0</ele>
        <time>1970-01-01T01:00:00Z</time>
        <extensions><gpxtpx:TrackPointExtension><gpxtpx:hr>111</gpxtpx:hr></gpxtpx:TrackPointExtension></extensions>
      </trkpt>
      <trkpt lat="56.04470583" lon="12.69456917">
        <ele>0</ele>
        <time>1970-01-01T01:00:00Z</time>
        <extensions><gpxtpx:TrackPointExtension><gpxtpx:hr>107</gpxtpx:hr></gpxtpx:TrackPointExtension></extensions>
      </trkpt>
      <trkpt lat="56.04470583" lon="12.69456917">
        <ele>0</ele>
        <time>1970-01-01T01:00:00Z</time>
        <extensions><gpxtpx:TrackPointExtension><gpxtpx:hr>104</gpxtpx:hr></gpxtpx:TrackPointExtension></extensions>
      </trkpt>
      <trkpt lat="56.04469517" lon="12.6945405">
        <ele>0</ele>
        <time>1970-01-01T01:00:00Z</time>
        <extensions><gpxtpx:TrackPointExtension><gpxtpx:hr>104</gpxtpx:hr></gpxtpx:TrackPointExtension></extensions>
      </trkpt>
      <trkpt lat="56.04469517" lon="12.6945405">
        <ele>0</ele>
        <time>1970-01-01T01:00:00Z</time>
        <extensions><gpxtpx:TrackPointExtension><gpxtpx:hr>102</gpxtpx:hr></gpxtpx:TrackPointExtension></extensions>
      </trkpt>
      <trkpt lat="56.0446785" lon="12.69449633">
        <ele>0</ele>
        <time>1970-01-01T01:00:00Z</time>
        <extensions><gpxtpx:TrackPointExtension><gpxtpx:hr>101</gpxtpx:hr></gpxtpx:TrackPointExtension></extensions>
      </trkpt>
      <trkpt lat="56.0446785" lon="12.69449633">
        <ele>0</ele>
        <time>1970-01-01T01:00:00Z</time>
        <extensions><gpxtpx:TrackPointExtension><gpxtpx:hr>101</gpxtpx:hr></gpxtpx:TrackPointExtension></extensions>
      </trkpt>
      <trkpt lat="56.04465483" lon="12.69447217">
        <ele>0</ele>
        <time>1970-01-01T01:00:00Z</time>
        <extensions><gpxtpx:TrackPointExtension><gpxtpx:hr>101</gpxtpx:hr></gpxtpx:TrackPointExtension></extensions>
      </trkpt>
      <trkpt lat="56.04465483" lon="12.69447217">
        <ele>0</ele>
        <time>1970-01-01T01:00:00Z</time>
        <extensions><gpxtpx:TrackPointExtension><gpxtpx:hr>101</gpxtpx:hr></gpxtpx:TrackPointExtension></extensions>
      </trkpt>
      <trkpt lat="56.04463083" lon="12.6944505">
        <ele>0</ele>
        <time>1970-01-01T01:00:00Z</time>
        <extensions><gpxtpx:TrackPointExtension><gpxtpx:hr>99</gpxtpx:hr></gpxtpx:TrackPointExtension></extensions>
      </trkpt>
      <trkpt lat="56.04463083" lon="12.6944505">
        <ele>0</ele>
        <time>1970-01-01T01:00:00Z</time>
        <extensions><gpxtpx:TrackPointExtension><gpxtpx:hr>99</gpxtpx:hr></gpxtpx:TrackPointExtension></extensions>
      </trkpt>
      <trkpt lat="56.04463083" lon="12.6944505">
        <ele>0</ele>
        <time>1970-01-01T01:00:00Z</time>
        <extensions><gpxtpx:TrackPointExtension><gpxtpx:hr>100</gpxtpx:hr></gpxtpx:TrackPointExtension></extensions>
      </trkpt>
      <trkpt lat="56.04460467" lon="12.69443867">
        <ele>0</ele>
        <time>1970-01-01T01:00:00Z</time>
        <extensions><gpxtpx:TrackPointExtension><gpxtpx:hr>99</gpxtpx:hr></gpxtpx:TrackPointExtension></extensions>
      </trkpt>
      <trkpt lat="56.04458583" lon="12.69444867">
        <ele>0</ele>
        <time>1970-01-01T01:00:00Z</time>
        <extensions><gpxtpx:TrackPointExtension><gpxtpx:hr>99</gpxtpx:hr></gpxtpx:TrackPointExtension></extensions>
      </trkpt>
      <trkpt lat="56.04458583" lon="12.69444867">
        <ele>0</ele>
        <time>1970-01-01T01:00:00Z</time>
        <extensions><gpxtpx:TrackPointExtension><gpxtpx:hr>99</gpxtpx:hr></gpxtpx:TrackPointExtension></extensions>
      </trkpt>
      <trkpt lat="56.04458583" lon="12.69444867">
        <ele>0</ele>
        <time>1970-01-01T01:00:00Z</time>
        <extensions><gpxtpx:TrackPointExtension><gpxtpx:hr>99</gpxtpx:hr></gpxtpx:TrackPointExtension></extensions>
      </trkpt>
      <trkpt lat="56.04458583" lon="12.69444867">
        <ele>0</ele>
        <time>1970-01-01T01:00:00Z</time>
        <extensions><gpxtpx:TrackPointExtension><gpxtpx:hr>100</gpxtpx:hr></gpxtpx:TrackPointExtension></extensions>
      </trkpt>
      <trkpt lat="56.0445665" lon="12.69444217">
        <ele>0</ele>
        <time>1970-01-01T01:00:00Z</time>
        <extensions><gpxtpx:TrackPointExtension><gpxtpx:hr>100</gpxtpx:hr></gpxtpx:TrackPointExtension></extensions>
      </trkpt>
      <trkpt lat="56.0445665" lon="12.69444217">
        <ele>0</ele>
        <time>1970-01-01T01:00:00Z</time>
        <extensions><gpxtpx:TrackPointExtension><gpxtpx:hr>100</gpxtpx:hr></gpxtpx:TrackPointExtension></extensions>
      </trkpt>
      <trkpt lat="56.0445665" lon="12.69444217">
        <ele>0</ele>
        <time>1970-01-01T01:00:00Z</time>
        <extensions><gpxtpx:TrackPointExtension><gpxtpx:hr>100</gpxtpx:hr></gpxtpx:TrackPointExtension></extensions>
      </trkpt>
      <trkpt lat="56.0445665" lon="12.69444217">
        <ele>0</ele>
        <time>1970-01-01T01:00:00Z</time>
        <extensions><gpxtpx:TrackPointExtension><gpxtpx:hr>101</gpxtpx:hr></gpxtpx:TrackPointExtension></extensions>
      </trkpt>
      <trkpt lat="56.0445635" lon="12.69440983">
        <ele>0</ele>
        <time>1970-01-01T01:00:00Z</time>
        <extensions><gpxtpx:TrackPointExtension><gpxtpx:hr>101</gpxtpx:hr></gpxtpx:TrackPointExtension></extensions>
      </trkpt>
      <trkpt lat="56.0445635" lon="12.69440983">
        <ele>0</ele>
        <time>1970-01-01T01:00:00Z</time>
        <extensions><gpxtpx:TrackPointExtension><gpxtpx:hr>101</gpxtpx:hr></gpxtpx:TrackPointExtension></extensions>
      </trkpt>
      <trkpt lat="56.0445635" lon="12.69440983">
        <ele>0</ele>
        <time>1970-01-01T01:00:00Z</time>
        <extensions><gpxtpx:TrackPointExtension><gpxtpx:hr>102</gpxtpx:hr></gpxtpx:TrackPointExtension></extensions>
      </trkpt>
      <trkpt lat="56.0445635" lon="12.69440983">
        <ele>0</ele>
        <time>1970-01-01T01:00:00Z</time>
        <extensions><gpxtpx:TrackPointExtension><gpxtpx:hr>103</gpxtpx:hr></gpxtpx:TrackPointExtension></extensions>
      </trkpt>
      <trkpt lat="56.0445635" lon="12.69440983">
        <ele>0</ele>
        <time>1970-01-01T01:00:00Z</time>
        <extensions><gpxtpx:TrackPointExtension><gpxtpx:hr>104</gpxtpx:hr></gpxtpx:TrackPointExtension></extensions>
      </trkpt>
      <trkpt lat="56.0445635" lon="12.69440983">
        <ele>0</ele>
        <time>1970-01-01T01:00:00Z</time>
        <extensions><gpxtpx:TrackPointExtension><gpxtpx:hr>105</gpxtpx:hr></gpxtpx:TrackPointExtension></extensions>
      </trkpt>
      <trkpt lat="56.0445635" lon="12.69440983">
        <ele>0</ele>
        <time>1970-01-01T01:00:00Z</time>
        <extensions><gpxtpx:TrackPointExtension><gpxtpx:hr>105</gpxtpx:hr></gpxtpx:TrackPointExtension></extensions>
      </trkpt>
      <trkpt lat="56.0445635" lon="12.69440983">
        <ele>0</ele>
        <time>1970-01-01T01:00:00Z</time>
        <extensions><gpxtpx:TrackPointExtension><gpxtpx:hr>106</gpxtpx:hr></gpxtpx:TrackPointExtension></extensions>
      </trkpt>
      <trkpt lat="56.0445635" lon="12.69440983">
        <ele>0</ele>
        <time>1970-01-01T01:00:00Z</time>
        <extensions><gpxtpx:TrackPointExtension><gpxtpx:hr>106</gpxtpx:hr></gpxtpx:TrackPointExtension></extensions>
      </trkpt>
      <trkpt lat="56.0445635" lon="12.69440983">
        <ele>0</ele>
        <time>1970-01-01T01:00:00Z</time>
        <extensions><gpxtpx:TrackPointExtension><gpxtpx:hr>107</gpxtpx:hr></gpxtpx:TrackPointExtension></extensions>
      </trkpt>
      <trkpt lat="56.0445635" lon="12.69440983">
        <ele>0</ele>
        <time>1970-01-01T01:00:00Z</time>
        <extensions><gpxtpx:TrackPointExtension><gpxtpx:hr>108</gpxtpx:hr></gpxtpx:TrackPointExtension></extensions>
      </trkpt>
      <trkpt lat="56.0445635" lon="12.69440983">
        <ele>0</ele>
        <time>1970-01-01T01:00:00Z</time>
        <extensions><gpxtpx:TrackPointExtension><gpxtpx:hr>108</gpxtpx:hr></gpxtpx:TrackPointExtension></extensions>
      </trkpt>
      <trkpt lat="56.0445635" lon="12.69440983">
        <ele>0</ele>
        <time>1970-01-01T01:00:00Z</time>
        <extensions><gpxtpx:TrackPointExtension><gpxtpx:hr>109</gpxtpx:hr></gpxtpx:TrackPointExtension></extensions>
      </trkpt>
      <trkpt lat="56.0445635" lon="12.69440983">
        <ele>0</ele>
        <time>1970-01-01T01:00:00Z</time>
        <extensions><gpxtpx:TrackPointExtension><gpxtpx:hr>109</gpxtpx:hr></gpxtpx:TrackPointExtension></extensions>
      </trkpt>
      <trkpt lat="56.0445635" lon="12.69440983">
        <ele>0</ele>
        <time>1970-01-01T01:00:00Z</time>
        <extensions><gpxtpx:TrackPointExtension><gpxtpx:hr>109</gpxtpx:hr></gpxtpx:TrackPointExtension></extensions>
      </trkpt>
      <trkpt lat="56.0445635" lon="12.69440983">
        <ele>0</ele>
        <time>1970-01-01T01:00:00Z</time>
        <extensions><gpxtpx:TrackPointExtension><gpxtpx:hr>109</gpxtpx:hr></gpxtpx:TrackPointExtension></extensions>
      </trkpt>
      <trkpt lat="56.0445635" lon="12.69440983">
        <ele>0</ele>
        <time>1970-01-01T01:00:00Z</time>
        <extensions><gpxtpx:TrackPointExtension><gpxtpx:hr>109</gpxtpx:hr></gpxtpx:TrackPointExtension></extensions>
      </trkpt>
      <trkpt lat="56.0445635" lon="12.69440983">
        <ele>0</ele>
        <time>1970-01-01T01:00:00Z</time>
        <extensions><gpxtpx:TrackPointExtension><gpxtpx:hr>109</gpxtpx:hr></gpxtpx:TrackPointExtension></extensions>
      </trkpt>
      <trkpt lat="56.0445635" lon="12.69440983">
        <ele>0</ele>
        <time>1970-01-01T01:00:00Z</time>
        <extensions><gpxtpx:TrackPointExtension><gpxtpx:hr>109</gpxtpx:hr></gpxtpx:TrackPointExtension></extensions>
      </trkpt>
      <trkpt lat="56.0445635" lon="12.69440983">
        <ele>0</ele>
        <time>1970-01-01T01:00:00Z</time>
        <extensions><gpxtpx:TrackPointExtension><gpxtpx:hr>109</gpxtpx:hr></gpxtpx:TrackPointExtension></extensions>
      </trkpt>
      <trkpt lat="56.0445635" lon="12.69440983">
        <ele>0</ele>
        <time>1970-01-01T01:00:00Z</time>
        <extensions><gpxtpx:TrackPointExtension><gpxtpx:hr>109</gpxtpx:hr></gpxtpx:TrackPointExtension></extensions>
      </trkpt>
      <trkpt lat="56.0445635" lon="12.69440983">
        <ele>0</ele>
        <time>1970-01-01T01:00:00Z</time>
        <extensions><gpxtpx:TrackPointExtension><gpxtpx:hr>109</gpxtpx:hr></gpxtpx:TrackPointExtension></extensions>
      </trkpt>
      <trkpt lat="56.0445635" lon="12.69440983">
        <ele>0</ele>
        <time>1970-01-01T01:00:00Z</time>
        <extensions><gpxtpx:TrackPointExtension><gpxtpx:hr>110</gpxtpx:hr></gpxtpx:TrackPointExtension></extensions>
      </trkpt>
      <trkpt lat="56.0445635" lon="12.69440983">
        <ele>0</ele>
        <time>1970-01-01T01:00:00Z</time>
        <extensions><gpxtpx:TrackPointExtension><gpxtpx:hr>111</gpxtpx:hr></gpxtpx:TrackPointExtension></extensions>
      </trkpt>
      <trkpt lat="56.0445635" lon="12.69440983">
        <ele>0</ele>
        <time>1970-01-01T01:00:00Z</time>
        <extensions><gpxtpx:TrackPointExtension><gpxtpx:hr>111</gpxtpx:hr></gpxtpx:TrackPointExtension></extensions>
      </trkpt>
      <trkpt lat="56.0445635" lon="12.69440983">
        <ele>0</ele>
        <time>1970-01-01T01:00:00Z</time>
        <extensions><gpxtpx:TrackPointExtension><gpxtpx:hr>111</gpxtpx:hr></gpxtpx:TrackPointExtension></extensions>
      </trkpt>
      <trkpt lat="56.0445635" lon="12.69440983">
        <ele>0</ele>
        <time>1970-01-01T01:00:00Z</time>
        <extensions><gpxtpx:TrackPointExtension><gpxtpx:hr>112</gpxtpx:hr></gpxtpx:TrackPointExtension></extensions>
      </trkpt>
      <trkpt lat="56.0445635" lon="12.69440983">
        <ele>0</ele>
        <time>1970-01-01T01:00:00Z</time>
        <extensions><gpxtpx:TrackPointExtension><gpxtpx:hr>112</gpxtpx:hr></gpxtpx:TrackPointExtension></extensions>
      </trkpt>
      <trkpt lat="56.0445635" lon="12.69440983">
        <ele>0</ele>
        <time>1970-01-01T01:00:00Z</time>
        <extensions><gpxtpx:TrackPointExtension><gpxtpx:hr>112</gpxtpx:hr></gpxtpx:TrackPointExtension></extensions>
      </trkpt>
      <trkpt lat="56.0445635" lon="12.69440983">
        <ele>0</ele>
        <time>1970-01-01T01:00:00Z</time>
        <extensions><gpxtpx:TrackPointExtension><gpxtpx:hr>112</gpxtpx:hr></gpxtpx:TrackPointExtension></extensions>
      </trkpt>
      <trkpt lat="56.0445635" lon="12.69440983">
        <ele>0</ele>
        <time>1970-01-01T01:00:00Z</time>
        <extensions><gpxtpx:TrackPointExtension><gpxtpx:hr>113</gpxtpx:hr></gpxtpx:TrackPointExtension></extensions>
      </trkpt>
      <trkpt lat="56.0445635" lon="12.69440983">
        <ele>0</ele>
        <time>1970-01-01T01:00:00Z</time>
        <extensions><gpxtpx:TrackPointExtension><gpxtpx:hr>113</gpxtpx:hr></gpxtpx:TrackPointExtension></extensions>
      </trkpt>
      <trkpt lat="56.0445635" lon="12.69440983">
        <ele>0</ele>
        <time>1970-01-01T01:00:00Z</time>
        <extensions><gpxtpx:TrackPointExtension><gpxtpx:hr>113</gpxtpx:hr></gpxtpx:TrackPointExtension></extensions>
      </trkpt>
      <trkpt lat="56.0445635" lon="12.69440983">
        <ele>0</ele>
        <time>1970-01-01T01:00:00Z</time>
        <extensions><gpxtpx:TrackPointExtension><gpxtpx:hr>114</gpxtpx:hr></gpxtpx:TrackPointExtension></extensions>
      </trkpt>
      <trkpt lat="56.0445635" lon="12.69440983">
        <ele>0</ele>
        <time>1970-01-01T01:00:00Z</time>
        <extensions><gpxtpx:TrackPointExtension><gpxtpx:hr>114</gpxtpx:hr></gpxtpx:TrackPointExtension></extensions>
      </trkpt>
      <trkpt lat="56.0445635" lon="12.69440983">
        <ele>0</ele>
        <time>1970-01-01T01:00:00Z</time>
        <extensions><gpxtpx:TrackPointExtension><gpxtpx:hr>115</gpxtpx:hr></gpxtpx:TrackPointExtension></extensions>
      </trkpt>
      <trkpt lat="56.0445635" lon="12.69440983">
        <ele>0</ele>
        <time>1970-01-01T01:00:00Z</time>
        <extensions><gpxtpx:TrackPointExtension><gpxtpx:hr>115</gpxtpx:hr></gpxtpx:TrackPointExtension></extensions>
      </trkpt>
      <trkpt lat="56.0445635" lon="12.69440983">
        <ele>0</ele>
        <time>1970-01-01T01:00:00Z</time>
        <extensions><gpxtpx:TrackPointExtension><gpxtpx:hr>115</gpxtpx:hr></gpxtpx:TrackPointExtension></extensions>
      </trkpt>
      <trkpt lat="56.0445635" lon="12.69440983">
        <ele>0</ele>
        <time>1970-01-01T01:00:00Z</time>
        <extensions><gpxtpx:TrackPointExtension><gpxtpx:hr>115</gpxtpx:hr></gpxtpx:TrackPointExtension></extensions>
      </trkpt>
      <trkpt lat="56.0445635" lon="12.69440983">
        <ele>0</ele>
        <time>1970-01-01T01:00:00Z</time>
        <extensions><gpxtpx:TrackPointExtension><gpxtpx:hr>115</gpxtpx:hr></gpxtpx:TrackPointExtension></extensions>
      </trkpt>
      <trkpt lat="56.0445635" lon="12.69440983">
        <ele>0</ele>
        <time>1970-01-01T01:00:00Z</time>
        <extensions><gpxtpx:TrackPointExtension><gpxtpx:hr>115</gpxtpx:hr></gpxtpx:TrackPointExtension></extensions>
      </trkpt>
      <trkpt lat="56.0445635" lon="12.69440983">
        <ele>0</ele>
        <time>1970-01-01T01:00:00Z</time>
        <extensions><gpxtpx:TrackPointExtension><gpxtpx:hr>115</gpxtpx:hr></gpxtpx:TrackPointExtension></extensions>
      </trkpt>
      <trkpt lat="56.0445635" lon="12.69440983">
        <ele>0</ele>
        <time>1970-01-01T01:00:00Z</time>
        <extensions><gpxtpx:TrackPointExtension><gpxtpx:hr>115</gpxtpx:hr></gpxtpx:TrackPointExtension></extensions>
      </trkpt>
      <trkpt lat="56.0445635" lon="12.69440983">
        <ele>0</ele>
        <time>1970-01-01T01:00:00Z</time>
        <extensions><gpxtpx:TrackPointExtension><gpxtpx:hr>115</gpxtpx:hr></gpxtpx:TrackPointExtension></extensions>
      </trkpt>
      <trkpt lat="56.0445635" lon="12.69440983">
        <ele>0</ele>
        <time>1970-01-01T01:00:00Z</time>
        <extensions><gpxtpx:TrackPointExtension><gpxtpx:hr>115</gpxtpx:hr></gpxtpx:TrackPointExtension></extensions>
      </trkpt>
      <trkpt lat="56.0445635" lon="12.69440983">
        <ele>0</ele>
        <time>1970-01-01T01:00:00Z</time>
        <extensions><gpxtpx:TrackPointExtension><gpxtpx:hr>116</gpxtpx:hr></gpxtpx:TrackPointExtension></extensions>
      </trkpt>
      <trkpt lat="56.0445635" lon="12.69440983">
        <ele>0</ele>
        <time>1970-01-01T01:00:00Z</time>
        <extensions><gpxtpx:TrackPointExtension><gpxtpx:hr>116</gpxtpx:hr></gpxtpx:TrackPointExtension></extensions>
      </trkpt>
      <trkpt lat="56.0445635" lon="12.69440983">
        <ele>0</ele>
        <time>1970-01-01T01:00:00Z</time>
        <extensions><gpxtpx:TrackPointExtension><gpxtpx:hr>116</gpxtpx:hr></gpxtpx:TrackPointExtension></extensions>
      </trkpt>
      <trkpt lat="56.0445635" lon="12.69440983">
        <ele>0</ele>
        <time>1970-01-01T01:00:00Z</time>
        <extensions><gpxtpx:TrackPointExtension><gpxtpx:hr>116</gpxtpx:hr></gpxtpx:TrackPointExtension></extensions>
      </trkpt>
      <trkpt lat="56.0445635" lon="12.69440983">
        <ele>0</ele>
        <time>1970-01-01T01:00:00Z</time>
        <extensions><gpxtpx:TrackPointExtension><gpxtpx:hr>116</gpxtpx:hr></gpxtpx:TrackPointExtension></extensions>
      </trkpt>
      <trkpt lat="56.0445635" lon="12.69440983">
        <ele>0</ele>
        <time>1970-01-01T01:00:00Z</time>
        <extensions><gpxtpx:TrackPointExtension><gpxtpx:hr>116</gpxtpx:hr></gpxtpx:TrackPointExtension></extensions>
      </trkpt>
      <trkpt lat="56.0445635" lon="12.69440983">
        <ele>0</ele>
        <time>1970-01-01T01:00:00Z</time>
        <extensions><gpxtpx:TrackPointExtension><gpxtpx:hr>116</gpxtpx:hr></gpxtpx:TrackPointExtension></extensions>
      </trkpt>
      <trkpt lat="56.0445635" lon="12.69440983">
        <ele>0</ele>
        <time>1970-01-01T01:00:00Z</time>
        <extensions><gpxtpx:TrackPointExtension><gpxtpx:hr>115</gpxtpx:hr></gpxtpx:TrackPointExtension></extensions>
      </trkpt>
      <trkpt lat="56.0445635" lon="12.69440983">
        <ele>0</ele>
        <time>1970-01-01T01:00:00Z</time>
        <extensions><gpxtpx:TrackPointExtension><gpxtpx:hr>115</gpxtpx:hr></gpxtpx:TrackPointExtension></extensions>
      </trkpt>
      <trkpt lat="56.0445635" lon="12.69440983">
        <ele>0</ele>
        <time>1970-01-01T01:00:00Z</time>
        <extensions><gpxtpx:TrackPointExtension><gpxtpx:hr>115</gpxtpx:hr></gpxtpx:TrackPointExtension></extensions>
      </trkpt>
      <trkpt lat="56.0445635" lon="12.69440983">
        <ele>0</ele>
        <time>1970-01-01T01:00:00Z</time>
        <extensions><gpxtpx:TrackPointExtension><gpxtpx:hr>115</gpxtpx:hr></gpxtpx:TrackPointExtension></extensions>
      </trkpt>
      <trkpt lat="56.0445635" lon="12.69440983">
        <ele>0</ele>
        <time>1970-01-01T01:00:00Z</time>
        <extensions><gpxtpx:TrackPointExtension><gpxtpx:hr>115</gpxtpx:hr></gpxtpx:TrackPointExtension></extensions>
      </trkpt>
      <trkpt lat="56.0445635" lon="12.69440983">
        <ele>0</ele>
        <time>1970-01-01T01:00:00Z</time>
        <extensions><gpxtpx:TrackPointExtension><gpxtpx:hr>115</gpxtpx:hr></gpxtpx:TrackPointExtension></extensions>
      </trkpt>
      <trkpt lat="56.0445635" lon="12.69440983">
        <ele>0</ele>
        <time>1970-01-01T01:00:00Z</time>
        <extensions><gpxtpx:TrackPointExtension><gpxtpx:hr>115</gpxtpx:hr></gpxtpx:TrackPointExtension></extensions>
      </trkpt>
      <trkpt lat="56.0445635" lon="12.69440983">
        <ele>0</ele>
        <time>1970-01-01T01:00:00Z</time>
        <extensions><gpxtpx:TrackPointExtension><gpxtpx:hr>115</gpxtpx:hr></gpxtpx:TrackPointExtension></extensions>
      </trkpt>
      <trkpt lat="56.0445635" lon="12.69440983">
        <ele>0</ele>
        <time>1970-01-01T01:00:00Z</time>
        <extensions><gpxtpx:TrackPointExtension><gpxtpx:hr>115</gpxtpx:hr></gpxtpx:TrackPointExtension></extensions>
      </trkpt>
      <trkpt lat="56.0445635" lon="12.69440983">
        <ele>0</ele>
        <time>1970-01-01T01:00:00Z</time>
        <extensions><gpxtpx:TrackPointExtension><gpxtpx:hr>115</gpxtpx:hr></gpxtpx:TrackPointExtension></extensions>
      </trkpt>
      <trkpt lat="56.0445635" lon="12.69440983">
        <ele>0</ele>
        <time>1970-01-01T01:00:00Z</time>
        <extensions><gpxtpx:TrackPointExtension><gpxtpx:hr>115</gpxtpx:hr></gpxtpx:TrackPointExtension></extensions>
      </trkpt>
      <trkpt lat="56.0445635" lon="12.69440983">
        <ele>0</ele>
        <time>1970-01-01T01:00:00Z</time>
        <extensions><gpxtpx:TrackPointExtension><gpxtpx:hr>115</gpxtpx:hr></gpxtpx:TrackPointExtension></extensions>
      </trkpt>
      <trkpt lat="56.0445635" lon="12.69440983">
        <ele>0</ele>
        <time>1970-01-01T01:00:00Z</time>
        <extensions><gpxtpx:TrackPointExtension><gpxtpx:hr>115</gpxtpx:hr></gpxtpx:TrackPointExtension></extensions>
      </trkpt>
      <trkpt lat="56.0445635" lon="12.69440983">
        <ele>0</ele>
        <time>1970-01-01T01:00:00Z</time>
        <extensions><gpxtpx:TrackPointExtension><gpxtpx:hr>115</gpxtpx:hr></gpxtpx:TrackPointExtension></extensions>
      </trkpt>
      <trkpt lat="56.0445635" lon="12.69440983">
        <ele>0</ele>
        <time>1970-01-01T01:00:00Z</time>
        <extensions><gpxtpx:TrackPointExtension><gpxtpx:hr>115</gpxtpx:hr></gpxtpx:TrackPointExtension></extensions>
      </trkpt>
      <trkpt lat="56.0445635" lon="12.69440983">
        <ele>0</ele>
        <time>1970-01-01T01:00:00Z</time>
        <extensions><gpxtpx:TrackPointExtension><gpxtpx:hr>115</gpxtpx:hr></gpxtpx:TrackPointExtension></extensions>
      </trkpt>
      <trkpt lat="56.0445635" lon="12.69440983">
        <ele>0</ele>
        <time>1970-01-01T01:00:00Z</time>
        <extensions><gpxtpx:TrackPointExtension><gpxtpx:hr>114</gpxtpx:hr></gpxtpx:TrackPointExtension></extensions>
      </trkpt>
      <trkpt lat="56.0445635" lon="12.69440983">
        <ele>0</ele>
        <time>1970-01-01T01:00:00Z</time>
        <extensions><gpxtpx:TrackPointExtension><gpxtpx:hr>114</gpxtpx:hr></gpxtpx:TrackPointExtension></extensions>
      </trkpt>
      <trkpt lat="56.0445635" lon="12.69440983">
        <ele>0</ele>
        <time>1970-01-01T01:00:00Z</time>
        <extensions><gpxtpx:TrackPointExtension><gpxtpx:hr>114</gpxtpx:hr></gpxtpx:TrackPointExtension></extensions>
      </trkpt>
      <trkpt lat="56.0445635" lon="12.69440983">
        <ele>0</ele>
        <time>1970-01-01T01:00:00Z</time>
        <extensions><gpxtpx:TrackPointExtension><gpxtpx:hr>114</gpxtpx:hr></gpxtpx:TrackPointExtension></extensions>
      </trkpt>
      <trkpt lat="56.0445635" lon="12.69440983">
        <ele>0</ele>
        <time>1970-01-01T01:00:00Z</time>
        <extensions><gpxtpx:TrackPointExtension><gpxtpx:hr>113</gpxtpx:hr></gpxtpx:TrackPointExtension></extensions>
      </trkpt>
      <trkpt lat="56.0445635" lon="12.69440983">
        <ele>0</ele>
        <time>1970-01-01T01:00:00Z</time>
        <extensions><gpxtpx:TrackPointExtension><gpxtpx:hr>113</gpxtpx:hr></gpxtpx:TrackPointExtension></extensions>
      </trkpt>
      <trkpt lat="56.0445635" lon="12.69440983">
        <ele>0</ele>
        <time>1970-01-01T01:00:00Z</time>
        <extensions><gpxtpx:TrackPointExtension><gpxtpx:hr>113</gpxtpx:hr></gpxtpx:TrackPointExtension></extensions>
      </trkpt>
      <trkpt lat="56.0445635" lon="12.69440983">
        <ele>0</ele>
        <time>1970-01-01T01:00:00Z</time>
        <extensions><gpxtpx:TrackPointExtension><gpxtpx:hr>112</gpxtpx:hr></gpxtpx:TrackPointExtension></extensions>
      </trkpt>
      <trkpt lat="56.0445635" lon="12.69440983">
        <ele>0</ele>
        <time>1970-01-01T01:00:00Z</time>
        <extensions><gpxtpx:TrackPointExtension><gpxtpx:hr>111</gpxtpx:hr></gpxtpx:TrackPointExtension></extensions>
      </trkpt>
      <trkpt lat="56.0445635" lon="12.69440983">
        <ele>0</ele>
        <time>1970-01-01T01:00:00Z</time>
        <extensions><gpxtpx:TrackPointExtension><gpxtpx:hr>111</gpxtpx:hr></gpxtpx:TrackPointExtension></extensions>
      </trkpt>
      <trkpt lat="56.0445635" lon="12.69440983">
        <ele>0</ele>
        <time>1970-01-01T01:00:00Z</time>
        <extensions><gpxtpx:TrackPointExtension><gpxtpx:hr>110</gpxtpx:hr></gpxtpx:TrackPointExtension></extensions>
      </trkpt>
      <trkpt lat="56.0445635" lon="12.69440983">
        <ele>0</ele>
        <time>1970-01-01T01:00:00Z</time>
        <extensions><gpxtpx:TrackPointExtension><gpxtpx:hr>110</gpxtpx:hr></gpxtpx:TrackPointExtension></extensions>
      </trkpt>
      <trkpt lat="56.0445635" lon="12.69440983">
        <ele>0</ele>
        <time>1970-01-01T01:00:00Z</time>
        <extensions><gpxtpx:TrackPointExtension><gpxtpx:hr>107</gpxtpx:hr></gpxtpx:TrackPointExtension></extensions>
      </trkpt>
      <trkpt lat="56.0445635" lon="12.69440983">
        <ele>0</ele>
        <time>1970-01-01T01:00:00Z</time>
        <extensions><gpxtpx:TrackPointExtension><gpxtpx:hr>104</gpxtpx:hr></gpxtpx:TrackPointExtension></extensions>
      </trkpt>
      <trkpt lat="56.0445635" lon="12.69440983">
        <ele>0</ele>
        <time>1970-01-01T01:00:00Z</time>
        <extensions><gpxtpx:TrackPointExtension><gpxtpx:hr>103</gpxtpx:hr></gpxtpx:TrackPointExtension></extensions>
      </trkpt>
      <trkpt lat="56.0445635" lon="12.69440983">
        <ele>0</ele>
        <time>1970-01-01T01:00:00Z</time>
        <extensions><gpxtpx:TrackPointExtension><gpxtpx:hr>102</gpxtpx:hr></gpxtpx:TrackPointExtension></extensions>
      </trkpt>
      <trkpt lat="56.0445635" lon="12.69440983">
        <ele>0</ele>
        <time>1970-01-01T01:00:00Z</time>
        <extensions><gpxtpx:TrackPointExtension><gpxtpx:hr>102</gpxtpx:hr></gpxtpx:TrackPointExtension></extensions>
      </trkpt>
      <trkpt lat="56.0445635" lon="12.69440983">
        <ele>0</ele>
        <time>1970-01-01T01:00:00Z</time>
        <extensions><gpxtpx:TrackPointExtension><gpxtpx:hr>101</gpxtpx:hr></gpxtpx:TrackPointExtension></extensions>
      </trkpt>
      <trkpt lat="56.0445635" lon="12.69440983">
        <ele>0</ele>
        <time>1970-01-01T01:00:00Z</time>
        <extensions><gpxtpx:TrackPointExtension><gpxtpx:hr>100</gpxtpx:hr></gpxtpx:TrackPointExtension></extensions>
      </trkpt>
      <trkpt lat="56.0445635" lon="12.69440983">
        <ele>0</ele>
        <time>1970-01-01T01:00:00Z</time>
        <extensions><gpxtpx:TrackPointExtension><gpxtpx:hr>101</gpxtpx:hr></gpxtpx:TrackPointExtension></extensions>
      </trkpt>
      <trkpt lat="56.0445635" lon="12.69440983">
        <ele>0</ele>
        <time>1970-01-01T01:00:00Z</time>
        <extensions><gpxtpx:TrackPointExtension><gpxtpx:hr>101</gpxtpx:hr></gpxtpx:TrackPointExtension></extensions>
      </trkpt>
      <trkpt lat="56.0445635" lon="12.69440983">
        <ele>0</ele>
        <time>1970-01-01T01:00:00Z</time>
        <extensions><gpxtpx:TrackPointExtension><gpxtpx:hr>100</gpxtpx:hr></gpxtpx:TrackPointExtension></extensions>
      </trkpt>
      <trkpt lat="56.0445635" lon="12.69440983">
        <ele>0</ele>
        <time>1970-01-01T01:00:00Z</time>
        <extensions><gpxtpx:TrackPointExtension><gpxtpx:hr>100</gpxtpx:hr></gpxtpx:TrackPointExtension></extensions>
      </trkpt>
      <trkpt lat="56.0445635" lon="12.69440983">
        <ele>0</ele>
        <time>1970-01-01T01:00:00Z</time>
        <extensions><gpxtpx:TrackPointExtension><gpxtpx:hr>100</gpxtpx:hr></gpxtpx:TrackPointExtension></extensions>
      </trkpt>
      <trkpt lat="56.0445635" lon="12.69440983">
        <ele>0</ele>
        <time>1970-01-01T01:00:00Z</time>
        <extensions><gpxtpx:TrackPointExtension><gpxtpx:hr>100</gpxtpx:hr></gpxtpx:TrackPointExtension></extensions>
      </trkpt>
      <trkpt lat="56.0445635" lon="12.69440983">
        <ele>0</ele>
        <time>1970-01-01T01:00:00Z</time>
        <extensions><gpxtpx:TrackPointExtension><gpxtpx:hr>100</gpxtpx:hr></gpxtpx:TrackPointExtension></extensions>
      </trkpt>
      <trkpt lat="56.0445635" lon="12.69440983">
        <ele>0</ele>
        <time>1970-01-01T01:00:00Z</time>
        <extensions><gpxtpx:TrackPointExtension><gpxtpx:hr>100</gpxtpx:hr></gpxtpx:TrackPointExtension></extensions>
      </trkpt>
      <trkpt lat="56.0445635" lon="12.69440983">
        <ele>0</ele>
        <time>1970-01-01T01:00:00Z</time>
        <extensions><gpxtpx:TrackPointExtension><gpxtpx:hr>100</gpxtpx:hr></gpxtpx:TrackPointExtension></extensions>
      </trkpt>
      <trkpt lat="56.043729" lon="12.6941465">
        <ele>0</ele>
        <time>1970-01-01T01:00:00Z</time>
        <extensions><gpxtpx:TrackPointExtension><gpxtpx:hr>100</gpxtpx:hr></gpxtpx:TrackPointExtension></extensions>
      </trkpt>
      <trkpt lat="56.043729" lon="12.6941465">
        <ele>0</ele>
        <time>1970-01-01T01:00:00Z</time>
        <extensions><gpxtpx:TrackPointExtension><gpxtpx:hr>100</gpxtpx:hr></gpxtpx:TrackPointExtension></extensions>
      </trkpt>
      <trkpt lat="56.04370983" lon="12.69415083">
        <ele>0</ele>
        <time>1970-01-01T01:00:00Z</time>
        <extensions><gpxtpx:TrackPointExtension><gpxtpx:hr>100</gpxtpx:hr></gpxtpx:TrackPointExtension></extensions>
      </trkpt>
      <trkpt lat="56.04370983" lon="12.69415083">
        <ele>0</ele>
        <time>1970-01-01T01:00:00Z</time>
        <extensions><gpxtpx:TrackPointExtension><gpxtpx:hr>100</gpxtpx:hr></gpxtpx:TrackPointExtension></extensions>
      </trkpt>
      <trkpt lat="56.04368867" lon="12.69416617">
        <ele>0</ele>
        <time>1970-01-01T01:00:00Z</time>
        <extensions><gpxtpx:TrackPointExtension><gpxtpx:hr>100</gpxtpx:hr></gpxtpx:TrackPointExtension></extensions>
      </trkpt>
      <trkpt lat="56.04368867" lon="12.69416617">
        <ele>0</ele>
        <time>1970-01-01T01:00:00Z</time>
        <extensions><gpxtpx:TrackPointExtension><gpxtpx:hr>100</gpxtpx:hr></gpxtpx:TrackPointExtension></extensions>
      </trkpt>
      <trkpt lat="56.04370017" lon="12.694134">
        <ele>0</ele>
        <time>1970-01-01T01:00:00Z</time>
        <extensions><gpxtpx:TrackPointExtension><gpxtpx:hr>100</gpxtpx:hr></gpxtpx:TrackPointExtension></extensions>
      </trkpt>
      <trkpt lat="56.04370017" lon="12.694134">
        <ele>0</ele>
        <time>1970-01-01T01:00:00Z</time>
        <extensions><gpxtpx:TrackPointExtension><gpxtpx:hr>100</gpxtpx:hr></gpxtpx:TrackPointExtension></extensions>
      </trkpt>
      <trkpt lat="56.04370017" lon="12.694134">
        <ele>0</ele>
        <time>1970-01-01T01:00:00Z</time>
        <extensions><gpxtpx:TrackPointExtension><gpxtpx:hr>100</gpxtpx:hr></gpxtpx:TrackPointExtension></extensions>
      </trkpt>
      <trkpt lat="56.04370017" lon="12.694134">
        <ele>0</ele>
        <time>1970-01-01T01:00:00Z</time>
        <extensions><gpxtpx:TrackPointExtension><gpxtpx:hr>100</gpxtpx:hr></gpxtpx:TrackPointExtension></extensions>
      </trkpt>
      <trkpt lat="56.04370017" lon="12.694134">
        <ele>0</ele>
        <time>1970-01-01T01:00:00Z</time>
        <extensions><gpxtpx:TrackPointExtension><gpxtpx:hr>100</gpxtpx:hr></gpxtpx:TrackPointExtension></extensions>
      </trkpt>
      <trkpt lat="56.04370017" lon="12.694134">
        <ele>0</ele>
        <time>1970-01-01T01:00:00Z</time>
        <extensions><gpxtpx:TrackPointExtension><gpxtpx:hr>99</gpxtpx:hr></gpxtpx:TrackPointExtension></extensions>
      </trkpt>
      <trkpt lat="56.04370017" lon="12.694134">
        <ele>0</ele>
        <time>1970-01-01T01:00:00Z</time>
        <extensions><gpxtpx:TrackPointExtension><gpxtpx:hr>99</gpxtpx:hr></gpxtpx:TrackPointExtension></extensions>
      </trkpt>
      <trkpt lat="56.04368683" lon="12.69416683">
        <ele>0</ele>
        <time>1970-01-01T01:00:00Z</time>
        <extensions><gpxtpx:TrackPointExtension><gpxtpx:hr>100</gpxtpx:hr></gpxtpx:TrackPointExtension></extensions>
      </trkpt>
      <trkpt lat="56.04368683" lon="12.69416683">
        <ele>0</ele>
        <time>1970-01-01T01:00:00Z</time>
        <extensions><gpxtpx:TrackPointExtension><gpxtpx:hr>100</gpxtpx:hr></gpxtpx:TrackPointExtension></extensions>
      </trkpt>
      <trkpt lat="56.04368683" lon="12.69416683">
        <ele>0</ele>
        <time>1970-01-01T01:00:00Z</time>
        <extensions><gpxtpx:TrackPointExtension><gpxtpx:hr>100</gpxtpx:hr></gpxtpx:TrackPointExtension></extensions>
      </trkpt>
      <trkpt lat="56.04366317" lon="12.69420117">
        <ele>0</ele>
        <time>1970-01-01T01:00:00Z</time>
        <extensions><gpxtpx:TrackPointExtension><gpxtpx:hr>100</gpxtpx:hr></gpxtpx:TrackPointExtension></extensions>
      </trkpt>
      <trkpt lat="56.04366317" lon="12.69420117">
        <ele>0</ele>
        <time>1970-01-01T01:00:00Z</time>
        <extensions><gpxtpx:TrackPointExtension><gpxtpx:hr>101</gpxtpx:hr></gpxtpx:TrackPointExtension></extensions>
      </trkpt>
      <trkpt lat="56.0436485" lon="12.69422533">
        <ele>0</ele>
        <time>1970-01-01T01:00:00Z</time>
        <extensions><gpxtpx:TrackPointExtension><gpxtpx:hr>101</gpxtpx:hr></gpxtpx:TrackPointExtension></extensions>
      </trkpt>
      <trkpt lat="56.0436485" lon="12.69422533">
        <ele>0</ele>
        <time>1970-01-01T01:00:00Z</time>
        <extensions><gpxtpx:TrackPointExtension><gpxtpx:hr>101</gpxtpx:hr></gpxtpx:TrackPointExtension></extensions>
      </trkpt>
      <trkpt lat="56.0436485" lon="12.69422533">
        <ele>0</ele>
        <time>1970-01-01T01:00:00Z</time>
        <extensions><gpxtpx:TrackPointExtension><gpxtpx:hr>101</gpxtpx:hr></gpxtpx:TrackPointExtension></extensions>
      </trkpt>
      <trkpt lat="56.043628" lon="12.69426083">
        <ele>0</ele>
        <time>1970-01-01T01:00:00Z</time>
        <extensions><gpxtpx:TrackPointExtension><gpxtpx:hr>102</gpxtpx:hr></gpxtpx:TrackPointExtension></extensions>
      </trkpt>
      <trkpt lat="56.043628" lon="12.69426083">
        <ele>0</ele>
        <time>1970-01-01T01:00:00Z</time>
        <extensions><gpxtpx:TrackPointExtension><gpxtpx:hr>102</gpxtpx:hr></gpxtpx:TrackPointExtension></extensions>
      </trkpt>
      <trkpt lat="56.04361017" lon="12.6942885">
        <ele>0</ele>
        <time>1970-01-01T01:00:00Z</time>
        <extensions><gpxtpx:TrackPointExtension><gpxtpx:hr>102</gpxtpx:hr></gpxtpx:TrackPointExtension></extensions>
      </trkpt>
      <trkpt lat="56.04361017" lon="12.6942885">
        <ele>0</ele>
        <time>1970-01-01T01:00:00Z</time>
        <extensions><gpxtpx:TrackPointExtension><gpxtpx:hr>102</gpxtpx:hr></gpxtpx:TrackPointExtension></extensions>
      </trkpt>
      <trkpt lat="56.043589" lon="12.69431533">
        <ele>0</ele>
        <time>1970-01-01T01:00:00Z</time>
        <extensions><gpxtpx:TrackPointExtension><gpxtpx:hr>102</gpxtpx:hr></gpxtpx:TrackPointExtension></extensions>
      </trkpt>
      <trkpt lat="56.043589" lon="12.69431533">
        <ele>0</ele>
        <time>1970-01-01T01:00:00Z</time>
        <extensions><gpxtpx:TrackPointExtension><gpxtpx:hr>102</gpxtpx:hr></gpxtpx:TrackPointExtension></extensions>
      </trkpt>
      <trkpt lat="56.0435655" lon="12.69435583">
        <ele>0</ele>
        <time>1970-01-01T01:00:00Z</time>
        <extensions><gpxtpx:TrackPointExtension><gpxtpx:hr>102</gpxtpx:hr></gpxtpx:TrackPointExtension></extensions>
      </trkpt>
      <trkpt lat="56.0435655" lon="12.69435583">
        <ele>0</ele>
        <time>1970-01-01T01:00:00Z</time>
        <extensions><gpxtpx:TrackPointExtension><gpxtpx:hr>102</gpxtpx:hr></gpxtpx:TrackPointExtension></extensions>
      </trkpt>
      <trkpt lat="56.043547" lon="12.69439267">
        <ele>0</ele>
        <time>1970-01-01T01:00:00Z</time>
        <extensions><gpxtpx:TrackPointExtension><gpxtpx:hr>102</gpxtpx:hr></gpxtpx:TrackPointExtension></extensions>
      </trkpt>
      <trkpt lat="56.043547" lon="12.69439267">
        <ele>0</ele>
        <time>1970-01-01T01:00:00Z</time>
        <extensions><gpxtpx:TrackPointExtension><gpxtpx:hr>103</gpxtpx:hr></gpxtpx:TrackPointExtension></extensions>
      </trkpt>
      <trkpt lat="56.04353167" lon="12.69442483">
        <ele>0</ele>
        <time>1970-01-01T01:00:00Z</time>
        <extensions><gpxtpx:TrackPointExtension><gpxtpx:hr>103</gpxtpx:hr></gpxtpx:TrackPointExtension></extensions>
      </trkpt>
      <trkpt lat="56.04353167" lon="12.69442483">
        <ele>0</ele>
        <time>1970-01-01T01:00:00Z</time>
        <extensions><gpxtpx:TrackPointExtension><gpxtpx:hr>103</gpxtpx:hr></gpxtpx:TrackPointExtension></extensions>
      </trkpt>
      <trkpt lat="56.04353167" lon="12.69442483">
        <ele>0</ele>
        <time>1970-01-01T01:00:00Z</time>
        <extensions><gpxtpx:TrackPointExtension><gpxtpx:hr>103</gpxtpx:hr></gpxtpx:TrackPointExtension></extensions>
      </trkpt>
      <trkpt lat="56.043513" lon="12.69445733">
        <ele>0</ele>
        <time>1970-01-01T01:00:00Z</time>
        <extensions><gpxtpx:TrackPointExtension><gpxtpx:hr>103</gpxtpx:hr></gpxtpx:TrackPointExtension></extensions>
      </trkpt>
      <trkpt lat="56.0434925" lon="12.69450267">
        <ele>0</ele>
        <time>1970-01-01T01:00:00Z</time>
        <extensions><gpxtpx:TrackPointExtension><gpxtpx:hr>103</gpxtpx:hr></gpxtpx:TrackPointExtension></extensions>
      </trkpt>
      <trkpt lat="56.0434925" lon="12.69450267">
        <ele>0</ele>
        <time>1970-01-01T01:00:00Z</time>
        <extensions><gpxtpx:TrackPointExtension><gpxtpx:hr>103</gpxtpx:hr></gpxtpx:TrackPointExtension></extensions>
      </trkpt>
      <trkpt lat="56.04346983" lon="12.69453433">
        <ele>0</ele>
        <time>1970-01-01T01:00:00Z</time>
        <extensions><gpxtpx:TrackPointExtension><gpxtpx:hr>103</gpxtpx:hr></gpxtpx:TrackPointExtension></extensions>
      </trkpt>
      <trkpt lat="56.04346983" lon="12.69453433">
        <ele>0</ele>
        <time>1970-01-01T01:00:00Z</time>
        <extensions><gpxtpx:TrackPointExtension><gpxtpx:hr>103</gpxtpx:hr></gpxtpx:TrackPointExtension></extensions>
      </trkpt>
      <trkpt lat="56.0434505" lon="12.694563">
        <ele>0</ele>
        <time>1970-01-01T01:00:00Z</time>
        <extensions><gpxtpx:TrackPointExtension><gpxtpx:hr>103</gpxtpx:hr></gpxtpx:TrackPointExtension></extensions>
      </trkpt>
      <trkpt lat="56.0434505" lon="12.694563">
        <ele>0</ele>
        <time>1970-01-01T01:00:00Z</time>
        <extensions><gpxtpx:TrackPointExtension><gpxtpx:hr>104</gpxtpx:hr></gpxtpx:TrackPointExtension></extensions>
      </trkpt>
      <trkpt lat="56.04343317" lon="12.69458517">
        <ele>0</ele>
        <time>1970-01-01T01:00:00Z</time>
        <extensions><gpxtpx:TrackPointExtension><gpxtpx:hr>104</gpxtpx:hr></gpxtpx:TrackPointExtension></extensions>
      </trkpt>
      <trkpt lat="56.04343317" lon="12.69458517">
        <ele>0</ele>
        <time>1970-01-01T01:00:00Z</time>
        <extensions><gpxtpx:TrackPointExtension><gpxtpx:hr>105</gpxtpx:hr></gpxtpx:TrackPointExtension></extensions>
      </trkpt>
      <trkpt lat="56.04341483" lon="12.6945905">
        <ele>0</ele>
        <time>1970-01-01T01:00:00Z</time>
        <extensions><gpxtpx:TrackPointExtension><gpxtpx:hr>105</gpxtpx:hr></gpxtpx:TrackPointExtension></extensions>
      </trkpt>
      <trkpt lat="56.04341483" lon="12.6945905">
        <ele>0</ele>
        <time>1970-01-01T01:00:00Z</time>
        <extensions><gpxtpx:TrackPointExtension><gpxtpx:hr>104</gpxtpx:hr></gpxtpx:TrackPointExtension></extensions>
      </trkpt>
      <trkpt lat="56.04339767" lon="12.694611">
        <ele>0</ele>
        <time>1970-01-01T01:00:00Z</time>
        <extensions><gpxtpx:TrackPointExtension><gpxtpx:hr>105</gpxtpx:hr></gpxtpx:TrackPointExtension></extensions>
      </trkpt>
      <trkpt lat="56.04339767" lon="12.694611">
        <ele>0</ele>
        <time>1970-01-01T01:00:00Z</time>
        <extensions><gpxtpx:TrackPointExtension><gpxtpx:hr>104</gpxtpx:hr></gpxtpx:TrackPointExtension></extensions>
      </trkpt>
      <trkpt lat="56.04338133" lon="12.6946275">
        <ele>0</ele>
        <time>1970-01-01T01:00:00Z</time>
        <extensions><gpxtpx:TrackPointExtension><gpxtpx:hr>104</gpxtpx:hr></gpxtpx:TrackPointExtension></extensions>
      </trkpt>
      <trkpt lat="56.04338133" lon="12.6946275">
        <ele>0</ele>
        <time>1970-01-01T01:00:00Z</time>
        <extensions><gpxtpx:TrackPointExtension><gpxtpx:hr>104</gpxtpx:hr></gpxtpx:TrackPointExtension></extensions>
      </trkpt>
      <trkpt lat="56.04338133" lon="12.6946275">
        <ele>0</ele>
        <time>1970-01-01T01:00:00Z</time>
        <extensions><gpxtpx:TrackPointExtension><gpxtpx:hr>104</gpxtpx:hr></gpxtpx:TrackPointExtension></extensions>
      </trkpt>
      <trkpt lat="56.04335483" lon="12.6946585">
        <ele>0</ele>
        <time>1970-01-01T01:00:00Z</time>
        <extensions><gpxtpx:TrackPointExtension><gpxtpx:hr>104</gpxtpx:hr></gpxtpx:TrackPointExtension></extensions>
      </trkpt>
      <trkpt lat="56.0433415" lon="12.69470367">
        <ele>0</ele>
        <time>1970-01-01T01:00:00Z</time>
        <extensions><gpxtpx:TrackPointExtension><gpxtpx:hr>104</gpxtpx:hr></gpxtpx:TrackPointExtension></extensions>
      </trkpt>
      <trkpt lat="56.0433415" lon="12.69470367">
        <ele>0</ele>
        <time>1970-01-01T01:00:00Z</time>
        <extensions><gpxtpx:TrackPointExtension><gpxtpx:hr>104</gpxtpx:hr></gpxtpx:TrackPointExtension></extensions>
      </trkpt>
      <trkpt lat="56.04332767" lon="12.69474333">
        <ele>0</ele>
        <time>1970-01-01T01:00:00Z</time>
        <extensions><gpxtpx:TrackPointExtension><gpxtpx:hr>105</gpxtpx:hr></gpxtpx:TrackPointExtension></extensions>
      </trkpt>
      <trkpt lat="56.04332767" lon="12.69474333">
        <ele>0</ele>
        <time>1970-01-01T01:00:00Z</time>
        <extensions><gpxtpx:TrackPointExtension><gpxtpx:hr>105</gpxtpx:hr></gpxtpx:TrackPointExtension></extensions>
      </trkpt>
      <trkpt lat="56.04331017" lon="12.69477783">
        <ele>0</ele>
        <time>1970-01-01T01:00:00Z</time>
        <extensions><gpxtpx:TrackPointExtension><gpxtpx:hr>105</gpxtpx:hr></gpxtpx:TrackPointExtension></extensions>
      </trkpt>
      <trkpt lat="56.04331017" lon="12.69477783">
        <ele>0</ele>
        <time>1970-01-01T01:00:00Z</time>
        <extensions><gpxtpx:TrackPointExtension><gpxtpx:hr>105</gpxtpx:hr></gpxtpx:TrackPointExtension></extensions>
      </trkpt>
      <trkpt lat="56.04331017" lon="12.69477783">
        <ele>0</ele>
        <time>1970-01-01T01:00:00Z</time>
        <extensions><gpxtpx:TrackPointExtension><gpxtpx:hr>105</gpxtpx:hr></gpxtpx:TrackPointExtension></extensions>
      </trkpt>
      <trkpt lat="56.0432885" lon="12.6948165">
        <ele>0</ele>
        <time>1970-01-01T01:00:00Z</time>
        <extensions><gpxtpx:TrackPointExtension><gpxtpx:hr>105</gpxtpx:hr></gpxtpx:TrackPointExtension></extensions>
      </trkpt>
      <trkpt lat="56.04325883" lon="12.69483867">
        <ele>0</ele>
        <time>1970-01-01T01:00:00Z</time>
        <extensions><gpxtpx:TrackPointExtension><gpxtpx:hr>105</gpxtpx:hr></gpxtpx:TrackPointExtension></extensions>
      </trkpt>
      <trkpt lat="56.04325883" lon="12.69483867">
        <ele>0</ele>
        <time>1970-01-01T01:00:00Z</time>
        <extensions><gpxtpx:TrackPointExtension><gpxtpx:hr>105</gpxtpx:hr></gpxtpx:TrackPointExtension></extensions>
      </trkpt>
      <trkpt lat="56.043236" lon="12.6948655">
        <ele>0</ele>
        <time>1970-01-01T01:00:00Z</time>
        <extensions><gpxtpx:TrackPointExtension><gpxtpx:hr>105</gpxtpx:hr></gpxtpx:TrackPointExtension></extensions>
      </trkpt>
      <trkpt lat="56.043236" lon="12.6948655">
        <ele>0</ele>
        <time>1970-01-01T01:00:00Z</time>
        <extensions><gpxtpx:TrackPointExtension><gpxtpx:hr>105</gpxtpx:hr></gpxtpx:TrackPointExtension></extensions>
      </trkpt>
      <trkpt lat="56.043214" lon="12.69490583">
        <ele>0</ele>
        <time>1970-01-01T01:00:00Z</time>
        <extensions><gpxtpx:TrackPointExtension><gpxtpx:hr>105</gpxtpx:hr></gpxtpx:TrackPointExtension></extensions>
      </trkpt>
      <trkpt lat="56.043214" lon="12.69490583">
        <ele>0</ele>
        <time>1970-01-01T01:00:00Z</time>
        <extensions><gpxtpx:TrackPointExtension><gpxtpx:hr>105</gpxtpx:hr></gpxtpx:TrackPointExtension></extensions>
      </trkpt>
      <trkpt lat="56.043214" lon="12.69490583">
        <ele>0</ele>
        <time>1970-01-01T01:00:00Z</time>
        <extensions><gpxtpx:TrackPointExtension><gpxtpx:hr>105</gpxtpx:hr></gpxtpx:TrackPointExtension></extensions>
      </trkpt>
      <trkpt lat="56.0431995" lon="12.6949435">
        <ele>0</ele>
        <time>1970-01-01T01:00:00Z</time>
        <extensions><gpxtpx:TrackPointExtension><gpxtpx:hr>105</gpxtpx:hr></gpxtpx:TrackPointExtension></extensions>
      </trkpt>
      <trkpt lat="56.04319717" lon="12.69498017">
        <ele>0</ele>
        <time>1970-01-01T01:00:00Z</time>
        <extensions><gpxtpx:TrackPointExtension><gpxtpx:hr>105</gpxtpx:hr></gpxtpx:TrackPointExtension></extensions>
      </trkpt>
      <trkpt lat="56.04319717" lon="12.69498017">
        <ele>0</ele>
        <time>1970-01-01T01:00:00Z</time>
        <extensions><gpxtpx:TrackPointExtension><gpxtpx:hr>105</gpxtpx:hr></gpxtpx:TrackPointExtension></extensions>
      </trkpt>
      <trkpt lat="56.0432035" lon="12.69501267">
        <ele>0</ele>
        <time>1970-01-01T01:00:00Z</time>
        <extensions><gpxtpx:TrackPointExtension><gpxtpx:hr>105</gpxtpx:hr></gpxtpx:TrackPointExtension></extensions>
      </trkpt>
      <trkpt lat="56.0432035" lon="12.69501267">
        <ele>0</ele>
        <time>1970-01-01T01:00:00Z</time>
        <extensions><gpxtpx:TrackPointExtension><gpxtpx:hr>105</gpxtpx:hr></gpxtpx:TrackPointExtension></extensions>
      </trkpt>
      <trkpt lat="56.0432035" lon="12.69501267">
        <ele>0</ele>
        <time>1970-01-01T01:00:00Z</time>
        <extensions><gpxtpx:TrackPointExtension><gpxtpx:hr>105</gpxtpx:hr></gpxtpx:TrackPointExtension></extensions>
      </trkpt>
      <trkpt lat="56.0432185" lon="12.69504633">
        <ele>0</ele>
        <time>1970-01-01T01:00:00Z</time>
        <extensions><gpxtpx:TrackPointExtension><gpxtpx:hr>105</gpxtpx:hr></gpxtpx:TrackPointExtension></extensions>
      </trkpt>
      <trkpt lat="56.0432185" lon="12.69504633">
        <ele>0</ele>
        <time>1970-01-01T01:00:00Z</time>
        <extensions><gpxtpx:TrackPointExtension><gpxtpx:hr>105</gpxtpx:hr></gpxtpx:TrackPointExtension></extensions>
      </trkpt>
      <trkpt lat="56.0432185" lon="12.69504633">
        <ele>0</ele>
        <time>1970-01-01T01:00:00Z</time>
        <extensions><gpxtpx:TrackPointExtension><gpxtpx:hr>105</gpxtpx:hr></gpxtpx:TrackPointExtension></extensions>
      </trkpt>
      <trkpt lat="56.0432185" lon="12.69504633">
        <ele>0</ele>
        <time>1970-01-01T01:00:00Z</time>
        <extensions><gpxtpx:TrackPointExtension><gpxtpx:hr>104</gpxtpx:hr></gpxtpx:TrackPointExtension></extensions>
      </trkpt>
      <trkpt lat="56.04323533" lon="12.695077">
        <ele>0</ele>
        <time>1970-01-01T01:00:00Z</time>
        <extensions><gpxtpx:TrackPointExtension><gpxtpx:hr>104</gpxtpx:hr></gpxtpx:TrackPointExtension></extensions>
      </trkpt>
      <trkpt lat="56.043249" lon="12.695098">
        <ele>0</ele>
        <time>1970-01-01T01:00:00Z</time>
        <extensions><gpxtpx:TrackPointExtension><gpxtpx:hr>104</gpxtpx:hr></gpxtpx:TrackPointExtension></extensions>
      </trkpt>
      <trkpt lat="56.043249" lon="12.695098">
        <ele>0</ele>
        <time>1970-01-01T01:00:00Z</time>
        <extensions><gpxtpx:TrackPointExtension><gpxtpx:hr>104</gpxtpx:hr></gpxtpx:TrackPointExtension></extensions>
      </trkpt>
      <trkpt lat="56.043249" lon="12.695098">
        <ele>0</ele>
        <time>1970-01-01T01:00:00Z</time>
        <extensions><gpxtpx:TrackPointExtension><gpxtpx:hr>104</gpxtpx:hr></gpxtpx:TrackPointExtension></extensions>
      </trkpt>
      <trkpt lat="56.04326217" lon="12.69512617">
        <ele>0</ele>
        <time>1970-01-01T01:00:00Z</time>
        <extensions><gpxtpx:TrackPointExtension><gpxtpx:hr>104</gpxtpx:hr></gpxtpx:TrackPointExtension></extensions>
      </trkpt>
      <trkpt lat="56.04326217" lon="12.69512617">
        <ele>0</ele>
        <time>1970-01-01T01:00:00Z</time>
        <extensions><gpxtpx:TrackPointExtension><gpxtpx:hr>104</gpxtpx:hr></gpxtpx:TrackPointExtension></extensions>
      </trkpt>
      <trkpt lat="56.043271" lon="12.695154">
        <ele>0</ele>
        <time>1970-01-01T01:00:00Z</time>
        <extensions><gpxtpx:TrackPointExtension><gpxtpx:hr>104</gpxtpx:hr></gpxtpx:TrackPointExtension></extensions>
      </trkpt>
      <trkpt lat="56.043271" lon="12.695154">
        <ele>0</ele>
        <time>1970-01-01T01:00:00Z</time>
        <extensions><gpxtpx:TrackPointExtension><gpxtpx:hr>104</gpxtpx:hr></gpxtpx:TrackPointExtension></extensions>
      </trkpt>
      <trkpt lat="56.043271" lon="12.695154">
        <ele>0</ele>
        <time>1970-01-01T01:00:00Z</time>
        <extensions><gpxtpx:TrackPointExtension><gpxtpx:hr>104</gpxtpx:hr></gpxtpx:TrackPointExtension></extensions>
      </trkpt>
      <trkpt lat="56.043271" lon="12.695154">
        <ele>0</ele>
        <time>1970-01-01T01:00:00Z</time>
        <extensions><gpxtpx:TrackPointExtension><gpxtpx:hr>104</gpxtpx:hr></gpxtpx:TrackPointExtension></extensions>
      </trkpt>
      <trkpt lat="56.0432565" lon="12.69517517">
        <ele>0</ele>
        <time>1970-01-01T01:00:00Z</time>
        <extensions><gpxtpx:TrackPointExtension><gpxtpx:hr>104</gpxtpx:hr></gpxtpx:TrackPointExtension></extensions>
      </trkpt>
      <trkpt lat="56.0432565" lon="12.69517517">
        <ele>0</ele>
        <time>1970-01-01T01:00:00Z</time>
        <extensions><gpxtpx:TrackPointExtension><gpxtpx:hr>104</gpxtpx:hr></gpxtpx:TrackPointExtension></extensions>
      </trkpt>
      <trkpt lat="56.0432565" lon="12.69517517">
        <ele>0</ele>
        <time>1970-01-01T01:00:00Z</time>
        <extensions><gpxtpx:TrackPointExtension><gpxtpx:hr>104</gpxtpx:hr></gpxtpx:TrackPointExtension></extensions>
      </trkpt>
      <trkpt lat="56.0432565" lon="12.69517517">
        <ele>0</ele>
        <time>1970-01-01T01:00:00Z</time>
        <extensions><gpxtpx:TrackPointExtension><gpxtpx:hr>104</gpxtpx:hr></gpxtpx:TrackPointExtension></extensions>
      </trkpt>
      <trkpt lat="56.04326117" lon="12.69521333">
        <ele>0</ele>
        <time>1970-01-01T01:00:00Z</time>
        <extensions><gpxtpx:TrackPointExtension><gpxtpx:hr>104</gpxtpx:hr></gpxtpx:TrackPointExtension></extensions>
      </trkpt>
      <trkpt lat="56.04326117" lon="12.69521333">
        <ele>0</ele>
        <time>1970-01-01T01:00:00Z</time>
        <extensions><gpxtpx:TrackPointExtension><gpxtpx:hr>104</gpxtpx:hr></gpxtpx:TrackPointExtension></extensions>
      </trkpt>
      <trkpt lat="56.04326117" lon="12.69521333">
        <ele>0</ele>
        <time>1970-01-01T01:00:00Z</time>
        <extensions><gpxtpx:TrackPointExtension><gpxtpx:hr>104</gpxtpx:hr></gpxtpx:TrackPointExtension></extensions>
      </trkpt>
      <trkpt lat="56.04326117" lon="12.69521333">
        <ele>0</ele>
        <time>1970-01-01T01:00:00Z</time>
        <extensions><gpxtpx:TrackPointExtension><gpxtpx:hr>104</gpxtpx:hr></gpxtpx:TrackPointExtension></extensions>
      </trkpt>
      <trkpt lat="56.04326117" lon="12.69521333">
        <ele>0</ele>
        <time>1970-01-01T01:00:00Z</time>
        <extensions><gpxtpx:TrackPointExtension><gpxtpx:hr>105</gpxtpx:hr></gpxtpx:TrackPointExtension></extensions>
      </trkpt>
      <trkpt lat="56.04326117" lon="12.69521333">
        <ele>0</ele>
        <time>1970-01-01T01:00:00Z</time>
        <extensions><gpxtpx:TrackPointExtension><gpxtpx:hr>105</gpxtpx:hr></gpxtpx:TrackPointExtension></extensions>
      </trkpt>
      <trkpt lat="56.04326117" lon="12.69521333">
        <ele>0</ele>
        <time>1970-01-01T01:00:00Z</time>
        <extensions><gpxtpx:TrackPointExtension><gpxtpx:hr>105</gpxtpx:hr></gpxtpx:TrackPointExtension></extensions>
      </trkpt>
      <trkpt lat="56.04326117" lon="12.69521333">
        <ele>0</ele>
        <time>1970-01-01T01:00:00Z</time>
        <extensions><gpxtpx:TrackPointExtension><gpxtpx:hr>105</gpxtpx:hr></gpxtpx:TrackPointExtension></extensions>
      </trkpt>
      <trkpt lat="56.04326117" lon="12.69521333">
        <ele>0</ele>
        <time>1970-01-01T01:00:00Z</time>
        <extensions><gpxtpx:TrackPointExtension><gpxtpx:hr>105</gpxtpx:hr></gpxtpx:TrackPointExtension></extensions>
      </trkpt>
      <trkpt lat="56.04326117" lon="12.69521333">
        <ele>0</ele>
        <time>1970-01-01T01:00:00Z</time>
        <extensions><gpxtpx:TrackPointExtension><gpxtpx:hr>105</gpxtpx:hr></gpxtpx:TrackPointExtension></extensions>
      </trkpt>
      <trkpt lat="56.04326117" lon="12.69521333">
        <ele>0</ele>
        <time>1970-01-01T01:00:00Z</time>
        <extensions><gpxtpx:TrackPointExtension><gpxtpx:hr>105</gpxtpx:hr></gpxtpx:TrackPointExtension></extensions>
      </trkpt>
      <trkpt lat="56.04326117" lon="12.69521333">
        <ele>0</ele>
        <time>1970-01-01T01:00:00Z</time>
        <extensions><gpxtpx:TrackPointExtension><gpxtpx:hr>105</gpxtpx:hr></gpxtpx:TrackPointExtension></extensions>
      </trkpt>
      <trkpt lat="56.04326117" lon="12.69521333">
        <ele>0</ele>
        <time>1970-01-01T01:00:00Z</time>
        <extensions><gpxtpx:TrackPointExtension><gpxtpx:hr>105</gpxtpx:hr></gpxtpx:TrackPointExtension></extensions>
      </trkpt>
      <trkpt lat="56.04326117" lon="12.69521333">
        <ele>0</ele>
        <time>1970-01-01T01:00:00Z</time>
        <extensions><gpxtpx:TrackPointExtension><gpxtpx:hr>105</gpxtpx:hr></gpxtpx:TrackPointExtension></extensions>
      </trkpt>
      <trkpt lat="56.04326117" lon="12.69521333">
        <ele>0</ele>
        <time>1970-01-01T01:00:00Z</time>
        <extensions><gpxtpx:TrackPointExtension><gpxtpx:hr>105</gpxtpx:hr></gpxtpx:TrackPointExtension></extensions>
      </trkpt>
      <trkpt lat="56.04326117" lon="12.69521333">
        <ele>0</ele>
        <time>1970-01-01T01:00:00Z</time>
        <extensions><gpxtpx:TrackPointExtension><gpxtpx:hr>104</gpxtpx:hr></gpxtpx:TrackPointExtension></extensions>
      </trkpt>
      <trkpt lat="56.04326117" lon="12.69521333">
        <ele>0</ele>
        <time>1970-01-01T01:00:00Z</time>
        <extensions><gpxtpx:TrackPointExtension><gpxtpx:hr>103</gpxtpx:hr></gpxtpx:TrackPointExtension></extensions>
      </trkpt>
      <trkpt lat="56.04326117" lon="12.69521333">
        <ele>0</ele>
        <time>1970-01-01T01:00:00Z</time>
        <extensions><gpxtpx:TrackPointExtension><gpxtpx:hr>102</gpxtpx:hr></gpxtpx:TrackPointExtension></extensions>
      </trkpt>
      <trkpt lat="56.04326117" lon="12.69521333">
        <ele>0</ele>
        <time>1970-01-01T01:00:00Z</time>
        <extensions><gpxtpx:TrackPointExtension><gpxtpx:hr>102</gpxtpx:hr></gpxtpx:TrackPointExtension></extensions>
      </trkpt>
      <trkpt lat="56.04326117" lon="12.69521333">
        <ele>0</ele>
        <time>1970-01-01T01:00:00Z</time>
        <extensions><gpxtpx:TrackPointExtension><gpxtpx:hr>101</gpxtpx:hr></gpxtpx:TrackPointExtension></extensions>
      </trkpt>
      <trkpt lat="56.04326117" lon="12.69521333">
        <ele>0</ele>
        <time>1970-01-01T01:00:00Z</time>
        <extensions><gpxtpx:TrackPointExtension><gpxtpx:hr>100</gpxtpx:hr></gpxtpx:TrackPointExtension></extensions>
      </trkpt>
      <trkpt lat="56.04326117" lon="12.69521333">
        <ele>0</ele>
        <time>1970-01-01T01:00:00Z</time>
        <extensions><gpxtpx:TrackPointExtension><gpxtpx:hr>100</gpxtpx:hr></gpxtpx:TrackPointExtension></extensions>
      </trkpt>
      <trkpt lat="56.04326117" lon="12.69521333">
        <ele>0</ele>
        <time>1970-01-01T01:00:00Z</time>
        <extensions><gpxtpx:TrackPointExtension><gpxtpx:hr>100</gpxtpx:hr></gpxtpx:TrackPointExtension></extensions>
      </trkpt>
      <trkpt lat="56.04326117" lon="12.69521333">
        <ele>0</ele>
        <time>1970-01-01T01:00:00Z</time>
        <extensions><gpxtpx:TrackPointExtension><gpxtpx:hr>100</gpxtpx:hr></gpxtpx:TrackPointExtension></extensions>
      </trkpt>
      <trkpt lat="56.04326117" lon="12.69521333">
        <ele>0</ele>
        <time>1970-01-01T01:00:00Z</time>
        <extensions><gpxtpx:TrackPointExtension><gpxtpx:hr>100</gpxtpx:hr></gpxtpx:TrackPointExtension></extensions>
      </trkpt>
      <trkpt lat="56.04326117" lon="12.69521333">
        <ele>0</ele>
        <time>1970-01-01T01:00:00Z</time>
        <extensions><gpxtpx:TrackPointExtension><gpxtpx:hr>101</gpxtpx:hr></gpxtpx:TrackPointExtension></extensions>
      </trkpt>
      <trkpt lat="56.04326117" lon="12.69521333">
        <ele>0</ele>
        <time>1970-01-01T01:00:00Z</time>
        <extensions><gpxtpx:TrackPointExtension><gpxtpx:hr>101</gpxtpx:hr></gpxtpx:TrackPointExtension></extensions>
      </trkpt>
      <trkpt lat="56.04326117" lon="12.69521333">
        <ele>0</ele>
        <time>1970-01-01T01:00:00Z</time>
        <extensions><gpxtpx:TrackPointExtension><gpxtpx:hr>102</gpxtpx:hr></gpxtpx:TrackPointExtension></extensions>
      </trkpt>
      <trkpt lat="56.04326117" lon="12.69521333">
        <ele>0</ele>
        <time>1970-01-01T01:00:00Z</time>
        <extensions><gpxtpx:TrackPointExtension><gpxtpx:hr>102</gpxtpx:hr></gpxtpx:TrackPointExtension></extensions>
      </trkpt>
      <trkpt lat="56.04326117" lon="12.69521333">
        <ele>0</ele>
        <time>1970-01-01T01:00:00Z</time>
        <extensions><gpxtpx:TrackPointExtension><gpxtpx:hr>103</gpxtpx:hr></gpxtpx:TrackPointExtension></extensions>
      </trkpt>
      <trkpt lat="56.04326117" lon="12.69521333">
        <ele>0</ele>
        <time>1970-01-01T01:00:00Z</time>
        <extensions><gpxtpx:TrackPointExtension><gpxtpx:hr>103</gpxtpx:hr></gpxtpx:TrackPointExtension></extensions>
      </trkpt>
      <trkpt lat="56.04326117" lon="12.69521333">
        <ele>0</ele>
        <time>1970-01-01T01:00:00Z</time>
        <extensions><gpxtpx:TrackPointExtension><gpxtpx:hr>103</gpxtpx:hr></gpxtpx:TrackPointExtension></extensions>
      </trkpt>
      <trkpt lat="56.04326117" lon="12.69521333">
        <ele>0</ele>
        <time>1970-01-01T01:00:00Z</time>
        <extensions><gpxtpx:TrackPointExtension><gpxtpx:hr>103</gpxtpx:hr></gpxtpx:TrackPointExtension></extensions>
      </trkpt>
      <trkpt lat="56.04326117" lon="12.69521333">
        <ele>0</ele>
        <time>1970-01-01T01:00:00Z</time>
        <extensions><gpxtpx:TrackPointExtension><gpxtpx:hr>104</gpxtpx:hr></gpxtpx:TrackPointExtension></extensions>
      </trkpt>
      <trkpt lat="56.04326117" lon="12.69521333">
        <ele>0</ele>
        <time>1970-01-01T01:00:00Z</time>
        <extensions><gpxtpx:TrackPointExtension><gpxtpx:hr>104</gpxtpx:hr></gpxtpx:TrackPointExtension></extensions>
      </trkpt>
      <trkpt lat="56.04326117" lon="12.69521333">
        <ele>0</ele>
        <time>1970-01-01T01:00:00Z</time>
        <extensions><gpxtpx:TrackPointExtension><gpxtpx:hr>104</gpxtpx:hr></gpxtpx:TrackPointExtension></extensions>
      </trkpt>
      <trkpt lat="56.04326117" lon="12.69521333">
        <ele>0</ele>
        <time>1970-01-01T01:00:00Z</time>
        <extensions><gpxtpx:TrackPointExtension><gpxtpx:hr>104</gpxtpx:hr></gpxtpx:TrackPointExtension></extensions>
      </trkpt>
      <trkpt lat="56.04326117" lon="12.69521333">
        <ele>0</ele>
        <time>1970-01-01T01:00:00Z</time>
        <extensions><gpxtpx:TrackPointExtension><gpxtpx:hr>104</gpxtpx:hr></gpxtpx:TrackPointExtension></extensions>
      </trkpt>
      <trkpt lat="56.04326117" lon="12.69521333">
        <ele>0</ele>
        <time>1970-01-01T01:00:00Z</time>
        <extensions><gpxtpx:TrackPointExtension><gpxtpx:hr>105</gpxtpx:hr></gpxtpx:TrackPointExtension></extensions>
      </trkpt>
      <trkpt lat="56.04326117" lon="12.69521333">
        <ele>0</ele>
        <time>1970-01-01T01:00:00Z</time>
        <extensions><gpxtpx:TrackPointExtension><gpxtpx:hr>105</gpxtpx:hr></gpxtpx:TrackPointExtension></extensions>
      </trkpt>
      <trkpt lat="56.04326117" lon="12.69521333">
        <ele>0</ele>
        <time>1970-01-01T01:00:00Z</time>
        <extensions><gpxtpx:TrackPointExtension><gpxtpx:hr>106</gpxtpx:hr></gpxtpx:TrackPointExtension></extensions>
      </trkpt>
      <trkpt lat="56.04326117" lon="12.69521333">
        <ele>0</ele>
        <time>1970-01-01T01:00:00Z</time>
        <extensions><gpxtpx:TrackPointExtension><gpxtpx:hr>107</gpxtpx:hr></gpxtpx:TrackPointExtension></extensions>
      </trkpt>
      <trkpt lat="56.04326117" lon="12.69521333">
        <ele>0</ele>
        <time>1970-01-01T01:00:00Z</time>
        <extensions><gpxtpx:TrackPointExtension><gpxtpx:hr>107</gpxtpx:hr></gpxtpx:TrackPointExtension></extensions>
      </trkpt>
      <trkpt lat="56.04326117" lon="12.69521333">
        <ele>0</ele>
        <time>1970-01-01T01:00:00Z</time>
        <extensions><gpxtpx:TrackPointExtension><gpxtpx:hr>107</gpxtpx:hr></gpxtpx:TrackPointExtension></extensions>
      </trkpt>
      <trkpt lat="56.04326117" lon="12.69521333">
        <ele>0</ele>
        <time>1970-01-01T01:00:00Z</time>
        <extensions><gpxtpx:TrackPointExtension><gpxtpx:hr>107</gpxtpx:hr></gpxtpx:TrackPointExtension></extensions>
      </trkpt>
      <trkpt lat="56.04326117" lon="12.69521333">
        <ele>0</ele>
        <time>1970-01-01T01:00:00Z</time>
        <extensions><gpxtpx:TrackPointExtension><gpxtpx:hr>107</gpxtpx:hr></gpxtpx:TrackPointExtension></extensions>
      </trkpt>
      <trkpt lat="56.04326117" lon="12.69521333">
        <ele>0</ele>
        <time>1970-01-01T01:00:00Z</time>
        <extensions><gpxtpx:TrackPointExtension><gpxtpx:hr>107</gpxtpx:hr></gpxtpx:TrackPointExtension></extensions>
      </trkpt>
      <trkpt lat="56.04326117" lon="12.69521333">
        <ele>0</ele>
        <time>1970-01-01T01:00:00Z</time>
        <extensions><gpxtpx:TrackPointExtension><gpxtpx:hr>107</gpxtpx:hr></gpxtpx:TrackPointExtension></extensions>
      </trkpt>
      <trkpt lat="56.04326117" lon="12.69521333">
        <ele>0</ele>
        <time>1970-01-01T01:00:00Z</time>
        <extensions><gpxtpx:TrackPointExtension><gpxtpx:hr>107</gpxtpx:hr></gpxtpx:TrackPointExtension></extensions>
      </trkpt>
      <trkpt lat="56.04326117" lon="12.69521333">
        <ele>0</ele>
        <time>1970-01-01T01:00:00Z</time>
        <extensions><gpxtpx:TrackPointExtension><gpxtpx:hr>107</gpxtpx:hr></gpxtpx:TrackPointExtension></extensions>
      </trkpt>
      <trkpt lat="56.04326117" lon="12.69521333">
        <ele>0</ele>
        <time>1970-01-01T01:00:00Z</time>
        <extensions><gpxtpx:TrackPointExtension><gpxtpx:hr>108</gpxtpx:hr></gpxtpx:TrackPointExtension></extensions>
      </trkpt>
      <trkpt lat="56.04326117" lon="12.69521333">
        <ele>0</ele>
        <time>1970-01-01T01:00:00Z</time>
        <extensions><gpxtpx:TrackPointExtension><gpxtpx:hr>108</gpxtpx:hr></gpxtpx:TrackPointExtension></extensions>
      </trkpt>
      <trkpt lat="56.04326117" lon="12.69521333">
        <ele>0</ele>
        <time>1970-01-01T01:00:00Z</time>
        <extensions><gpxtpx:TrackPointExtension><gpxtpx:hr>108</gpxtpx:hr></gpxtpx:TrackPointExtension></extensions>
      </trkpt>
      <trkpt lat="56.04326117" lon="12.69521333">
        <ele>0</ele>
        <time>1970-01-01T01:00:00Z</time>
        <extensions><gpxtpx:TrackPointExtension><gpxtpx:hr>109</gpxtpx:hr></gpxtpx:TrackPointExtension></extensions>
      </trkpt>
      <trkpt lat="56.04326117" lon="12.69521333">
        <ele>0</ele>
        <time>1970-01-01T01:00:00Z</time>
        <extensions><gpxtpx:TrackPointExtension><gpxtpx:hr>109</gpxtpx:hr></gpxtpx:TrackPointExtension></extensions>
      </trkpt>
      <trkpt lat="56.04326117" lon="12.69521333">
        <ele>0</ele>
        <time>1970-01-01T01:00:00Z</time>
        <extensions><gpxtpx:TrackPointExtension><gpxtpx:hr>109</gpxtpx:hr></gpxtpx:TrackPointExtension></extensions>
      </trkpt>
      <trkpt lat="56.04326117" lon="12.69521333">
        <ele>0</ele>
        <time>1970-01-01T01:00:00Z</time>
        <extensions><gpxtpx:TrackPointExtension><gpxtpx:hr>109</gpxtpx:hr></gpxtpx:TrackPointExtension></extensions>
      </trkpt>
      <trkpt lat="56.04326117" lon="12.69521333">
        <ele>0</ele>
        <time>1970-01-01T01:00:00Z</time>
        <extensions><gpxtpx:TrackPointExtension><gpxtpx:hr>109</gpxtpx:hr></gpxtpx:TrackPointExtension></extensions>
      </trkpt>
      <trkpt lat="56.04326117" lon="12.69521333">
        <ele>0</ele>
        <time>1970-01-01T01:00:00Z</time>
        <extensions><gpxtpx:TrackPointExtension><gpxtpx:hr>110</gpxtpx:hr></gpxtpx:TrackPointExtension></extensions>
      </trkpt>
      <trkpt lat="56.04326117" lon="12.69521333">
        <ele>0</ele>
        <time>1970-01-01T01:00:00Z</time>
        <extensions><gpxtpx:TrackPointExtension><gpxtpx:hr>110</gpxtpx:hr></gpxtpx:TrackPointExtension></extensions>
      </trkpt>
      <trkpt lat="56.04326117" lon="12.69521333">
        <ele>0</ele>
        <time>1970-01-01T01:00:00Z</time>
        <extensions><gpxtpx:TrackPointExtension><gpxtpx:hr>110</gpxtpx:hr></gpxtpx:TrackPointExtension></extensions>
      </trkpt>
      <trkpt lat="56.04326117" lon="12.69521333">
        <ele>0</ele>
        <time>1970-01-01T01:00:00Z</time>
        <extensions><gpxtpx:TrackPointExtension><gpxtpx:hr>110</gpxtpx:hr></gpxtpx:TrackPointExtension></extensions>
      </trkpt>
      <trkpt lat="56.04326117" lon="12.69521333">
        <ele>0</ele>
        <time>1970-01-01T01:00:00Z</time>
        <extensions><gpxtpx:TrackPointExtension><gpxtpx:hr>110</gpxtpx:hr></gpxtpx:TrackPointExtension></extensions>
      </trkpt>
      <trkpt lat="56.04326117" lon="12.69521333">
        <ele>0</ele>
        <time>1970-01-01T01:00:00Z</time>
        <extensions><gpxtpx:TrackPointExtension><gpxtpx:hr>110</gpxtpx:hr></gpxtpx:TrackPointExtension></extensions>
      </trkpt>
      <trkpt lat="56.04326117" lon="12.69521333">
        <ele>0</ele>
        <time>1970-01-01T01:00:00Z</time>
        <extensions><gpxtpx:TrackPointExtension><gpxtpx:hr>110</gpxtpx:hr></gpxtpx:TrackPointExtension></extensions>
      </trkpt>
      <trkpt lat="56.04326117" lon="12.69521333">
        <ele>0</ele>
        <time>1970-01-01T01:00:00Z</time>
        <extensions><gpxtpx:TrackPointExtension><gpxtpx:hr>111</gpxtpx:hr></gpxtpx:TrackPointExtension></extensions>
      </trkpt>
      <trkpt lat="56.04326117" lon="12.69521333">
        <ele>0</ele>
        <time>1970-01-01T01:00:00Z</time>
        <extensions><gpxtpx:TrackPointExtension><gpxtpx:hr>112</gpxtpx:hr></gpxtpx:TrackPointExtension></extensions>
      </trkpt>
      <trkpt lat="56.04326117" lon="12.69521333">
        <ele>0</ele>
        <time>1970-01-01T01:00:00Z</time>
        <extensions><gpxtpx:TrackPointExtension><gpxtpx:hr>112</gpxtpx:hr></gpxtpx:TrackPointExtension></extensions>
      </trkpt>
      <trkpt lat="56.04326117" lon="12.69521333">
        <ele>0</ele>
        <time>1970-01-01T01:00:00Z</time>
        <extensions><gpxtpx:TrackPointExtension><gpxtpx:hr>113</gpxtpx:hr></gpxtpx:TrackPointExtension></extensions>
      </trkpt>
      <trkpt lat="56.04326117" lon="12.69521333">
        <ele>0</ele>
        <time>1970-01-01T01:00:00Z</time>
        <extensions><gpxtpx:TrackPointExtension><gpxtpx:hr>114</gpxtpx:hr></gpxtpx:TrackPointExtension></extensions>
      </trkpt>
      <trkpt lat="56.04326117" lon="12.69521333">
        <ele>0</ele>
        <time>1970-01-01T01:00:00Z</time>
        <extensions><gpxtpx:TrackPointExtension><gpxtpx:hr>114</gpxtpx:hr></gpxtpx:TrackPointExtension></extensions>
      </trkpt>
      <trkpt lat="56.04326117" lon="12.69521333">
        <ele>0</ele>
        <time>1970-01-01T01:00:00Z</time>
        <extensions><gpxtpx:TrackPointExtension><gpxtpx:hr>115</gpxtpx:hr></gpxtpx:TrackPointExtension></extensions>
      </trkpt>
      <trkpt lat="56.04326117" lon="12.69521333">
        <ele>0</ele>
        <time>1970-01-01T01:00:00Z</time>
        <extensions><gpxtpx:TrackPointExtension><gpxtpx:hr>115</gpxtpx:hr></gpxtpx:TrackPointExtension></extensions>
      </trkpt>
      <trkpt lat="56.04326117" lon="12.69521333">
        <ele>0</ele>
        <time>1970-01-01T01:00:00Z</time>
        <extensions><gpxtpx:TrackPointExtension><gpxtpx:hr>116</gpxtpx:hr></gpxtpx:TrackPointExtension></extensions>
      </trkpt>
      <trkpt lat="56.04326117" lon="12.69521333">
        <ele>0</ele>
        <time>1970-01-01T01:00:00Z</time>
        <extensions><gpxtpx:TrackPointExtension><gpxtpx:hr>116</gpxtpx:hr></gpxtpx:TrackPointExtension></extensions>
      </trkpt>
      <trkpt lat="56.04326117" lon="12.69521333">
        <ele>0</ele>
        <time>1970-01-01T01:00:00Z</time>
        <extensions><gpxtpx:TrackPointExtension><gpxtpx:hr>117</gpxtpx:hr></gpxtpx:TrackPointExtension></extensions>
      </trkpt>
      <trkpt lat="56.04326117" lon="12.69521333">
        <ele>0</ele>
        <time>1970-01-01T01:00:00Z</time>
        <extensions><gpxtpx:TrackPointExtension><gpxtpx:hr>117</gpxtpx:hr></gpxtpx:TrackPointExtension></extensions>
      </trkpt>
      <trkpt lat="56.04326117" lon="12.69521333">
        <ele>0</ele>
        <time>1970-01-01T01:00:00Z</time>
        <extensions><gpxtpx:TrackPointExtension><gpxtpx:hr>117</gpxtpx:hr></gpxtpx:TrackPointExtension></extensions>
      </trkpt>
      <trkpt lat="56.04326117" lon="12.69521333">
        <ele>0</ele>
        <time>1970-01-01T01:00:00Z</time>
        <extensions><gpxtpx:TrackPointExtension><gpxtpx:hr>117</gpxtpx:hr></gpxtpx:TrackPointExtension></extensions>
      </trkpt>
      <trkpt lat="56.04326117" lon="12.69521333">
        <ele>0</ele>
        <time>1970-01-01T01:00:00Z</time>
        <extensions><gpxtpx:TrackPointExtension><gpxtpx:hr>117</gpxtpx:hr></gpxtpx:TrackPointExtension></extensions>
      </trkpt>
      <trkpt lat="56.04326117" lon="12.69521333">
        <ele>0</ele>
        <time>1970-01-01T01:00:00Z</time>
        <extensions><gpxtpx:TrackPointExtension><gpxtpx:hr>116</gpxtpx:hr></gpxtpx:TrackPointExtension></extensions>
      </trkpt>
      <trkpt lat="56.04326117" lon="12.69521333">
        <ele>0</ele>
        <time>1970-01-01T01:00:00Z</time>
        <extensions><gpxtpx:TrackPointExtension><gpxtpx:hr>117</gpxtpx:hr></gpxtpx:TrackPointExtension></extensions>
      </trkpt>
      <trkpt lat="56.04326117" lon="12.69521333">
        <ele>0</ele>
        <time>1970-01-01T01:00:00Z</time>
        <extensions><gpxtpx:TrackPointExtension><gpxtpx:hr>117</gpxtpx:hr></gpxtpx:TrackPointExtension></extensions>
      </trkpt>
      <trkpt lat="56.04326117" lon="12.69521333">
        <ele>0</ele>
        <time>1970-01-01T01:00:00Z</time>
        <extensions><gpxtpx:TrackPointExtension><gpxtpx:hr>117</gpxtpx:hr></gpxtpx:TrackPointExtension></extensions>
      </trkpt>
      <trkpt lat="56.04326117" lon="12.69521333">
        <ele>0</ele>
        <time>1970-01-01T01:00:00Z</time>
        <extensions><gpxtpx:TrackPointExtension><gpxtpx:hr>117</gpxtpx:hr></gpxtpx:TrackPointExtension></extensions>
      </trkpt>
      <trkpt lat="56.04326117" lon="12.69521333">
        <ele>0</ele>
        <time>1970-01-01T01:00:00Z</time>
        <extensions><gpxtpx:TrackPointExtension><gpxtpx:hr>118</gpxtpx:hr></gpxtpx:TrackPointExtension></extensions>
      </trkpt>
      <trkpt lat="56.04326117" lon="12.69521333">
        <ele>0</ele>
        <time>1970-01-01T01:00:00Z</time>
        <extensions><gpxtpx:TrackPointExtension><gpxtpx:hr>118</gpxtpx:hr></gpxtpx:TrackPointExtension></extensions>
      </trkpt>
      <trkpt lat="56.04326117" lon="12.69521333">
        <ele>0</ele>
        <time>1970-01-01T01:00:00Z</time>
        <extensions><gpxtpx:TrackPointExtension><gpxtpx:hr>119</gpxtpx:hr></gpxtpx:TrackPointExtension></extensions>
      </trkpt>
      <trkpt lat="56.04326117" lon="12.69521333">
        <ele>0</ele>
        <time>1970-01-01T01:00:00Z</time>
        <extensions><gpxtpx:TrackPointExtension><gpxtpx:hr>119</gpxtpx:hr></gpxtpx:TrackPointExtension></extensions>
      </trkpt>
      <trkpt lat="56.04326117" lon="12.69521333">
        <ele>0</ele>
        <time>1970-01-01T01:00:00Z</time>
        <extensions><gpxtpx:TrackPointExtension><gpxtpx:hr>119</gpxtpx:hr></gpxtpx:TrackPointExtension></extensions>
      </trkpt>
      <trkpt lat="56.04326117" lon="12.69521333">
        <ele>0</ele>
        <time>1970-01-01T01:00:00Z</time>
        <extensions><gpxtpx:TrackPointExtension><gpxtpx:hr>119</gpxtpx:hr></gpxtpx:TrackPointExtension></extensions>
      </trkpt>
      <trkpt lat="56.04326117" lon="12.69521333">
        <ele>0</ele>
        <time>1970-01-01T01:00:00Z</time>
        <extensions><gpxtpx:TrackPointExtension><gpxtpx:hr>119</gpxtpx:hr></gpxtpx:TrackPointExtension></extensions>
      </trkpt>
      <trkpt lat="56.04326117" lon="12.69521333">
        <ele>0</ele>
        <time>1970-01-01T01:00:00Z</time>
        <extensions><gpxtpx:TrackPointExtension><gpxtpx:hr>119</gpxtpx:hr></gpxtpx:TrackPointExtension></extensions>
      </trkpt>
      <trkpt lat="56.04326117" lon="12.69521333">
        <ele>0</ele>
        <time>1970-01-01T01:00:00Z</time>
        <extensions><gpxtpx:TrackPointExtension><gpxtpx:hr>119</gpxtpx:hr></gpxtpx:TrackPointExtension></extensions>
      </trkpt>
      <trkpt lat="56.04326117" lon="12.69521333">
        <ele>0</ele>
        <time>1970-01-01T01:00:00Z</time>
        <extensions><gpxtpx:TrackPointExtension><gpxtpx:hr>119</gpxtpx:hr></gpxtpx:TrackPointExtension></extensions>
      </trkpt>
      <trkpt lat="56.04326117" lon="12.69521333">
        <ele>0</ele>
        <time>1970-01-01T01:00:00Z</time>
        <extensions><gpxtpx:TrackPointExtension><gpxtpx:hr>119</gpxtpx:hr></gpxtpx:TrackPointExtension></extensions>
      </trkpt>
      <trkpt lat="56.04326117" lon="12.69521333">
        <ele>0</ele>
        <time>1970-01-01T01:00:00Z</time>
        <extensions><gpxtpx:TrackPointExtension><gpxtpx:hr>119</gpxtpx:hr></gpxtpx:TrackPointExtension></extensions>
      </trkpt>
      <trkpt lat="56.04326117" lon="12.69521333">
        <ele>0</ele>
        <time>1970-01-01T01:00:00Z</time>
        <extensions><gpxtpx:TrackPointExtension><gpxtpx:hr>119</gpxtpx:hr></gpxtpx:TrackPointExtension></extensions>
      </trkpt>
      <trkpt lat="56.04326117" lon="12.69521333">
        <ele>0</ele>
        <time>1970-01-01T01:00:00Z</time>
        <extensions><gpxtpx:TrackPointExtension><gpxtpx:hr>119</gpxtpx:hr></gpxtpx:TrackPointExtension></extensions>
      </trkpt>
      <trkpt lat="56.04326117" lon="12.69521333">
        <ele>0</ele>
        <time>1970-01-01T01:00:00Z</time>
        <extensions><gpxtpx:TrackPointExtension><gpxtpx:hr>119</gpxtpx:hr></gpxtpx:TrackPointExtension></extensions>
      </trkpt>
      <trkpt lat="56.04326117" lon="12.69521333">
        <ele>0</ele>
        <time>1970-01-01T01:00:00Z</time>
        <extensions><gpxtpx:TrackPointExtension><gpxtpx:hr>119</gpxtpx:hr></gpxtpx:TrackPointExtension></extensions>
      </trkpt>
      <trkpt lat="56.04326117" lon="12.69521333">
        <ele>0</ele>
        <time>1970-01-01T01:00:00Z</time>
        <extensions><gpxtpx:TrackPointExtension><gpxtpx:hr>119</gpxtpx:hr></gpxtpx:TrackPointExtension></extensions>
      </trkpt>
      <trkpt lat="56.04326117" lon="12.69521333">
        <ele>0</ele>
        <time>1970-01-01T01:00:00Z</time>
        <extensions><gpxtpx:TrackPointExtension><gpxtpx:hr>120</gpxtpx:hr></gpxtpx:TrackPointExtension></extensions>
      </trkpt>
      <trkpt lat="56.04326117" lon="12.69521333">
        <ele>0</ele>
        <time>1970-01-01T01:00:00Z</time>
        <extensions><gpxtpx:TrackPointExtension><gpxtpx:hr>120</gpxtpx:hr></gpxtpx:TrackPointExtension></extensions>
      </trkpt>
      <trkpt lat="56.04326117" lon="12.69521333">
        <ele>0</ele>
        <time>1970-01-01T01:00:00Z</time>
        <extensions><gpxtpx:TrackPointExtension><gpxtpx:hr>121</gpxtpx:hr></gpxtpx:TrackPointExtension></extensions>
      </trkpt>
      <trkpt lat="56.04326117" lon="12.69521333">
        <ele>0</ele>
        <time>1970-01-01T01:00:00Z</time>
        <extensions><gpxtpx:TrackPointExtension><gpxtpx:hr>121</gpxtpx:hr></gpxtpx:TrackPointExtension></extensions>
      </trkpt>
      <trkpt lat="56.04326117" lon="12.69521333">
        <ele>0</ele>
        <time>1970-01-01T01:00:00Z</time>
        <extensions><gpxtpx:TrackPointExtension><gpxtpx:hr>121</gpxtpx:hr></gpxtpx:TrackPointExtension></extensions>
      </trkpt>
      <trkpt lat="56.04326117" lon="12.69521333">
        <ele>0</ele>
        <time>1970-01-01T01:00:00Z</time>
        <extensions><gpxtpx:TrackPointExtension><gpxtpx:hr>122</gpxtpx:hr></gpxtpx:TrackPointExtension></extensions>
      </trkpt>
      <trkpt lat="56.04326117" lon="12.69521333">
        <ele>0</ele>
        <time>1970-01-01T01:00:00Z</time>
        <extensions><gpxtpx:TrackPointExtension><gpxtpx:hr>122</gpxtpx:hr></gpxtpx:TrackPointExtension></extensions>
      </trkpt>
      <trkpt lat="56.04326117" lon="12.69521333">
        <ele>0</ele>
        <time>1970-01-01T01:00:00Z</time>
        <extensions><gpxtpx:TrackPointExtension><gpxtpx:hr>122</gpxtpx:hr></gpxtpx:TrackPointExtension></extensions>
      </trkpt>
      <trkpt lat="56.04326117" lon="12.69521333">
        <ele>0</ele>
        <time>1970-01-01T01:00:00Z</time>
        <extensions><gpxtpx:TrackPointExtension><gpxtpx:hr>123</gpxtpx:hr></gpxtpx:TrackPointExtension></extensions>
      </trkpt>
      <trkpt lat="56.04326117" lon="12.69521333">
        <ele>0</ele>
        <time>1970-01-01T01:00:00Z</time>
        <extensions><gpxtpx:TrackPointExtension><gpxtpx:hr>123</gpxtpx:hr></gpxtpx:TrackPointExtension></extensions>
      </trkpt>
      <trkpt lat="56.04326117" lon="12.69521333">
        <ele>0</ele>
        <time>1970-01-01T01:00:00Z</time>
        <extensions><gpxtpx:TrackPointExtension><gpxtpx:hr>123</gpxtpx:hr></gpxtpx:TrackPointExtension></extensions>
      </trkpt>
      <trkpt lat="56.04326117" lon="12.69521333">
        <ele>0</ele>
        <time>1970-01-01T01:00:00Z</time>
        <extensions><gpxtpx:TrackPointExtension><gpxtpx:hr>123</gpxtpx:hr></gpxtpx:TrackPointExtension></extensions>
      </trkpt>
      <trkpt lat="56.04326117" lon="12.69521333">
        <ele>0</ele>
        <time>1970-01-01T01:00:00Z</time>
        <extensions><gpxtpx:TrackPointExtension><gpxtpx:hr>123</gpxtpx:hr></gpxtpx:TrackPointExtension></extensions>
      </trkpt>
      <trkpt lat="56.04326117" lon="12.69521333">
        <ele>0</ele>
        <time>1970-01-01T01:00:00Z</time>
        <extensions><gpxtpx:TrackPointExtension><gpxtpx:hr>122</gpxtpx:hr></gpxtpx:TrackPointExtension></extensions>
      </trkpt>
      <trkpt lat="56.04326117" lon="12.69521333">
        <ele>0</ele>
        <time>1970-01-01T01:00:00Z</time>
        <extensions><gpxtpx:TrackPointExtension><gpxtpx:hr>122</gpxtpx:hr></gpxtpx:TrackPointExtension></extensions>
      </trkpt>
      <trkpt lat="56.04326117" lon="12.69521333">
        <ele>0</ele>
        <time>1970-01-01T01:00:00Z</time>
        <extensions><gpxtpx:TrackPointExtension><gpxtpx:hr>122</gpxtpx:hr></gpxtpx:TrackPointExtension></extensions>
      </trkpt>
      <trkpt lat="56.04326117" lon="12.69521333">
        <ele>0</ele>
        <time>1970-01-01T01:00:00Z</time>
        <extensions><gpxtpx:TrackPointExtension><gpxtpx:hr>121</gpxtpx:hr></gpxtpx:TrackPointExtension></extensions>
      </trkpt>
      <trkpt lat="56.04326117" lon="12.69521333">
        <ele>0</ele>
        <time>1970-01-01T01:00:00Z</time>
        <extensions><gpxtpx:TrackPointExtension><gpxtpx:hr>121</gpxtpx:hr></gpxtpx:TrackPointExtension></extensions>
      </trkpt>
      <trkpt lat="56.04326117" lon="12.69521333">
        <ele>0</ele>
        <time>1970-01-01T01:00:00Z</time>
        <extensions><gpxtpx:TrackPointExtension><gpxtpx:hr>121</gpxtpx:hr></gpxtpx:TrackPointExtension></extensions>
      </trkpt>
      <trkpt lat="56.04326117" lon="12.69521333">
        <ele>0</ele>
        <time>1970-01-01T01:00:00Z</time>
        <extensions><gpxtpx:TrackPointExtension><gpxtpx:hr>121</gpxtpx:hr></gpxtpx:TrackPointExtension></extensions>
      </trkpt>
      <trkpt lat="56.04326117" lon="12.69521333">
        <ele>0</ele>
        <time>1970-01-01T01:00:00Z</time>
        <extensions><gpxtpx:TrackPointExtension><gpxtpx:hr>121</gpxtpx:hr></gpxtpx:TrackPointExtension></extensions>
      </trkpt>
      <trkpt lat="56.04326117" lon="12.69521333">
        <ele>0</ele>
        <time>1970-01-01T01:00:00Z</time>
        <extensions><gpxtpx:TrackPointExtension><gpxtpx:hr>121</gpxtpx:hr></gpxtpx:TrackPointExtension></extensions>
      </trkpt>
      <trkpt lat="56.04326117" lon="12.69521333">
        <ele>0</ele>
        <time>1970-01-01T01:00:00Z</time>
        <extensions><gpxtpx:TrackPointExtension><gpxtpx:hr>121</gpxtpx:hr></gpxtpx:TrackPointExtension></extensions>
      </trkpt>
      <trkpt lat="56.04326117" lon="12.69521333">
        <ele>0</ele>
        <time>1970-01-01T01:00:00Z</time>
        <extensions><gpxtpx:TrackPointExtension><gpxtpx:hr>121</gpxtpx:hr></gpxtpx:TrackPointExtension></extensions>
      </trkpt>
      <trkpt lat="56.04326117" lon="12.69521333">
        <ele>0</ele>
        <time>1970-01-01T01:00:00Z</time>
        <extensions><gpxtpx:TrackPointExtension><gpxtpx:hr>121</gpxtpx:hr></gpxtpx:TrackPointExtension></extensions>
      </trkpt>
      <trkpt lat="56.04326117" lon="12.69521333">
        <ele>0</ele>
        <time>1970-01-01T01:00:00Z</time>
        <extensions><gpxtpx:TrackPointExtension><gpxtpx:hr>121</gpxtpx:hr></gpxtpx:TrackPointExtension></extensions>
      </trkpt>
      <trkpt lat="56.04326117" lon="12.69521333">
        <ele>0</ele>
        <time>1970-01-01T01:00:00Z</time>
        <extensions><gpxtpx:TrackPointExtension><gpxtpx:hr>120</gpxtpx:hr></gpxtpx:TrackPointExtension></extensions>
      </trkpt>
      <trkpt lat="56.04326117" lon="12.69521333">
        <ele>0</ele>
        <time>1970-01-01T01:00:00Z</time>
        <extensions><gpxtpx:TrackPointExtension><gpxtpx:hr>120</gpxtpx:hr></gpxtpx:TrackPointExtension></extensions>
      </trkpt>
      <trkpt lat="56.04326117" lon="12.69521333">
        <ele>0</ele>
        <time>1970-01-01T01:00:00Z</time>
        <extensions><gpxtpx:TrackPointExtension><gpxtpx:hr>121</gpxtpx:hr></gpxtpx:TrackPointExtension></extensions>
      </trkpt>
      <trkpt lat="56.04326117" lon="12.69521333">
        <ele>0</ele>
        <time>1970-01-01T01:00:00Z</time>
        <extensions><gpxtpx:TrackPointExtension><gpxtpx:hr>121</gpxtpx:hr></gpxtpx:TrackPointExtension></extensions>
      </trkpt>
      <trkpt lat="56.04326117" lon="12.69521333">
        <ele>0</ele>
        <time>1970-01-01T01:00:00Z</time>
        <extensions><gpxtpx:TrackPointExtension><gpxtpx:hr>121</gpxtpx:hr></gpxtpx:TrackPointExtension></extensions>
      </trkpt>
      <trkpt lat="56.04326117" lon="12.69521333">
        <ele>0</ele>
        <time>1970-01-01T01:00:00Z</time>
        <extensions><gpxtpx:TrackPointExtension><gpxtpx:hr>121</gpxtpx:hr></gpxtpx:TrackPointExtension></extensions>
      </trkpt>
      <trkpt lat="56.04326117" lon="12.69521333">
        <ele>0</ele>
        <time>1970-01-01T01:00:00Z</time>
        <extensions><gpxtpx:TrackPointExtension><gpxtpx:hr>121</gpxtpx:hr></gpxtpx:TrackPointExtension></extensions>
      </trkpt>
      <trkpt lat="56.04326117" lon="12.69521333">
        <ele>0</ele>
        <time>1970-01-01T01:00:00Z</time>
        <extensions><gpxtpx:TrackPointExtension><gpxtpx:hr>120</gpxtpx:hr></gpxtpx:TrackPointExtension></extensions>
      </trkpt>
      <trkpt lat="56.04326117" lon="12.69521333">
        <ele>0</ele>
        <time>1970-01-01T01:00:00Z</time>
        <extensions><gpxtpx:TrackPointExtension><gpxtpx:hr>120</gpxtpx:hr></gpxtpx:TrackPointExtension></extensions>
      </trkpt>
      <trkpt lat="56.04326117" lon="12.69521333">
        <ele>0</ele>
        <time>1970-01-01T01:00:00Z</time>
        <extensions><gpxtpx:TrackPointExtension><gpxtpx:hr>119</gpxtpx:hr></gpxtpx:TrackPointExtension></extensions>
      </trkpt>
      <trkpt lat="56.04326117" lon="12.69521333">
        <ele>0</ele>
        <time>1970-01-01T01:00:00Z</time>
        <extensions><gpxtpx:TrackPointExtension><gpxtpx:hr>119</gpxtpx:hr></gpxtpx:TrackPointExtension></extensions>
      </trkpt>
      <trkpt lat="56.04326117" lon="12.69521333">
        <ele>0</ele>
        <time>1970-01-01T01:00:00Z</time>
        <extensions><gpxtpx:TrackPointExtension><gpxtpx:hr>119</gpxtpx:hr></gpxtpx:TrackPointExtension></extensions>
      </trkpt>
      <trkpt lat="56.04326117" lon="12.69521333">
        <ele>0</ele>
        <time>1970-01-01T01:00:00Z</time>
        <extensions><gpxtpx:TrackPointExtension><gpxtpx:hr>119</gpxtpx:hr></gpxtpx:TrackPointExtension></extensions>
      </trkpt>
      <trkpt lat="56.04326117" lon="12.69521333">
        <ele>0</ele>
        <time>1970-01-01T01:00:00Z</time>
        <extensions><gpxtpx:TrackPointExtension><gpxtpx:hr>119</gpxtpx:hr></gpxtpx:TrackPointExtension></extensions>
      </trkpt>
      <trkpt lat="56.04326117" lon="12.69521333">
        <ele>0</ele>
        <time>1970-01-01T01:00:00Z</time>
        <extensions><gpxtpx:TrackPointExtension><gpxtpx:hr>119</gpxtpx:hr></gpxtpx:TrackPointExtension></extensions>
      </trkpt>
      <trkpt lat="56.04326117" lon="12.69521333">
        <ele>0</ele>
        <time>1970-01-01T01:00:00Z</time>
        <extensions><gpxtpx:TrackPointExtension><gpxtpx:hr>118</gpxtpx:hr></gpxtpx:TrackPointExtension></extensions>
      </trkpt>
      <trkpt lat="56.04326117" lon="12.69521333">
        <ele>0</ele>
        <time>1970-01-01T01:00:00Z</time>
        <extensions><gpxtpx:TrackPointExtension><gpxtpx:hr>118</gpxtpx:hr></gpxtpx:TrackPointExtension></extensions>
      </trkpt>
      <trkpt lat="56.04326117" lon="12.69521333">
        <ele>0</ele>
        <time>1970-01-01T01:00:00Z</time>
        <extensions><gpxtpx:TrackPointExtension><gpxtpx:hr>118</gpxtpx:hr></gpxtpx:TrackPointExtension></extensions>
      </trkpt>
      <trkpt lat="56.04326117" lon="12.69521333">
        <ele>0</ele>
        <time>1970-01-01T01:00:00Z</time>
        <extensions><gpxtpx:TrackPointExtension><gpxtpx:hr>119</gpxtpx:hr></gpxtpx:TrackPointExtension></extensions>
      </trkpt>
      <trkpt lat="56.04326117" lon="12.69521333">
        <ele>0</ele>
        <time>1970-01-01T01:00:00Z</time>
        <extensions><gpxtpx:TrackPointExtension><gpxtpx:hr>119</gpxtpx:hr></gpxtpx:TrackPointExtension></extensions>
      </trkpt>
      <trkpt lat="56.04326117" lon="12.69521333">
        <ele>0</ele>
        <time>1970-01-01T01:00:00Z</time>
        <extensions><gpxtpx:TrackPointExtension><gpxtpx:hr>119</gpxtpx:hr></gpxtpx:TrackPointExtension></extensions>
      </trkpt>
      <trkpt lat="56.04326117" lon="12.69521333">
        <ele>0</ele>
        <time>1970-01-01T01:00:00Z</time>
        <extensions><gpxtpx:TrackPointExtension><gpxtpx:hr>119</gpxtpx:hr></gpxtpx:TrackPointExtension></extensions>
      </trkpt>
      <trkpt lat="56.04326117" lon="12.69521333">
        <ele>0</ele>
        <time>1970-01-01T01:00:00Z</time>
        <extensions><gpxtpx:TrackPointExtension><gpxtpx:hr>119</gpxtpx:hr></gpxtpx:TrackPointExtension></extensions>
      </trkpt>
      <trkpt lat="56.04326117" lon="12.69521333">
        <ele>0</ele>
        <time>1970-01-01T01:00:00Z</time>
        <extensions><gpxtpx:TrackPointExtension><gpxtpx:hr>119</gpxtpx:hr></gpxtpx:TrackPointExtension></extensions>
      </trkpt>
      <trkpt lat="56.04326117" lon="12.69521333">
        <ele>0</ele>
        <time>1970-01-01T01:00:00Z</time>
        <extensions><gpxtpx:TrackPointExtension><gpxtpx:hr>119</gpxtpx:hr></gpxtpx:TrackPointExtension></extensions>
      </trkpt>
      <trkpt lat="56.04326117" lon="12.69521333">
        <ele>0</ele>
        <time>1970-01-01T01:00:00Z</time>
        <extensions><gpxtpx:TrackPointExtension><gpxtpx:hr>119</gpxtpx:hr></gpxtpx:TrackPointExtension></extensions>
      </trkpt>
      <trkpt lat="56.04326117" lon="12.69521333">
        <ele>0</ele>
        <time>1970-01-01T01:00:00Z</time>
        <extensions><gpxtpx:TrackPointExtension><gpxtpx:hr>119</gpxtpx:hr></gpxtpx:TrackPointExtension></extensions>
      </trkpt>
      <trkpt lat="56.04326117" lon="12.69521333">
        <ele>0</ele>
        <time>1970-01-01T01:00:00Z</time>
        <extensions><gpxtpx:TrackPointExtension><gpxtpx:hr>120</gpxtpx:hr></gpxtpx:TrackPointExtension></extensions>
      </trkpt>
      <trkpt lat="56.04326117" lon="12.69521333">
        <ele>0</ele>
        <time>1970-01-01T01:00:00Z</time>
        <extensions><gpxtpx:TrackPointExtension><gpxtpx:hr>120</gpxtpx:hr></gpxtpx:TrackPointExtension></extensions>
      </trkpt>
      <trkpt lat="56.04326117" lon="12.69521333">
        <ele>0</ele>
        <time>1970-01-01T01:00:00Z</time>
        <extensions><gpxtpx:TrackPointExtension><gpxtpx:hr>119</gpxtpx:hr></gpxtpx:TrackPointExtension></extensions>
      </trkpt>
      <trkpt lat="56.04326117" lon="12.69521333">
        <ele>0</ele>
        <time>1970-01-01T01:00:00Z</time>
        <extensions><gpxtpx:TrackPointExtension><gpxtpx:hr>119</gpxtpx:hr></gpxtpx:TrackPointExtension></extensions>
      </trkpt>
      <trkpt lat="56.04326117" lon="12.69521333">
        <ele>0</ele>
        <time>1970-01-01T01:00:00Z</time>
        <extensions><gpxtpx:TrackPointExtension><gpxtpx:hr>119</gpxtpx:hr></gpxtpx:TrackPointExtension></extensions>
      </trkpt>
      <trkpt lat="56.04326117" lon="12.69521333">
        <ele>0</ele>
        <time>1970-01-01T01:00:00Z</time>
        <extensions><gpxtpx:TrackPointExtension><gpxtpx:hr>119</gpxtpx:hr></gpxtpx:TrackPointExtension></extensions>
      </trkpt>
      <trkpt lat="56.04326117" lon="12.69521333">
        <ele>0</ele>
        <time>1970-01-01T01:00:00Z</time>
        <extensions><gpxtpx:TrackPointExtension><gpxtpx:hr>119</gpxtpx:hr></gpxtpx:TrackPointExtension></extensions>
      </trkpt>
      <trkpt lat="56.04326117" lon="12.69521333">
        <ele>0</ele>
        <time>1970-01-01T01:00:00Z</time>
        <extensions><gpxtpx:TrackPointExtension><gpxtpx:hr>119</gpxtpx:hr></gpxtpx:TrackPointExtension></extensions>
      </trkpt>
      <trkpt lat="56.04326117" lon="12.69521333">
        <ele>0</ele>
        <time>1970-01-01T01:00:00Z</time>
        <extensions><gpxtpx:TrackPointExtension><gpxtpx:hr>118</gpxtpx:hr></gpxtpx:TrackPointExtension></extensions>
      </trkpt>
      <trkpt lat="56.04326117" lon="12.69521333">
        <ele>0</ele>
        <time>1970-01-01T01:00:00Z</time>
        <extensions><gpxtpx:TrackPointExtension><gpxtpx:hr>118</gpxtpx:hr></gpxtpx:TrackPointExtension></extensions>
      </trkpt>
      <trkpt lat="56.04326117" lon="12.69521333">
        <ele>0</ele>
        <time>1970-01-01T01:00:00Z</time>
        <extensions><gpxtpx:TrackPointExtension><gpxtpx:hr>118</gpxtpx:hr></gpxtpx:TrackPointExtension></extensions>
      </trkpt>
      <trkpt lat="56.04326117" lon="12.69521333">
        <ele>0</ele>
        <time>1970-01-01T01:00:00Z</time>
        <extensions><gpxtpx:TrackPointExtension><gpxtpx:hr>119</gpxtpx:hr></gpxtpx:TrackPointExtension></extensions>
      </trkpt>
      <trkpt lat="56.04326117" lon="12.69521333">
        <ele>0</ele>
        <time>1970-01-01T01:00:00Z</time>
        <extensions><gpxtpx:TrackPointExtension><gpxtpx:hr>119</gpxtpx:hr></gpxtpx:TrackPointExtension></extensions>
      </trkpt>
      <trkpt lat="56.04326117" lon="12.69521333">
        <ele>0</ele>
        <time>1970-01-01T01:00:00Z</time>
        <extensions><gpxtpx:TrackPointExtension><gpxtpx:hr>119</gpxtpx:hr></gpxtpx:TrackPointExtension></extensions>
      </trkpt>
      <trkpt lat="56.04326117" lon="12.69521333">
        <ele>0</ele>
        <time>1970-01-01T01:00:00Z</time>
        <extensions><gpxtpx:TrackPointExtension><gpxtpx:hr>118</gpxtpx:hr></gpxtpx:TrackPointExtension></extensions>
      </trkpt>
      <trkpt lat="56.04326117" lon="12.69521333">
        <ele>0</ele>
        <time>1970-01-01T01:00:00Z</time>
        <extensions><gpxtpx:TrackPointExtension><gpxtpx:hr>119</gpxtpx:hr></gpxtpx:TrackPointExtension></extensions>
      </trkpt>
      <trkpt lat="56.04326117" lon="12.69521333">
        <ele>0</ele>
        <time>1970-01-01T01:00:00Z</time>
        <extensions><gpxtpx:TrackPointExtension><gpxtpx:hr>119</gpxtpx:hr></gpxtpx:TrackPointExtension></extensions>
      </trkpt>
      <trkpt lat="56.04326117" lon="12.69521333">
        <ele>0</ele>
        <time>1970-01-01T01:00:00Z</time>
        <extensions><gpxtpx:TrackPointExtension><gpxtpx:hr>119</gpxtpx:hr></gpxtpx:TrackPointExtension></extensions>
      </trkpt>
      <trkpt lat="56.04326117" lon="12.69521333">
        <ele>0</ele>
        <time>1970-01-01T01:00:00Z</time>
        <extensions><gpxtpx:TrackPointExtension><gpxtpx:hr>119</gpxtpx:hr></gpxtpx:TrackPointExtension></extensions>
      </trkpt>
      <trkpt lat="56.04326117" lon="12.69521333">
        <ele>0</ele>
        <time>1970-01-01T01:00:00Z</time>
        <extensions><gpxtpx:TrackPointExtension><gpxtpx:hr>120</gpxtpx:hr></gpxtpx:TrackPointExtension></extensions>
      </trkpt>
      <trkpt lat="56.04326117" lon="12.69521333">
        <ele>0</ele>
        <time>1970-01-01T01:00:00Z</time>
        <extensions><gpxtpx:TrackPointExtension><gpxtpx:hr>120</gpxtpx:hr></gpxtpx:TrackPointExtension></extensions>
      </trkpt>
      <trkpt lat="56.04326117" lon="12.69521333">
        <ele>0</ele>
        <time>1970-01-01T01:00:00Z</time>
        <extensions><gpxtpx:TrackPointExtension><gpxtpx:hr>120</gpxtpx:hr></gpxtpx:TrackPointExtension></extensions>
      </trkpt>
      <trkpt lat="56.04326117" lon="12.69521333">
        <ele>0</ele>
        <time>1970-01-01T01:00:00Z</time>
        <extensions><gpxtpx:TrackPointExtension><gpxtpx:hr>120</gpxtpx:hr></gpxtpx:TrackPointExtension></extensions>
      </trkpt>
      <trkpt lat="56.04326117" lon="12.69521333">
        <ele>0</ele>
        <time>1970-01-01T01:00:00Z</time>
        <extensions><gpxtpx:TrackPointExtension><gpxtpx:hr>120</gpxtpx:hr></gpxtpx:TrackPointExtension></extensions>
      </trkpt>
      <trkpt lat="56.04326117" lon="12.69521333">
        <ele>0</ele>
        <time>1970-01-01T01:00:00Z</time>
        <extensions><gpxtpx:TrackPointExtension><gpxtpx:hr>120</gpxtpx:hr></gpxtpx:TrackPointExtension></extensions>
      </trkpt>
      <trkpt lat="56.04326117" lon="12.69521333">
        <ele>0</ele>
        <time>1970-01-01T01:00:00Z</time>
        <extensions><gpxtpx:TrackPointExtension><gpxtpx:hr>120</gpxtpx:hr></gpxtpx:TrackPointExtension></extensions>
      </trkpt>
      <trkpt lat="56.04326117" lon="12.69521333">
        <ele>0</ele>
        <time>1970-01-01T01:00:00Z</time>
        <extensions><gpxtpx:TrackPointExtension><gpxtpx:hr>121</gpxtpx:hr></gpxtpx:TrackPointExtension></extensions>
      </trkpt>
      <trkpt lat="56.04326117" lon="12.69521333">
        <ele>0</ele>
        <time>1970-01-01T01:00:00Z</time>
        <extensions><gpxtpx:TrackPointExtension><gpxtpx:hr>121</gpxtpx:hr></gpxtpx:TrackPointExtension></extensions>
      </trkpt>
      <trkpt lat="56.04326117" lon="12.69521333">
        <ele>0</ele>
        <time>1970-01-01T01:00:00Z</time>
        <extensions><gpxtpx:TrackPointExtension><gpxtpx:hr>121</gpxtpx:hr></gpxtpx:TrackPointExtension></extensions>
      </trkpt>
      <trkpt lat="56.04326117" lon="12.69521333">
        <ele>0</ele>
        <time>1970-01-01T01:00:00Z</time>
        <extensions><gpxtpx:TrackPointExtension><gpxtpx:hr>121</gpxtpx:hr></gpxtpx:TrackPointExtension></extensions>
      </trkpt>
      <trkpt lat="56.04326117" lon="12.69521333">
        <ele>0</ele>
        <time>1970-01-01T01:00:00Z</time>
        <extensions><gpxtpx:TrackPointExtension><gpxtpx:hr>120</gpxtpx:hr></gpxtpx:TrackPointExtension></extensions>
      </trkpt>
      <trkpt lat="56.04326117" lon="12.69521333">
        <ele>0</ele>
        <time>1970-01-01T01:00:00Z</time>
        <extensions><gpxtpx:TrackPointExtension><gpxtpx:hr>120</gpxtpx:hr></gpxtpx:TrackPointExtension></extensions>
      </trkpt>
      <trkpt lat="56.04326117" lon="12.69521333">
        <ele>0</ele>
        <time>1970-01-01T01:00:00Z</time>
        <extensions><gpxtpx:TrackPointExtension><gpxtpx:hr>120</gpxtpx:hr></gpxtpx:TrackPointExtension></extensions>
      </trkpt>
      <trkpt lat="56.04326117" lon="12.69521333">
        <ele>0</ele>
        <time>1970-01-01T01:00:00Z</time>
        <extensions><gpxtpx:TrackPointExtension><gpxtpx:hr>120</gpxtpx:hr></gpxtpx:TrackPointExtension></extensions>
      </trkpt>
      <trkpt lat="56.04326117" lon="12.69521333">
        <ele>0</ele>
        <time>1970-01-01T01:00:00Z</time>
        <extensions><gpxtpx:TrackPointExtension><gpxtpx:hr>120</gpxtpx:hr></gpxtpx:TrackPointExtension></extensions>
      </trkpt>
      <trkpt lat="56.04326117" lon="12.69521333">
        <ele>0</ele>
        <time>1970-01-01T01:00:00Z</time>
        <extensions><gpxtpx:TrackPointExtension><gpxtpx:hr>119</gpxtpx:hr></gpxtpx:TrackPointExtension></extensions>
      </trkpt>
      <trkpt lat="56.04326117" lon="12.69521333">
        <ele>0</ele>
        <time>1970-01-01T01:00:00Z</time>
        <extensions><gpxtpx:TrackPointExtension><gpxtpx:hr>119</gpxtpx:hr></gpxtpx:TrackPointExtension></extensions>
      </trkpt>
      <trkpt lat="56.04326117" lon="12.69521333">
        <ele>0</ele>
        <time>1970-01-01T01:00:00Z</time>
        <extensions><gpxtpx:TrackPointExtension><gpxtpx:hr>118</gpxtpx:hr></gpxtpx:TrackPointExtension></extensions>
      </trkpt>
      <trkpt lat="56.04326117" lon="12.69521333">
        <ele>0</ele>
        <time>1970-01-01T01:00:00Z</time>
        <extensions><gpxtpx:TrackPointExtension><gpxtpx:hr>118</gpxtpx:hr></gpxtpx:TrackPointExtension></extensions>
      </trkpt>
      <trkpt lat="56.04326117" lon="12.69521333">
        <ele>0</ele>
        <time>1970-01-01T01:00:00Z</time>
        <extensions><gpxtpx:TrackPointExtension><gpxtpx:hr>118</gpxtpx:hr></gpxtpx:TrackPointExtension></extensions>
      </trkpt>
      <trkpt lat="56.04326117" lon="12.69521333">
        <ele>0</ele>
        <time>1970-01-01T01:00:00Z</time>
        <extensions><gpxtpx:TrackPointExtension><gpxtpx:hr>119</gpxtpx:hr></gpxtpx:TrackPointExtension></extensions>
      </trkpt>
      <trkpt lat="56.04326117" lon="12.69521333">
        <ele>0</ele>
        <time>1970-01-01T01:00:00Z</time>
        <extensions><gpxtpx:TrackPointExtension><gpxtpx:hr>119</gpxtpx:hr></gpxtpx:TrackPointExtension></extensions>
      </trkpt>
      <trkpt lat="56.04326117" lon="12.69521333">
        <ele>0</ele>
        <time>1970-01-01T01:00:00Z</time>
        <extensions><gpxtpx:TrackPointExtension><gpxtpx:hr>119</gpxtpx:hr></gpxtpx:TrackPointExtension></extensions>
      </trkpt>
      <trkpt lat="56.04326117" lon="12.69521333">
        <ele>0</ele>
        <time>1970-01-01T01:00:00Z</time>
        <extensions><gpxtpx:TrackPointExtension><gpxtpx:hr>119</gpxtpx:hr></gpxtpx:TrackPointExtension></extensions>
      </trkpt>
      <trkpt lat="56.04326117" lon="12.69521333">
        <ele>0</ele>
        <time>1970-01-01T01:00:00Z</time>
        <extensions><gpxtpx:TrackPointExtension><gpxtpx:hr>119</gpxtpx:hr></gpxtpx:TrackPointExtension></extensions>
      </trkpt>
      <trkpt lat="56.04326117" lon="12.69521333">
        <ele>0</ele>
        <time>1970-01-01T01:00:00Z</time>
        <extensions><gpxtpx:TrackPointExtension><gpxtpx:hr>119</gpxtpx:hr></gpxtpx:TrackPointExtension></extensions>
      </trkpt>
      <trkpt lat="56.04326117" lon="12.69521333">
        <ele>0</ele>
        <time>1970-01-01T01:00:00Z</time>
        <extensions><gpxtpx:TrackPointExtension><gpxtpx:hr>119</gpxtpx:hr></gpxtpx:TrackPointExtension></extensions>
      </trkpt>
      <trkpt lat="56.04326117" lon="12.69521333">
        <ele>0</ele>
        <time>1970-01-01T01:00:00Z</time>
        <extensions><gpxtpx:TrackPointExtension><gpxtpx:hr>119</gpxtpx:hr></gpxtpx:TrackPointExtension></extensions>
      </trkpt>
      <trkpt lat="56.04326117" lon="12.69521333">
        <ele>0</ele>
        <time>1970-01-01T01:00:00Z</time>
        <extensions><gpxtpx:TrackPointExtension><gpxtpx:hr>119</gpxtpx:hr></gpxtpx:TrackPointExtension></extensions>
      </trkpt>
      <trkpt lat="56.04326117" lon="12.69521333">
        <ele>0</ele>
        <time>1970-01-01T01:00:00Z</time>
        <extensions><gpxtpx:TrackPointExtension><gpxtpx:hr>119</gpxtpx:hr></gpxtpx:TrackPointExtension></extensions>
      </trkpt>
      <trkpt lat="56.04326117" lon="12.69521333">
        <ele>0</ele>
        <time>1970-01-01T01:00:00Z</time>
        <extensions><gpxtpx:TrackPointExtension><gpxtpx:hr>118</gpxtpx:hr></gpxtpx:TrackPointExtension></extensions>
      </trkpt>
      <trkpt lat="56.04326117" lon="12.69521333">
        <ele>0</ele>
        <time>1970-01-01T01:00:00Z</time>
        <extensions><gpxtpx:TrackPointExtension><gpxtpx:hr>119</gpxtpx:hr></gpxtpx:TrackPointExtension></extensions>
      </trkpt>
      <trkpt lat="56.04326117" lon="12.69521333">
        <ele>0</ele>
        <time>1970-01-01T01:00:00Z</time>
        <extensions><gpxtpx:TrackPointExtension><gpxtpx:hr>118</gpxtpx:hr></gpxtpx:TrackPointExtension></extensions>
      </trkpt>
      <trkpt lat="56.04326117" lon="12.69521333">
        <ele>0</ele>
        <time>1970-01-01T01:00:00Z</time>
        <extensions><gpxtpx:TrackPointExtension><gpxtpx:hr>118</gpxtpx:hr></gpxtpx:TrackPointExtension></extensions>
      </trkpt>
      <trkpt lat="56.04326117" lon="12.69521333">
        <ele>0</ele>
        <time>1970-01-01T01:00:00Z</time>
        <extensions><gpxtpx:TrackPointExtension><gpxtpx:hr>119</gpxtpx:hr></gpxtpx:TrackPointExtension></extensions>
      </trkpt>
      <trkpt lat="56.04326117" lon="12.69521333">
        <ele>0</ele>
        <time>1970-01-01T01:00:00Z</time>
        <extensions><gpxtpx:TrackPointExtension><gpxtpx:hr>119</gpxtpx:hr></gpxtpx:TrackPointExtension></extensions>
      </trkpt>
      <trkpt lat="56.04326117" lon="12.69521333">
        <ele>0</ele>
        <time>1970-01-01T01:00:00Z</time>
        <extensions><gpxtpx:TrackPointExtension><gpxtpx:hr>119</gpxtpx:hr></gpxtpx:TrackPointExtension></extensions>
      </trkpt>
      <trkpt lat="56.04326117" lon="12.69521333">
        <ele>0</ele>
        <time>1970-01-01T01:00:00Z</time>
        <extensions><gpxtpx:TrackPointExtension><gpxtpx:hr>119</gpxtpx:hr></gpxtpx:TrackPointExtension></extensions>
      </trkpt>
      <trkpt lat="56.04326117" lon="12.69521333">
        <ele>0</ele>
        <time>1970-01-01T01:00:00Z</time>
        <extensions><gpxtpx:TrackPointExtension><gpxtpx:hr>118</gpxtpx:hr></gpxtpx:TrackPointExtension></extensions>
      </trkpt>
      <trkpt lat="56.04326117" lon="12.69521333">
        <ele>0</ele>
        <time>1970-01-01T01:00:00Z</time>
        <extensions><gpxtpx:TrackPointExtension><gpxtpx:hr>119</gpxtpx:hr></gpxtpx:TrackPointExtension></extensions>
      </trkpt>
      <trkpt lat="56.04326117" lon="12.69521333">
        <ele>0</ele>
        <time>1970-01-01T01:00:00Z</time>
        <extensions><gpxtpx:TrackPointExtension><gpxtpx:hr>119</gpxtpx:hr></gpxtpx:TrackPointExtension></extensions>
      </trkpt>
      <trkpt lat="56.04326117" lon="12.69521333">
        <ele>0</ele>
        <time>1970-01-01T01:00:00Z</time>
        <extensions><gpxtpx:TrackPointExtension><gpxtpx:hr>119</gpxtpx:hr></gpxtpx:TrackPointExtension></extensions>
      </trkpt>
      <trkpt lat="56.04326117" lon="12.69521333">
        <ele>0</ele>
        <time>1970-01-01T01:00:00Z</time>
        <extensions><gpxtpx:TrackPointExtension><gpxtpx:hr>119</gpxtpx:hr></gpxtpx:TrackPointExtension></extensions>
      </trkpt>
      <trkpt lat="56.04326117" lon="12.69521333">
        <ele>0</ele>
        <time>1970-01-01T01:00:00Z</time>
        <extensions><gpxtpx:TrackPointExtension><gpxtpx:hr>120</gpxtpx:hr></gpxtpx:TrackPointExtension></extensions>
      </trkpt>
      <trkpt lat="56.04326117" lon="12.69521333">
        <ele>0</ele>
        <time>1970-01-01T01:00:00Z</time>
        <extensions><gpxtpx:TrackPointExtension><gpxtpx:hr>120</gpxtpx:hr></gpxtpx:TrackPointExtension></extensions>
      </trkpt>
      <trkpt lat="56.04326117" lon="12.69521333">
        <ele>0</ele>
        <time>1970-01-01T01:00:00Z</time>
        <extensions><gpxtpx:TrackPointExtension><gpxtpx:hr>119</gpxtpx:hr></gpxtpx:TrackPointExtension></extensions>
      </trkpt>
      <trkpt lat="56.04326117" lon="12.69521333">
        <ele>0</ele>
        <time>1970-01-01T01:00:00Z</time>
        <extensions><gpxtpx:TrackPointExtension><gpxtpx:hr>119</gpxtpx:hr></gpxtpx:TrackPointExtension></extensions>
      </trkpt>
      <trkpt lat="56.04326117" lon="12.69521333">
        <ele>0</ele>
        <time>1970-01-01T01:00:00Z</time>
        <extensions><gpxtpx:TrackPointExtension><gpxtpx:hr>119</gpxtpx:hr></gpxtpx:TrackPointExtension></extensions>
      </trkpt>
      <trkpt lat="56.04326117" lon="12.69521333">
        <ele>0</ele>
        <time>1970-01-01T01:00:00Z</time>
        <extensions><gpxtpx:TrackPointExtension><gpxtpx:hr>119</gpxtpx:hr></gpxtpx:TrackPointExtension></extensions>
      </trkpt>
      <trkpt lat="56.04326117" lon="12.69521333">
        <ele>0</ele>
        <time>1970-01-01T01:00:00Z</time>
        <extensions><gpxtpx:TrackPointExtension><gpxtpx:hr>118</gpxtpx:hr></gpxtpx:TrackPointExtension></extensions>
      </trkpt>
      <trkpt lat="56.04326117" lon="12.69521333">
        <ele>0</ele>
        <time>1970-01-01T01:00:00Z</time>
        <extensions><gpxtpx:TrackPointExtension><gpxtpx:hr>118</gpxtpx:hr></gpxtpx:TrackPointExtension></extensions>
      </trkpt>
      <trkpt lat="56.04326117" lon="12.69521333">
        <ele>0</ele>
        <time>1970-01-01T01:00:00Z</time>
        <extensions><gpxtpx:TrackPointExtension><gpxtpx:hr>118</gpxtpx:hr></gpxtpx:TrackPointExtension></extensions>
      </trkpt>
      <trkpt lat="56.04326117" lon="12.69521333">
        <ele>0</ele>
        <time>1970-01-01T01:00:00Z</time>
        <extensions><gpxtpx:TrackPointExtension><gpxtpx:hr>119</gpxtpx:hr></gpxtpx:TrackPointExtension></extensions>
      </trkpt>
      <trkpt lat="56.04326117" lon="12.69521333">
        <ele>0</ele>
        <time>1970-01-01T01:00:00Z</time>
        <extensions><gpxtpx:TrackPointExtension><gpxtpx:hr>119</gpxtpx:hr></gpxtpx:TrackPointExtension></extensions>
      </trkpt>
      <trkpt lat="56.04326117" lon="12.69521333">
        <ele>0</ele>
        <time>1970-01-01T01:00:00Z</time>
        <extensions><gpxtpx:TrackPointExtension><gpxtpx:hr>119</gpxtpx:hr></gpxtpx:TrackPointExtension></extensions>
      </trkpt>
      <trkpt lat="56.04326117" lon="12.69521333">
        <ele>0</ele>
        <time>1970-01-01T01:00:00Z</time>
        <extensions><gpxtpx:TrackPointExtension><gpxtpx:hr>119</gpxtpx:hr></gpxtpx:TrackPointExtension></extensions>
      </trkpt>
      <trkpt lat="56.04326117" lon="12.69521333">
        <ele>0</ele>
        <time>1970-01-01T01:00:00Z</time>
        <extensions><gpxtpx:TrackPointExtension><gpxtpx:hr>119</gpxtpx:hr></gpxtpx:TrackPointExtension></extensions>
      </trkpt>
      <trkpt lat="56.04326117" lon="12.69521333">
        <ele>0</ele>
        <time>1970-01-01T01:00:00Z</time>
        <extensions><gpxtpx:TrackPointExtension><gpxtpx:hr>119</gpxtpx:hr></gpxtpx:TrackPointExtension></extensions>
      </trkpt>
      <trkpt lat="56.04326117" lon="12.69521333">
        <ele>0</ele>
        <time>1970-01-01T01:00:00Z</time>
        <extensions><gpxtpx:TrackPointExtension><gpxtpx:hr>119</gpxtpx:hr></gpxtpx:TrackPointExtension></extensions>
      </trkpt>
      <trkpt lat="56.04326117" lon="12.69521333">
        <ele>0</ele>
        <time>1970-01-01T01:00:00Z</time>
        <extensions><gpxtpx:TrackPointExtension><gpxtpx:hr>119</gpxtpx:hr></gpxtpx:TrackPointExtension></extensions>
      </trkpt>
      <trkpt lat="56.04326117" lon="12.69521333">
        <ele>0</ele>
        <time>1970-01-01T01:00:00Z</time>
        <extensions><gpxtpx:TrackPointExtension><gpxtpx:hr>120</gpxtpx:hr></gpxtpx:TrackPointExtension></extensions>
      </trkpt>
      <trkpt lat="56.04326117" lon="12.69521333">
        <ele>0</ele>
        <time>1970-01-01T01:00:00Z</time>
        <extensions><gpxtpx:TrackPointExtension><gpxtpx:hr>119</gpxtpx:hr></gpxtpx:TrackPointExtension></extensions>
      </trkpt>
      <trkpt lat="56.04326117" lon="12.69521333">
        <ele>0</ele>
        <time>1970-01-01T01:00:00Z</time>
        <extensions><gpxtpx:TrackPointExtension><gpxtpx:hr>119</gpxtpx:hr></gpxtpx:TrackPointExtension></extensions>
      </trkpt>
      <trkpt lat="56.04326117" lon="12.69521333">
        <ele>0</ele>
        <time>1970-01-01T01:00:00Z</time>
        <extensions><gpxtpx:TrackPointExtension><gpxtpx:hr>119</gpxtpx:hr></gpxtpx:TrackPointExtension></extensions>
      </trkpt>
      <trkpt lat="56.04326117" lon="12.69521333">
        <ele>0</ele>
        <time>1970-01-01T01:00:00Z</time>
        <extensions><gpxtpx:TrackPointExtension><gpxtpx:hr>119</gpxtpx:hr></gpxtpx:TrackPointExtension></extensions>
      </trkpt>
      <trkpt lat="56.04326117" lon="12.69521333">
        <ele>0</ele>
        <time>1970-01-01T01:00:00Z</time>
        <extensions><gpxtpx:TrackPointExtension><gpxtpx:hr>119</gpxtpx:hr></gpxtpx:TrackPointExtension></extensions>
      </trkpt>
      <trkpt lat="56.04326117" lon="12.69521333">
        <ele>0</ele>
        <time>1970-01-01T01:00:00Z</time>
        <extensions><gpxtpx:TrackPointExtension><gpxtpx:hr>119</gpxtpx:hr></gpxtpx:TrackPointExtension></extensions>
      </trkpt>
      <trkpt lat="56.04326117" lon="12.69521333">
        <ele>0</ele>
        <time>1970-01-01T01:00:00Z</time>
        <extensions><gpxtpx:TrackPointExtension><gpxtpx:hr>119</gpxtpx:hr></gpxtpx:TrackPointExtension></extensions>
      </trkpt>
      <trkpt lat="56.04326117" lon="12.69521333">
        <ele>0</ele>
        <time>1970-01-01T01:00:00Z</time>
        <extensions><gpxtpx:TrackPointExtension><gpxtpx:hr>119</gpxtpx:hr></gpxtpx:TrackPointExtension></extensions>
      </trkpt>
      <trkpt lat="56.04326117" lon="12.69521333">
        <ele>0</ele>
        <time>1970-01-01T01:00:00Z</time>
        <extensions><gpxtpx:TrackPointExtension><gpxtpx:hr>119</gpxtpx:hr></gpxtpx:TrackPointExtension></extensions>
      </trkpt>
      <trkpt lat="56.04326117" lon="12.69521333">
        <ele>0</ele>
        <time>1970-01-01T01:00:00Z</time>
        <extensions><gpxtpx:TrackPointExtension><gpxtpx:hr>119</gpxtpx:hr></gpxtpx:TrackPointExtension></extensions>
      </trkpt>
      <trkpt lat="56.04326117" lon="12.69521333">
        <ele>0</ele>
        <time>1970-01-01T01:00:00Z</time>
        <extensions><gpxtpx:TrackPointExtension><gpxtpx:hr>119</gpxtpx:hr></gpxtpx:TrackPointExtension></extensions>
      </trkpt>
      <trkpt lat="56.04326117" lon="12.69521333">
        <ele>0</ele>
        <time>1970-01-01T01:00:00Z</time>
        <extensions><gpxtpx:TrackPointExtension><gpxtpx:hr>119</gpxtpx:hr></gpxtpx:TrackPointExtension></extensions>
      </trkpt>
      <trkpt lat="56.04326117" lon="12.69521333">
        <ele>0</ele>
        <time>1970-01-01T01:00:00Z</time>
        <extensions><gpxtpx:TrackPointExtension><gpxtpx:hr>119</gpxtpx:hr></gpxtpx:TrackPointExtension></extensions>
      </trkpt>
      <trkpt lat="56.04326117" lon="12.69521333">
        <ele>0</ele>
        <time>1970-01-01T01:00:00Z</time>
        <extensions><gpxtpx:TrackPointExtension><gpxtpx:hr>119</gpxtpx:hr></gpxtpx:TrackPointExtension></extensions>
      </trkpt>
      <trkpt lat="56.04326117" lon="12.69521333">
        <ele>0</ele>
        <time>1970-01-01T01:00:00Z</time>
        <extensions><gpxtpx:TrackPointExtension><gpxtpx:hr>119</gpxtpx:hr></gpxtpx:TrackPointExtension></extensions>
      </trkpt>
      <trkpt lat="56.04326117" lon="12.69521333">
        <ele>0</ele>
        <time>1970-01-01T01:00:00Z</time>
        <extensions><gpxtpx:TrackPointExtension><gpxtpx:hr>119</gpxtpx:hr></gpxtpx:TrackPointExtension></extensions>
      </trkpt>
      <trkpt lat="56.04326117" lon="12.69521333">
        <ele>0</ele>
        <time>1970-01-01T01:00:00Z</time>
        <extensions><gpxtpx:TrackPointExtension><gpxtpx:hr>119</gpxtpx:hr></gpxtpx:TrackPointExtension></extensions>
      </trkpt>
      <trkpt lat="56.04326117" lon="12.69521333">
        <ele>0</ele>
        <time>1970-01-01T01:00:00Z</time>
        <extensions><gpxtpx:TrackPointExtension><gpxtpx:hr>119</gpxtpx:hr></gpxtpx:TrackPointExtension></extensions>
      </trkpt>
      <trkpt lat="56.04326117" lon="12.69521333">
        <ele>0</ele>
        <time>1970-01-01T01:00:00Z</time>
        <extensions><gpxtpx:TrackPointExtension><gpxtpx:hr>119</gpxtpx:hr></gpxtpx:TrackPointExtension></extensions>
      </trkpt>
    </trkseg>
  </trk>
</gpx>